[[{"header":{"parameterUnit":"m.s-1","parameterCategory":1,"la1":30.6,"la2":28.766,"lo1":-90.7593,"lo2":-88.6598,"dy":0.0162,"dx":0.0183,"nx":116,"ny":114,"refTime":"2024-07-05T18:00:00:Z","depth":0,"parameterNumber":2,"parameterNumberName":"U-component_of_WINDS"},"data":[0.0,0.0,0.0,0.0,0.0,0.0,0.0,0.0,0.0,0.0,0.0,0.0,0.0,0.0,0.0,0.0,0.0,0.0,0.0,0.0,0.0,0.0,0.0,0.0,0.0,0.0,0.0,0.0,0.0,0.0,0.0,0.0,0.0,0.0,0.0,0.0,0.0,0.0,0.0,0.0,0.0,0.0,0.0,0.0,0.0,0.0,0.0,0.0,0.0,0.0,0.0,0.0,0.0,0.0,0.0,0.0,0.0,0.0,0.0,0.0,0.0,0.0,0.0,0.0,0.0,0.0,0.0,0.0,0.0,0.0,0.0,0.0,0.0,0.0,0.0,0.0,0.0,0.0,0.0,0.0,0.0,0.0,0.0,0.0,0.0,0.0,0.0,0.0,0.0,0.0,0.0,0.0,0.0,0.0,0.0,0.0,0.0,0.0,0.0,0.0,0.0,0.0,0.0,0.0,0.0,0.0,0.0,0.0,0.0,0.0,0.0,0.0,0.0,0.0,0.0,0.0,0.0,0.0,0.0,0.0,0.0,0.0,0.0,0.0,0.0,0.0,0.0,0.0,0.0,0.0,0.0,0.0,0.0,0.0,0.0,0.0,0.0,0.0,0.0,0.0,0.0,0.0,0.0,0.0,0.0,0.0,0.0,0.0,0.0,0.0,0.0,0.0,0.0,0.0,0.0,0.0,0.0,0.0,0.0,0.0,0.0,0.0,0.0,0.0,0.0,0.0,0.0,0.0,0.0,0.0,0.0,0.0,0.0,0.0,0.0,0.0,0.0,0.0,0.0,0.0,0.0,0.0,0.0,0.0,0.0,0.0,0.0,0.0,0.0,0.0,0.0,0.0,0.0,0.0,0.0,0.0,0.0,0.0,0.0,0.0,0.0,0.0,0.0,0.0,0.0,0.0,0.0,0.0,0.0,0.0,0.0,0.0,0.0,0.0,0.0,0.0,0.0,0.0,0.0,0.0,0.0,0.0,0.0,0.0,0.0,0.0,0.0,0.0,0.0,0.0,0.0,0.0,0.0,0.0,0.0,0.0,0.0,0.0,0.0,0.0,0.0,0.0,0.0,0.0,0.0,0.0,0.0,0.0,0.0,0.0,0.0,0.0,0.0,0.0,0.0,0.0,0.0,0.0,0.0,0.0,0.0,0.0,0.0,0.0,0.0,0.0,0.0,0.0,0.0,0.0,0.0,0.0,0.0,0.0,0.0,0.0,0.0,0.0,0.0,0.0,0.0,0.0,0.0,0.0,0.0,0.0,0.0,0.0,0.0,0.0,0.0,0.0,0.0,0.0,0.0,0.0,0.0,0.0,0.0,0.0,0.0,0.0,0.0,0.0,0.0,0.0,0.0,0.0,0.0,0.0,0.0,0.0,0.0,0.0,0.0,0.0,0.0,0.0,0.0,0.0,0.0,0.0,0.0,0.0,0.0,0.0,0.0,0.0,0.0,0.0,0.0,0.0,0.0,0.0,0.0,0.0,0.0,0.0,0.0,0.0,0.0,0.0,0.0,0.0,0.0,0.0,0.0,0.0,0.0,0.0,0.0,0.0,0.0,0.0,0.0,0.0,0.0,0.0,0.0,0.0,0.0,0.0,0.0,0.0,0.0,0.0,0.0,0.0,0.0,0.0,0.0,0.0,0.0,0.0,0.0,0.0,0.0,0.0,0.0,0.0,0.0,0.0,0.0,0.0,0.0,0.0,0.0,0.0,0.0,0.0,0.0,0.0,0.0,0.0,0.0,0.0,0.0,0.0,0.0,0.0,0.0,0.0,0.0,0.0,0.0,0.0,0.0,0.0,0.0,0.0,0.0,0.0,0.0,0.0,0.0,0.0,0.0,0.0,0.0,0.0,0.0,0.0,0.0,0.0,0.0,0.0,0.0,0.0,0.0,0.0,0.0,0.0,0.0,0.0,0.0,0.0,0.0,0.0,0.0,0.0,0.0,0.0,0.0,0.0,0.0,0.0,0.0,0.0,0.0,0.0,0.0,0.0,0.0,0.0,0.0,0.0,0.0,0.0,0.0,0.0,0.0,0.0,0.0,0.0,0.0,0.0,0.0,0.0,0.0,0.0,0.0,0.0,0.0,0.0,0.0,0.0,0.0,0.0,0.0,0.0,0.0,0.0,0.0,0.0,0.0,0.0,0.0,0.0,0.0,0.0,0.0,0.0,0.0,0.0,0.0,0.0,0.0,0.0,0.0,0.0,0.0,0.0,0.0,0.0,0.0,0.0,0.0,0.0,0.0,0.0,0.0,0.0,0.0,0.0,0.0,0.0,0.0,0.0,0.0,0.0,0.0,0.0,0.0,0.0,0.0,0.0,0.0,0.0,0.0,0.0,0.0,0.0,0.0,0.0,0.0,0.0,0.0,0.0,0.0,0.0,0.0,0.0,0.0,0.0,0.0,0.0,0.0,0.0,0.0,0.0,0.0,0.0,0.0,0.0,0.0,0.0,0.0,0.0,0.0,0.0,0.0,0.0,0.0,0.0,0.0,0.0,0.0,0.0,0.0,0.0,0.0,0.0,0.0,0.0,0.0,0.0,0.0,0.0,0.0,0.0,0.0,0.0,0.0,0.0,0.0,0.0,0.0,0.0,0.0,0.0,0.0,0.0,0.0,0.0,0.0,0.0,0.0,0.0,0.0,0.0,0.0,0.0,0.0,0.0,0.0,0.0,0.0,0.0,0.0,0.0,0.0,0.0,0.0,0.0,0.0,0.0,0.0,0.0,0.0,0.0,0.0,0.0,0.0,0.0,0.0,0.0,0.0,0.0,0.0,0.0,0.0,0.0,0.0,0.0,0.0,0.0,0.0,0.0,0.0,0.0,0.0,0.0,0.0,0.0,0.0,0.0,0.0,0.0,0.0,0.0,0.0,0.0,0.0,0.0,0.0,0.0,0.0,0.0,0.0,0.0,0.0,0.0,0.0,0.0,0.0,0.0,0.0,0.0,0.0,0.0,0.0,0.0,0.0,0.0,0.0,0.0,0.0,0.0,0.0,0.0,0.0,0.0,0.0,0.0,0.0,0.0,0.0,0.0,0.0,0.0,0.0,0.0,0.0,0.0,0.0,0.0,0.0,0.0,0.0,0.0,0.0,0.0,0.0,0.0,0.0,0.0,0.0,0.0,0.0,0.0,0.0,0.0,0.0,0.0,0.0,0.0,0.0,0.0,0.0,0.0,0.0,0.0,0.0,0.0,0.0,0.0,0.0,0.0,0.0,0.0,0.0,0.0,0.0,0.0,0.0,0.0,0.0,0.0,0.0,0.0,0.0,0.0,0.0,0.0,0.0,0.0,0.0,0.0,0.0,0.0,0.0,0.0,0.0,0.0,0.0,0.0,0.0,0.0,0.0,0.0,0.0,0.0,0.0,0.0,0.0,0.0,0.0,0.0,0.0,0.0,0.0,0.0,0.0,0.0,0.0,0.0,0.0,0.0,0.0,0.0,0.0,0.0,0.0,0.0,0.0,0.0,0.0,0.0,0.0,0.0,0.0,0.0,0.0,0.0,0.0,0.0,0.0,0.0,0.0,0.0,0.0,0.0,0.0,0.0,0.0,0.0,0.0,0.0,0.0,0.0,0.0,0.0,0.0,0.0,0.0,0.0,0.0,0.0,0.0,0.0,0.0,0.0,0.0,0.0,0.0,0.0,0.0,0.0,0.0,0.0,0.0,0.0,0.0,0.0,0.0,0.0,0.0,0.0,0.0,0.0,0.0,0.0,0.0,0.0,0.0,0.0,0.0,0.0,0.0,0.0,0.0,0.0,0.0,0.0,0.0,0.0,0.0,0.0,0.0,0.0,0.0,0.0,0.0,0.0,0.0,0.0,0.0,0.0,0.0,0.0,0.0,0.0,0.0,0.0,0.0,0.0,0.0,0.0,0.0,0.0,0.0,0.0,0.0,0.0,0.0,0.0,0.0,0.0,0.0,0.0,0.0,0.0,0.0,0.0,0.0,0.0,0.0,0.0,0.0,0.0,0.0,0.0,0.0,0.0,0.0,0.0,0.0,0.0,0.0,0.0,0.0,0.0,0.0,0.0,0.0,0.0,0.0,0.0,0.0,0.0,0.0,0.0,0.0,0.0,0.0,0.0,0.0,0.0,0.0,0.0,0.0,0.0,0.0,0.0,0.0,0.0,0.0,0.0,0.0,0.0,0.0,0.0,0.0,0.0,0.0,0.0,0.0,0.0,0.0,0.0,0.0,0.0,0.0,0.0,0.0,0.0,0.0,0.0,0.0,0.0,0.0,0.0,0.0,0.0,0.0,0.0,0.0,0.0,0.0,0.0,0.0,0.0,0.0,0.0,0.0,0.0,0.0,0.0,0.0,0.0,0.0,0.0,0.0,0.0,0.0,0.0,0.0,0.0,0.0,0.0,0.0,0.0,0.0,0.0,0.0,0.0,0.0,0.0,0.0,0.0,0.0,0.0,0.0,0.0,0.0,0.0,0.0,0.0,0.0,0.0,0.0,0.0,0.0,0.0,0.0,0.0,0.0,0.0,0.0,0.0,0.0,0.0,0.0,0.0,0.0,0.0,0.0,0.0,0.0,0.0,0.0,0.0,0.0,0.0,0.0,0.0,0.0,0.0,0.0,0.0,0.0,0.0,0.0,0.0,0.0,0.0,0.0,0.0,0.0,0.0,0.0,0.0,0.0,0.0,0.0,0.0,0.0,0.0,0.0,0.0,0.0,0.0,0.0,0.0,0.0,0.0,0.0,0.0,0.0,0.0,0.0,0.0,0.0,0.0,0.0,0.0,0.0,0.0,0.0,0.0,0.0,0.0,0.0,0.0,0.0,0.0,0.0,0.0,0.0,0.0,0.0,0.0,0.0,0.0,0.0,0.0,0.0,0.0,0.0,0.0,0.0,0.0,0.0,0.0,0.0,0.0,0.0,0.0,0.0,0.0,0.0,0.0,0.0,0.0,0.0,0.0,0.0,0.0,0.0,0.0,0.0,0.0,0.0,0.0,0.0,0.0,0.0,0.0,0.0,0.0,0.0,0.0,0.0,0.0,0.0,0.0,0.0,0.0,0.0,0.0,0.0,0.0,0.0,0.0,0.0,0.0,0.0,0.0,0.0,0.0,0.0,0.0,0.0,0.0,0.0,0.0,0.0,0.0,0.0,0.0,0.0,0.0,0.0,0.0,0.0,0.0,0.0,0.0,0.0,0.0,0.0,0.0,0.0,0.0,0.0,0.0,0.0,0.0,0.0,0.0,0.0,0.0,0.0,0.0,0.0,0.0,0.0,0.0,0.0,0.0,0.0,0.0,0.0,0.0,0.0,0.0,0.0,0.0,0.0,0.0,0.0,0.0,0.0,0.0,0.0,0.0,0.0,0.0,0.0,0.0,0.0,0.0,0.0,0.0,0.0,0.0,0.0,0.0,0.0,0.0,0.0,0.0,0.0,0.0,0.0,0.0,0.0,0.0,0.0,0.0,0.0,0.0,0.0,0.0,0.0,0.0,0.0,0.0,0.0,0.0,0.0,0.0,0.0,0.0,0.0,0.0,0.0,0.0,0.0,0.0,0.0,0.0,0.0,0.0,0.0,0.0,0.0,0.0,0.0,0.0,0.0,0.0,0.0,0.0,0.0,0.0,0.0,0.0,0.0,0.0,0.0,0.0,0.0,0.0,0.0,0.0,0.0,0.0,0.0,0.0,0.0,0.0,0.0,0.0,0.0,0.0,0.0,0.0,0.0,0.0,0.0,0.0,0.0,0.0,0.0,0.0,0.0,0.0,0.0,0.0,0.0,0.0,0.0,0.0,0.0,0.0,0.0,0.0,0.0,0.0,0.0,0.0,0.0,0.0,0.0,0.0,0.0,0.0,0.0,0.0,0.0,0.0,0.0,0.0,0.0,0.0,0.0,0.0,0.0,0.0,0.0,0.0,0.0,0.0,0.0,0.0,0.0,0.0,0.0,0.0,0.0,0.0,0.0,0.0,0.0,0.0,0.0,0.0,0.0,0.0,0.0,0.0,0.0,0.0,0.0,0.0,0.0,0.0,0.0,0.0,0.0,0.0,0.0,0.0,0.0,0.0,0.0,0.0,0.0,0.0,0.0,0.0,0.0,0.0,0.0,0.0,0.0,0.0,0.0,0.0,-0.3073,0.0,0.0,0.0,0.0,0.0,0.0,0.0,0.0,0.0,0.0,0.0,0.0,0.0,0.0,0.0,0.0,0.0,0.0,0.0,0.0,0.0,0.0,0.0,0.0,-0.5255,-0.5546,-0.5578,-0.5981,-0.6069,-0.5597,0.0,0.0,0.0,0.0,0.0,-0.527,-0.5294,-0.531,-0.5328,-0.5598,-0.6001,-0.6528,-0.6497,-0.6529,-0.6596,0.0,0.0,0.0,0.0,0.0,0.0,0.0,0.0,0.0,0.0,0.0,0.0,0.0,0.0,0.0,0.0,0.0,0.0,0.0,0.0,0.0,0.0,0.0,0.0,0.0,0.0,0.0,0.0,0.0,0.0,0.0,0.0,0.0,0.0,0.0,0.0,0.0,0.0,0.0,0.0,0.0,0.0,0.0,0.0,0.0,0.0,0.0,0.0,0.0,0.0,0.0,0.0,0.0,0.0,0.0,0.0,0.0,0.0,0.0,0.0,0.0,0.0,0.0,0.0,0.0,0.0,0.0,0.0,0.0,0.0,0.0,-0.3313,0.0,0.0,0.0,0.0,0.0,0.0,0.0,0.0,0.0,0.0,0.0,0.0,0.0,0.0,0.0,0.0,0.0,0.0,0.0,0.0,0.0,-0.4919,-0.5117,-0.574,-0.625,-0.6465,-0.7098,-0.717,-0.6404,-0.6315,0.0,0.0,0.0,-0.5841,-0.6062,-0.6198,-0.6146,-0.5911,-0.6405,-0.6915,-0.7434,-0.8137,-0.8074,-0.7405,-0.6837,0.0,0.0,0.0,0.0,0.0,0.0,0.0,0.0,0.0,0.0,0.0,0.0,0.0,0.0,0.0,0.0,0.0,0.0,0.0,0.0,0.0,0.0,0.0,0.0,0.0,0.0,0.0,0.0,0.0,0.0,0.0,0.0,0.0,0.0,0.0,0.0,0.0,0.0,0.0,0.0,0.0,0.0,0.0,0.0,0.0,0.0,0.0,0.0,0.0,0.0,0.0,0.0,0.0,0.0,0.0,0.0,0.0,0.0,0.0,0.0,0.0,0.0,0.0,-0.6219,-0.6092,-0.6979,-0.6979,-0.6493,-0.5531,-0.4528,-0.427,-0.4522,-0.4004,0.0,0.0,0.0,0.0,0.0,0.0,0.0,0.0,0.0,0.0,0.0,0.0,0.0,0.0,0.0,0.0,0.0,0.0,0.0,-0.5328,-0.6034,-0.6271,-0.6597,-0.7204,-0.7361,-0.7284,-0.6996,-0.6824,0.0,0.0,-0.6066,-0.5884,-0.5929,-0.5782,-0.5909,-0.6322,-0.7753,-0.8666,-0.9084,-0.9592,-0.9874,-0.9857,-0.8658,-0.8238,-0.842,0.0,0.0,0.0,0.0,0.0,0.0,0.0,0.0,0.0,0.0,0.0,0.0,0.0,0.0,0.0,0.0,0.0,0.0,0.0,0.0,0.0,0.0,0.0,0.0,0.0,0.0,0.0,0.0,0.0,0.0,0.0,0.0,0.0,0.0,0.0,0.0,0.0,0.0,0.0,0.0,0.0,-0.4378,-0.3584,0.0,0.0,0.0,0.0,0.0,0.0,0.0,0.0,0.0,0.0,0.0,0.0,0.0,-0.6465,-0.9362,-0.9418,-0.9563,-0.9825,-0.7782,-0.6874,-0.6979,-0.6979,-0.6941,-0.678,-0.6587,0.0,-0.5188,-0.5107,0.0,0.0,0.0,0.0,0.0,0.0,0.0,0.0,0.0,0.0,0.0,0.0,0.0,0.0,0.0,0.0,0.0,0.0,0.0,0.0,0.0,-0.6966,-0.7594,-0.7935,-0.831,-0.8287,-0.7695,-0.7476,-0.7269,-0.7076,-0.6715,-0.6604,-0.6802,-0.6817,-0.7153,-0.7811,-0.8966,-0.9582,-0.9695,-0.9883,-1.0038,-1.0094,-0.9511,-0.9186,-0.9057,-0.8708,0.0,0.0,0.0,0.0,0.0,0.0,0.0,0.0,0.0,0.0,0.0,0.0,0.0,0.0,0.0,0.0,0.0,0.0,0.0,0.0,0.0,0.0,0.0,0.0,0.0,0.0,0.0,0.0,0.0,0.0,0.0,0.0,0.0,0.0,0.0,0.0,0.0,0.0,0.0,-0.3685,-0.4252,-0.4386,-0.3869,-0.3506,0.0,0.0,0.0,0.0,0.0,0.0,0.0,0.0,0.0,-0.7275,-0.6619,-0.7562,-1.0273,-1.125,-1.1738,-1.1738,-1.0768,-1.0303,-1.0249,-0.8725,-0.8023,-0.8023,-0.8023,-0.7736,-0.7208,-0.654,-0.5959,-0.5365,0.0,0.0,0.0,0.0,-0.4008,-0.4768,0.0,0.0,0.0,0.0,0.0,0.0,0.0,0.0,0.0,0.0,0.0,0.0,-0.6715,-0.7681,-0.8404,-0.8632,-0.9109,-0.9098,-0.8391,-0.8125,-0.7913,-0.7736,-0.7295,-0.7194,-0.7517,-0.7826,-0.8361,-0.916,-0.9912,-1.0227,-1.0129,-1.0309,-1.0383,-1.0383,-1.0383,-1.0193,-0.9844,-0.9655,-0.9005,0.0,0.0,0.0,0.0,0.0,0.0,0.0,0.0,0.0,0.0,0.0,0.0,0.0,0.0,0.0,0.0,0.0,0.0,0.0,0.0,0.0,0.0,0.0,0.0,0.0,0.0,0.0,0.0,0.0,0.0,0.0,0.0,0.0,0.0,0.0,0.0,0.0,0.0,-0.3679,-0.411,-0.4894,-0.4631,-0.4146,0.0,0.0,0.0,0.0,0.0,0.0,-0.5699,-0.6256,-0.7934,-1.0889,-0.9384,-0.9298,-1.0947,-1.2236,-1.2881,-1.2881,-1.2881,-1.2881,-1.2832,-1.0795,-0.9472,-0.8804,-0.8804,-0.8804,-0.8738,-0.7842,-0.7475,-0.7348,-0.6039,-0.5264,-0.4847,-0.4847,-0.5943,-0.734,0.0,0.0,0.0,0.0,0.0,0.0,0.0,0.0,0.0,0.0,0.0,-0.6593,-0.8125,-0.8299,-0.8577,-0.9283,-0.9383,-0.9305,0.0,0.0,-0.8506,-0.8364,-0.7606,-0.7306,-0.759,-0.8167,-0.8923,-0.9845,-1.0458,-1.0772,-1.0768,-1.1416,-1.17,-1.17,-1.17,-1.1475,-1.1072,-1.0364,-1.0172,-1.0223,0.0,0.0,0.0,0.0,0.0,0.0,0.0,0.0,0.0,0.0,0.0,0.0,0.0,0.0,0.0,0.0,0.0,0.0,0.0,0.0,0.0,0.0,0.0,0.0,0.0,0.0,0.0,0.0,0.0,0.0,0.0,0.0,0.0,0.0,0.0,0.0,0.0,0.0,0.0,-0.4719,-0.5899,0.0,0.0,0.0,0.0,-0.7301,-0.7473,-0.7319,-0.6949,-0.8901,-1.0864,-1.2695,-1.2648,-1.2648,-1.2754,-1.2832,-1.2881,-1.2881,-1.2881,-1.2881,-1.2881,-1.2783,-1.125,-0.8804,-0.8804,-0.8804,-0.8804,-0.8744,-0.8717,-0.8711,-0.8624,-0.8564,-0.8544,-0.8544,-0.8617,-0.8338,0.0,0.0,0.0,-0.4889,-0.4957,-0.4999,-0.497,-0.5334,-0.5711,-0.6001,-0.6796,-0.7569,-0.8144,-0.8453,-0.8734,-0.8984,-0.885,-0.8728,-0.8655,-0.8418,-0.8248,-0.8198,-0.7562,-0.7451,-0.7969,-0.9169,-1.001,-1.0469,-1.1565,-1.2089,-1.2089,-1.2777,-1.3092,-1.3092,-1.3092,-1.3004,-1.2788,-1.1203,-1.0367,-1.0033,-0.9064,-0.8603,0.0,0.0,0.0,0.0,0.0,0.0,0.0,0.0,0.0,0.0,0.0,0.0,0.0,0.0,0.0,0.0,0.0,0.0,0.0,0.0,0.0,0.0,0.0,0.0,0.0,0.0,0.0,0.0,0.0,0.0,0.0,0.0,0.0,0.0,0.0,0.0,0.0,-0.711,-0.7406,0.0,-0.7843,-0.5919,-0.5376,-0.7115,-0.7258,-0.8279,-1.0683,-1.1525,-1.2236,-1.2861,-1.2881,-1.2881,-1.2881,-1.2881,-1.2881,-1.2881,-1.2881,-1.2881,-1.2881,-1.2881,-1.1401,-0.8804,-0.8804,-0.8804,-0.8804,-0.8804,-0.8804,-0.8804,-0.8804,-0.8804,-0.8804,-0.8804,-0.8804,-0.8646,-0.4626,-0.4792,0.0,-0.5017,-0.5031,-0.5014,-0.4982,-0.5559,-0.6089,-0.6306,-0.7362,-0.8188,-0.8409,-0.8688,-0.8807,-0.8779,-0.8644,-0.8526,-0.8415,-0.828,-0.8171,-0.8102,-0.7825,-0.8081,-0.8949,-0.9985,-1.0822,-1.1476,-1.2343,-1.2921,-1.3136,-1.36,-1.381,-1.381,-1.381,-1.381,-1.3695,-1.2388,-1.1326,-1.0503,-1.0058,-0.9678,-0.9214,0.0,0.0,0.0,0.0,0.0,0.0,0.0,0.0,0.0,0.0,0.0,0.0,0.0,0.0,0.0,0.0,0.0,0.0,0.0,0.0,0.0,0.0,0.0,0.0,0.0,0.0,0.0,0.0,0.0,0.0,0.0,0.0,0.0,0.0,0.0,-0.6649,-0.8142,-0.8606,-0.9103,-0.9834,-0.8388,-0.7861,-0.8901,-0.8988,-1.0135,-1.2764,-1.2881,-1.2881,-1.2881,-1.2881,-1.2881,-1.2881,-1.2881,-1.2881,-1.2881,-1.2881,-1.2881,-1.2881,-1.2881,-1.1401,-0.8804,-0.8804,-0.8804,-0.8804,-0.8804,-0.8804,-0.8804,-0.8804,-0.8804,-0.8804,-0.8804,-0.8804,-0.8804,-0.468,-0.4857,-0.5016,-0.5078,-0.5097,-0.5061,-0.4917,-0.5644,-0.641,-0.6918,-0.7645,-0.8374,-0.9029,-0.8979,-0.8852,-0.8717,-0.8818,-0.8743,-0.8412,-0.839,-0.8296,-0.8119,-0.8479,-0.926,-1.05,-1.0564,-1.1299,-1.2831,-1.2846,-1.3181,-1.384,-1.3855,-1.387,-1.387,-1.387,-1.387,-1.387,-1.387,-1.3107,-1.1895,-1.182,-1.1057,-0.9875,0.0,0.0,0.0,0.0,0.0,0.0,0.0,0.0,0.0,0.0,0.0,0.0,0.0,0.0,0.0,0.0,0.0,0.0,0.0,0.0,0.0,0.0,0.0,0.0,0.0,0.0,0.0,0.0,0.0,0.0,0.0,0.0,0.0,-0.5584,-0.6694,-0.764,-0.7687,-0.9545,-1.0371,-0.9264,-1.0663,-1.1998,-1.2822,-1.2881,-1.2881,-1.2881,-1.2881,-1.2881,-1.2881,-1.2881,-1.2881,-1.2881,-1.2881,-1.2881,-1.2881,-1.2881,-1.2881,-1.2881,-1.2881,-1.1451,-0.891,-0.8857,-0.8804,-0.8804,-0.8804,-0.8804,-0.8804,-0.8804,-0.8804,-0.8804,-0.8804,-0.8804,-0.8804,-0.468,-0.4857,-0.5005,-0.5016,-0.5032,-0.5008,-0.4919,-0.5923,-0.6748,-0.685,-0.7926,-0.8761,-0.8923,-0.884,-0.8753,-0.8705,-0.8472,-0.8274,-0.8185,-0.8094,-0.8153,-0.8386,-0.954,-1.051,-1.1213,-1.1852,-1.2611,-1.3525,-1.4004,-1.4333,-1.4528,-1.5007,-1.5259,-1.5259,-1.5259,-1.5259,-1.5259,-1.5259,-1.4764,-1.384,-1.2388,-1.1595,-1.1096,0.0,0.0,0.0,0.0,0.0,0.0,0.0,0.0,0.0,0.0,0.0,0.0,0.0,0.0,0.0,0.0,0.0,0.0,0.0,0.0,0.0,0.0,0.0,0.0,0.0,0.0,0.0,0.0,0.0,0.0,0.0,0.0,-0.7871,-0.853,-0.843,-0.8675,-0.9795,-1.0705,-1.1158,-1.0908,-1.1911,-1.2617,-1.2861,-1.2881,-1.2881,-1.2881,-1.2881,-1.2881,-1.2881,-1.2881,-1.2881,-1.2881,-1.2881,-1.2881,-1.2881,-1.2881,-1.2881,-1.2881,-1.2881,-1.2471,-1.1651,-0.9673,-0.8804,-0.8804,-0.8804,-0.8804,-0.8804,-0.8804,-0.8804,-0.8804,-0.8804,-0.8804,-0.8804,-0.4797,-0.4915,-0.5011,-0.5039,-0.5017,-0.4974,-0.4883,-0.6038,-0.6896,-0.6776,-0.8067,-0.8968,-0.8902,-0.884,-0.8724,-0.8579,-0.8497,-0.8329,-0.8037,-0.8198,-0.866,-0.9424,-1.0589,-1.1472,-1.2021,-1.282,-1.354,-1.4229,-1.4603,-1.4932,-1.5244,-1.5619,-1.5799,-1.5799,-1.5799,-1.5799,-1.5799,-1.5799,-1.5589,-1.5109,-1.363,-1.2882,-1.244,-1.0716,-1.015,-1.014,-0.8988,-0.897,-0.9516,-0.968,0.0,0.0,0.0,0.0,0.0,0.0,0.0,0.0,0.0,0.0,0.0,0.0,0.0,0.0,0.0,0.0,0.0,0.0,0.0,0.0,0.0,0.0,0.0,0.0,-1.1279,-1.0258,-1.1062,-1.0073,-0.974,-1.0913,-1.164,-1.2044,-1.2139,-1.2578,-1.2881,-1.2881,-1.2881,-1.2881,-1.2881,-1.2881,-1.2881,-1.2881,-1.2881,-1.2881,-1.2881,-1.2881,-1.2881,-1.2881,-1.2881,-1.2881,-1.2881,-1.2881,-1.3262,-1.3777,-1.0811,-0.9721,-0.9936,-0.9514,-0.9252,0.0,0.0,0.0,0.0,0.0,-0.9025,-0.9018,-0.4936,-0.4995,-0.5018,-0.5077,-0.504,-0.495,-0.4816,-0.6028,-0.6907,-0.6723,-0.8084,-0.9043,-0.8913,-0.8891,-0.8778,-0.8476,-0.8719,-0.864,-0.8119,-0.8681,-0.9583,-1.0797,-1.1542,-1.2231,-1.2938,-1.3595,-1.427,-1.4983,-1.4929,-1.5229,-1.5799,-1.5799,-1.5799,-1.5799,-1.5799,-1.5799,-1.5799,-1.5799,-1.5799,-1.5754,-1.5169,-1.4513,-1.378,-1.2508,-1.1925,-1.17,-1.0922,-1.0413,-1.0159,-1.0518,0.0,0.0,0.0,0.0,0.0,0.0,0.0,0.0,0.0,0.0,0.0,0.0,0.0,0.0,0.0,0.0,0.0,0.0,0.0,0.0,0.0,0.0,0.0,0.0,-1.2832,-1.2774,-1.2881,-1.1544,-1.0824,-1.1498,-1.2378,-1.2881,-1.2881,-1.2881,-1.2881,-1.2881,-1.2881,-1.2881,-1.2881,0.0,0.0,0.0,0.0,-1.2881,-1.2881,-1.2881,-1.2881,-1.2881,-1.2881,-1.2881,-1.2891,-1.3076,-1.3826,-1.4678,-1.1905,-1.1009,-1.134,-1.0356,-0.984,-0.9633,-0.9112,-0.8905,-0.8951,-0.9299,-0.9365,-0.9296,-0.4824,-0.4927,-0.4998,-0.5019,-0.5,-0.4936,-0.4754,-0.593,-0.6804,-0.6707,-0.8014,-0.8925,-0.8902,-0.8891,-0.8869,-0.8812,-0.876,-0.8874,0.0,0.0,-1.0248,-1.1088,-1.207,-1.3046,-1.3984,-1.4384,-1.5079,-1.6018,-1.5745,-1.5679,-1.5799,-1.5799,-1.5799,-1.5799,-1.5799,-1.5799,-1.5799,-1.5799,-1.5799,-1.5784,-1.5664,-1.5214,-1.4513,-1.372,-1.2747,-1.1775,-1.161,-1.1506,-1.1446,-1.1521,-1.108,-1.0406,-0.9863,0.0,0.0,0.0,0.0,0.0,0.0,0.0,0.0,0.0,0.0,0.0,0.0,0.0,0.0,0.0,0.0,0.0,0.0,0.0,0.0,-1.2656,-1.2255,-1.2049,-1.2774,-1.2122,-1.1813,-1.2541,-1.2774,-1.2881,-1.2881,-1.2881,-1.2881,-1.2881,-1.2881,-1.2881,-1.2881,-1.2881,-1.2881,-1.2881,-1.2881,-1.2881,-1.2881,-1.2881,-1.2881,-1.2881,0.0,0.0,-1.293,-1.4297,-1.3673,-1.1516,-1.1458,-1.0967,-1.031,-0.9917,-0.9719,-0.9673,-0.9559,-0.9512,-0.9526,-0.9599,-0.9613,-0.9613,-0.4876,-0.4961,-0.502,-0.5042,-0.4966,-0.4884,-0.4809,-0.5912,-0.6755,-0.6748,-0.8014,-0.8891,-0.8891,-0.8891,-0.8869,-0.8806,-0.8652,0.0,0.0,-1.024,-1.0789,-1.1851,-1.3093,-1.3976,-1.4505,-1.5349,-1.5945,-1.6301,-1.6136,-1.5955,-1.5799,-1.5799,-1.5799,-1.5814,-1.6114,-1.6263,-1.6263,-1.6263,-1.6263,-1.6219,-1.5933,-1.5604,-1.5274,-1.4944,-1.4378,-1.3805,-1.3805,-1.2927,-1.185,-1.2179,-1.1563,-1.0565,-1.0142,-0.929,-0.8303,0.0,0.0,0.0,0.0,0.0,0.0,0.0,0.0,0.0,0.0,0.0,0.0,0.0,0.0,-0.8533,-0.8057,0.0,-1.168,-1.2715,-1.252,-1.2363,-1.2832,-1.2559,-1.2501,-1.2881,-1.2881,-1.2881,-1.2881,-1.2881,-1.2881,-1.2881,-1.2881,-1.3252,-1.4102,-1.374,-1.3506,-1.3506,-1.3926,-1.415,-1.415,-1.415,-1.415,-1.415,-1.415,-1.415,-1.418,-1.5029,-1.4501,-1.2976,-1.2796,-1.2222,-1.1451,-1.0518,-1.012,-1.012,-1.012,-0.994,-0.9699,-0.9846,-0.99,-0.992,-0.4993,-0.5027,-0.5041,-0.509,-0.4941,-0.4843,-0.49,-0.5817,-0.6579,-0.6772,-0.7897,-0.8739,-0.8874,-0.8891,-0.8846,0.0,0.0,0.0,0.0,-1.0669,-1.1187,-1.2619,-1.3972,-1.4726,-1.4792,-1.612,-1.6659,-1.6394,-1.6328,-1.6136,-1.5799,-1.5885,-1.5856,-1.5829,-1.6368,-1.6653,-1.6697,-1.6577,-1.6592,-1.6652,-1.6024,-1.5799,-1.5799,-1.5799,-1.5799,-1.5769,-1.5499,-1.4004,-1.2224,-1.2516,-1.1882,-1.087,-1.0334,-0.972,-0.8993,-0.8022,-0.7775,0.0,0.0,0.0,0.0,0.0,0.0,0.0,0.0,0.0,-0.9488,-0.9104,-0.961,-1.0214,-1.0591,-1.1084,-1.1777,-1.2725,-1.2881,-1.2881,-1.2881,-1.2881,-1.2881,-1.2881,-1.2881,-1.2881,-1.2881,-1.2881,-1.2949,-1.3115,-1.3125,-1.3721,-1.5098,-1.4668,-1.433,-1.433,-1.5049,-1.541,-1.541,-1.541,-1.541,-1.541,-1.541,-1.541,-1.541,-1.541,-1.5294,-1.505,-1.3906,-1.3183,-1.2634,-1.117,-1.0624,-1.0624,-1.0624,-1.0274,-0.988,-1.0114,-1.02,-1.0241,-0.506,-0.5098,-0.5091,-0.5108,-0.4975,-0.4892,-0.4903,-0.5424,-0.6056,-0.6711,-0.7455,-0.818,-0.8824,-0.8891,-0.8891,-0.8869,0.0,0.0,-1.0984,-1.0884,-1.1433,-1.2877,-1.4094,-1.4837,-1.5134,-1.6241,-1.6789,-1.6738,-1.6463,-1.6136,-1.5799,-1.6108,-1.6095,-1.5827,-1.6185,-1.6466,-1.6667,-1.6129,-1.6219,-1.6652,-1.6024,-1.5799,-1.5799,-1.5799,-1.5799,-1.5649,-1.4453,-1.384,-1.3421,-1.2284,-1.163,-1.1205,-1.0908,-1.022,-0.9459,-0.9031,0.0,-0.8233,-0.8192,-0.8099,-0.8115,-0.856,-0.8633,-0.9067,0.0,0.0,-1.0391,-1.1081,-1.1587,-1.1888,-1.1824,-1.2287,-1.2725,-1.2861,-1.2881,-1.2881,-1.2881,-1.2881,-1.2881,-1.2881,-1.2881,-1.2881,-1.2881,-1.2881,-1.3193,-1.3883,-1.3994,-1.4029,-1.4214,-1.4902,-1.5264,-1.5264,-1.5361,-1.541,-1.541,-1.541,-1.541,-1.541,-1.541,-1.541,-1.541,-1.541,-1.4874,-1.3906,-1.2565,-1.202,-1.1834,-1.0989,-1.0624,-1.0624,-1.0624,-1.0584,-1.053,-1.0557,-1.0514,-1.0577,-0.5066,-0.5095,-0.5091,-0.5094,-0.4985,-0.4921,-0.4956,-0.5389,-0.5981,-0.6749,-0.7405,-0.8078,-0.8824,-0.884,-0.8818,-0.8891,-0.8829,-0.9438,-1.0994,-1.1028,-1.1654,-1.3176,-1.4516,-1.528,-1.5419,-1.6708,-1.7288,-1.7101,-1.6952,-1.6617,-1.608,-1.6246,-1.6108,-1.5814,-1.6291,-1.6593,-1.6697,-1.6428,-1.6458,-1.6652,-1.6024,-1.5913,-1.608,-1.608,-1.5983,-1.5724,-1.5184,-1.3959,0.0,0.0,-1.189,-1.1048,-1.0944,-1.0385,-0.97,-0.9249,-0.9479,0.0,-0.9995,0.0,0.0,0.0,-1.0186,-1.0723,-1.1094,-1.1299,-1.1514,-1.1875,-1.2305,-1.2588,-1.2529,-1.2715,-1.2881,0.0,-1.2881,-1.2881,-1.2881,-1.2881,-1.3017,-1.3372,-1.3104,-1.2881,-1.2881,-1.2881,-1.3232,-1.4019,-1.3941,-1.4136,-1.4844,-1.499,-1.5156,-1.54,-1.541,-1.541,-1.541,-1.541,-1.541,-1.541,-1.541,-1.541,-1.541,-1.541,-1.5167,-1.4688,-1.3657,-1.3174,-1.3114,-1.2328,-1.1973,-1.1973,-1.1469,-1.1288,-1.1226,-1.0744,-1.0624,-1.0624,-0.5031,-0.5089,-0.5091,-0.5095,-0.4996,-0.4946,-0.4998,-0.5256,-0.5804,-0.6777,-0.7252,-0.7878,-0.8801,-0.8783,-0.8748,-0.888,-0.8771,-0.9309,-1.0693,-1.0994,-1.1688,-1.3041,-1.4513,-1.5392,-1.5595,-1.6847,-1.7417,-1.7296,-1.7296,-1.6986,-1.6448,-1.6528,-1.6394,-1.6111,-1.6642,-1.692,-1.6984,-1.6802,-1.6817,-1.6939,-1.6228,-1.6136,-1.6405,-1.6111,-1.6022,-1.6006,-1.5435,-1.3525,0.0,0.0,-1.1471,-1.0754,-1.0592,-1.0303,-1.0008,-0.9843,-1.0567,-1.1366,-1.119,0.0,0.0,-1.0724,-1.1436,-1.2044,-1.1572,-1.1953,-1.2412,-1.2412,-1.2656,-1.2881,-1.2881,-1.2881,0.0,-1.2881,-1.2881,-1.3027,-1.3344,-1.3296,-1.3467,-1.4143,-1.3563,-1.3152,-1.3152,-1.3017,-1.3232,-1.4019,-1.3902,-1.4307,-1.5352,-1.5117,-1.5098,-1.54,-1.541,-1.541,-1.541,-1.541,-1.541,-1.541,-1.541,-1.541,-1.541,-1.541,-1.541,-1.5352,-1.4569,-1.4213,-1.4145,-1.3304,-1.3009,-1.2948,-1.2389,-1.202,-1.1772,-1.1413,-1.0996,-1.0624,-0.4995,-0.5049,-0.5092,-0.5108,-0.5045,-0.5007,-0.5006,-0.4899,-0.5319,-0.6712,-0.6854,-0.7363,-0.875,-0.8783,-0.8748,-0.888,-0.8771,-0.908,-0.9971,-1.0707,-1.1468,-1.2297,-1.3752,-1.4885,-1.5578,-1.6343,-1.692,-1.7296,-1.7296,-1.7126,-1.6789,-1.7126,-1.7101,-1.6789,-1.7117,-1.7458,-1.7741,-1.7082,-1.7168,-1.7697,-1.6675,-1.6474,-1.6658,-1.5619,-1.5853,-1.6511,-1.4562,0.0,0.0,0.0,-0.981,-1.0307,-0.9805,-0.9973,0.0,-1.1302,-1.1968,0.0,0.0,0.0,-1.1664,-1.1588,-1.1875,-1.2287,-1.2725,-1.2842,-1.2861,-1.2861,-1.2871,-1.2881,-1.2881,-1.2881,-1.2881,-1.2881,-1.2881,-1.3296,-1.4479,-1.4329,-1.4376,-1.5164,-1.4376,-1.3768,0.0,-1.3238,-1.3232,-1.4019,-1.4077,-1.4447,-1.5361,-1.54,-1.54,-1.541,-1.541,-1.541,-1.541,-1.541,-1.541,-1.541,-1.541,-1.541,-1.541,-1.541,-1.541,-1.5352,-1.4569,-1.4213,-1.4145,-1.3304,-1.3009,-1.3009,-1.2948,-1.2512,-1.1888,-1.2634,-1.1911,-1.0624,-0.4993,-0.5062,-0.5109,-0.5097,-0.5087,-0.506,-0.5002,-0.4878,-0.5333,-0.6843,-0.7786,0.0,0.0,0.0,0.0,0.0,-0.8648,-0.8923,-0.9937,-1.0145,-1.0848,-1.2246,-1.3244,-1.4124,-1.4851,-1.5595,-1.6045,-1.6177,-1.6646,-1.6725,-1.6417,-1.7018,-1.7126,-1.6815,-1.6917,-1.7046,-1.7125,-1.6901,-1.6933,-1.7051,-1.6247,-1.6111,-1.6337,-1.5742,-1.5023,-1.4161,0.0,0.0,0.0,0.0,-0.9492,-0.9867,-0.9818,0.0,0.0,-1.1719,0.0,0.0,0.0,0.0,-1.3183,-1.2725,-1.3247,-1.3776,-1.3569,-1.3789,-1.3967,-1.36,-1.3515,-1.3372,-1.2968,-1.2881,-1.2881,-1.2881,-1.3563,-1.4154,-1.4283,-1.5079,-1.5614,-1.5525,-1.5164,0.0,0.0,0.0,0.0,-1.4019,-1.4077,-1.4666,-1.6042,-1.6151,-1.6151,-1.6151,-1.6151,-1.5864,-1.541,-1.541,-1.541,-1.541,-1.541,-1.541,-1.541,-1.541,-1.5566,-1.584,-1.559,-1.5632,-1.5847,-1.5589,-1.5464,-1.5392,-1.4872,-1.4475,-1.4221,-1.3975,-1.3316,-1.2515,-0.4991,-0.504,-0.5077,-0.5097,-0.5096,0.0,0.0,0.0,0.0,0.0,0.0,0.0,0.0,0.0,0.0,0.0,0.0,-0.8825,-0.9562,-0.9777,-1.0363,-1.142,-1.2178,-1.2923,-1.3701,-1.4174,-1.4682,-1.5206,-1.568,-1.5933,-1.5994,-1.6481,-1.6584,-1.6376,-1.6376,-1.6376,-1.6376,-1.6376,-1.6376,-1.6303,-1.5434,-1.5277,-1.5482,-1.4557,-1.3822,0.0,0.0,0.0,0.0,-0.813,0.0,0.0,0.0,0.0,0.0,0.0,0.0,-1.3507,0.0,-1.4369,-1.4243,-1.3782,-1.4191,-1.4606,-1.419,-1.4422,-1.4516,-1.3974,-1.385,-1.3669,-1.3063,-1.294,-1.2955,-1.2939,-1.3907,-1.4673,-1.4606,-1.5818,-1.667,-1.6551,-1.6315,-1.6276,0.0,0.0,0.0,-1.5089,-1.5141,-1.5623,-1.6834,-1.6866,-1.6866,-1.6866,-1.6866,-1.6539,-1.5806,-1.5806,-1.5722,-1.5644,-1.5644,-1.5732,-1.5879,-1.5879,-1.6035,-1.6299,-1.6299,-1.6465,-1.6665,-1.6665,-1.6665,-1.6665,-1.6128,-1.5716,-1.545,-1.5265,-1.4775,-1.4124,-0.4986,-0.5,-0.5027,0.0,0.0,0.0,0.0,0.0,0.0,0.0,0.0,0.0,0.0,0.0,0.0,0.0,0.0,0.0,-0.8891,-0.9545,0.0,-1.0001,-1.0673,-1.1417,-1.2212,-1.2246,-1.2923,-1.4325,-1.4359,-1.4749,-1.5426,-1.546,-1.5494,-1.5494,-1.5494,-1.5494,-1.5494,-1.5494,-1.5494,-1.5407,-1.4344,-1.4101,-1.4188,-1.2243,0.0,0.0,0.0,0.0,0.0,0.0,0.0,0.0,0.0,0.0,0.0,0.0,0.0,-1.4949,-1.4845,-1.4874,-1.4877,-1.4767,-1.4744,-1.4789,-1.4744,-1.4732,-1.4575,-1.4037,-1.387,-1.3649,0.0,0.0,-1.2987,-1.3015,-1.4002,-1.4923,-1.5466,-1.6596,-1.7533,0.0,0.0,0.0,0.0,0.0,0.0,-1.7126,0.0,-1.7182,-1.7599,-1.7688,-1.7688,-1.7688,-1.7688,-1.7302,-1.6539,-1.657,-1.6407,-1.6186,-1.6145,-1.6318,-1.6665,-1.6665,-1.6685,-1.6768,-1.6768,-1.6777,-1.6797,-1.6797,-1.6797,-1.6797,-1.6797,-1.6322,-1.5716,-1.6459,-1.6239,-1.5432,0.0,0.0,0.0,0.0,0.0,0.0,0.0,0.0,0.0,0.0,0.0,0.0,0.0,0.0,0.0,0.0,0.0,0.0,0.0,0.0,0.0,0.0,0.0,0.0,-1.1383,-1.14,0.0,0.0,0.0,-1.2957,-1.3143,-1.3684,-1.3972,-1.3972,-1.3972,-1.3972,-1.3972,-1.3972,-1.3972,-1.3887,0.0,-1.279,-1.2756,0.0,0.0,0.0,0.0,0.0,0.0,0.0,0.0,0.0,0.0,0.0,-1.3871,0.0,0.0,-1.5477,-1.5492,-1.5773,-1.5936,-1.5475,-1.5688,-1.592,-1.5454,-1.5389,-1.5151,-1.417,-1.3627,-1.2991,-1.1982,0.0,0.0,-1.2998,-1.4334,0.0,-1.6103,-1.7193,0.0,0.0,0.0,-1.8561,-1.8561,-1.84,0.0,0.0,-1.7804,-1.7448,-1.837,-1.8436,-1.8436,-1.8436,-1.8436,-1.807,-1.7302,-1.7116,-1.7009,-1.6896,-1.6644,-1.6621,-1.6665,-1.6665,-1.6914,-1.7217,-1.7217,-1.7393,-1.7686,-1.7686,-1.7686,-1.7686,-1.7686,-1.7542,-1.7398,-1.7609,-1.7348,-1.6852,0.0,0.0,0.0,0.0,0.0,0.0,0.0,0.0,0.0,0.0,0.0,0.0,0.0,0.0,0.0,0.0,0.0,0.0,0.0,0.0,0.0,0.0,0.0,-0.9781,-1.0128,-1.019,0.0,0.0,0.0,0.0,0.0,-1.2211,-1.2397,-1.2397,-1.2397,-1.2397,-1.2397,-1.2397,0.0,0.0,0.0,0.0,0.0,0.0,0.0,0.0,0.0,0.0,0.0,0.0,0.0,-1.2234,-1.2948,-1.3758,-1.45,-1.4739,0.0,-1.5743,-1.5994,-1.6283,-1.6423,-1.6095,-1.6238,-1.6298,-1.5494,-1.5327,-1.4962,-1.3594,-1.3023,0.0,0.0,0.0,0.0,0.0,0.0,0.0,-1.6716,-1.7798,-1.8656,0.0,-1.9183,0.0,-1.9359,-1.9359,-1.9497,0.0,-1.8818,-1.8522,-1.9137,-1.9202,-1.9312,-1.9568,-1.9568,-1.9353,-1.8848,-1.8342,-1.824,-1.8376,-1.8164,-1.8207,-1.8416,-1.8416,-1.8369,-1.8233,0.0,-1.8108,-1.8008,-1.8008,-1.8008,-1.8008,-1.8008,-1.8008,-1.8008,-1.8008,-1.7861,-1.7637,0.0,0.0,0.0,0.0,0.0,0.0,0.0,0.0,0.0,0.0,0.0,0.0,0.0,0.0,0.0,0.0,0.0,0.0,0.0,0.0,0.0,0.0,0.0,0.0,0.0,0.0,0.0,0.0,0.0,0.0,0.0,0.0,0.0,0.0,0.0,0.0,0.0,0.0,0.0,0.0,0.0,0.0,0.0,0.0,0.0,0.0,0.0,0.0,0.0,0.0,-1.2215,-1.2918,-1.3984,-1.4689,-1.5178,-1.5668,-1.5806,-1.5906,-1.6384,-1.6522,-1.6522,-1.6522,-1.6522,-1.6233,-1.5128,-1.4802,-1.4186,-1.2529,0.0,0.0,-1.1362,0.0,-1.3087,-1.3116,0.0,-1.6635,-1.7315,-1.8253,-1.9133,-1.9736,-1.9798,-1.9798,-1.9798,-1.9798,-1.9836,-1.9911,-1.9911,-1.9911,-1.9911,-1.9987,-2.0263,-2.0806,-2.0832,-2.0717,-2.0538,-1.9842,-1.9667,-2.0036,-2.0042,-2.0239,-2.059,-2.059,-2.0204,-1.9497,-1.9497,-1.9044,-1.8337,-1.8337,-1.8337,-1.8337,-1.8202,-1.8134,-1.8134,-1.8008,-1.8008,-1.7959,0.0,0.0,0.0,0.0,0.0,0.0,0.0,0.0,0.0,0.0,0.0,0.0,0.0,0.0,0.0,0.0,0.0,0.0,0.0,0.0,0.0,0.0,0.0,0.0,0.0,0.0,0.0,0.0,0.0,0.0,0.0,0.0,0.0,0.0,0.0,0.0,0.0,0.0,0.0,0.0,0.0,0.0,0.0,0.0,0.0,0.0,0.0,0.0,0.0,0.0,-1.3609,-1.4601,-1.5203,-1.5781,-1.6258,-1.6346,-1.6371,-1.6396,-1.6497,-1.6522,-1.6522,-1.6522,-1.6522,-1.6233,-1.5128,-1.4174,0.0,0.0,0.0,-1.0169,-0.9642,-1.1173,0.0,-1.3097,0.0,0.0,0.0,0.0,-1.8706,0.0,0.0,0.0,0.0,0.0,0.0,0.0,0.0,-2.0514,-2.0514,-2.0941,-2.1242,-2.1343,-2.1343,-2.1337,-2.1313,-2.0912,-2.0734,-2.0828,-2.058,-2.0512,-2.059,-2.059,-2.0526,-2.0398,-2.0398,0.0,-2.0139,-2.0139,-2.0139,-2.0074,-1.9365,-1.9044,-1.8977,-1.8269,-1.8008,-1.7998,0.0,0.0,0.0,0.0,0.0,0.0,0.0,0.0,0.0,0.0,0.0,0.0,0.0,0.0,0.0,0.0,0.0,0.0,0.0,0.0,0.0,0.0,0.0,0.0,0.0,0.0,0.0,0.0,0.0,0.0,0.0,0.0,0.0,0.0,0.0,0.0,0.0,0.0,0.0,0.0,0.0,0.0,0.0,0.0,0.0,0.0,0.0,0.0,0.0,0.0,-1.2617,-1.4262,-1.568,-1.6308,-1.6522,-1.6522,-1.6522,-1.6522,-1.6522,-1.6522,-1.6522,-1.6522,-1.6308,-1.5731,-1.4337,0.0,0.0,0.0,0.0,-0.9077,-0.91,0.0,0.0,0.0,0.0,0.0,0.0,0.0,0.0,0.0,0.0,0.0,0.0,0.0,0.0,0.0,0.0,-2.1393,-2.1104,-2.1619,-2.192,-2.192,-2.2196,-2.2347,-2.2347,-2.2172,-2.2103,-2.2103,-2.1993,-2.1928,-2.1928,-2.1928,-2.1667,-2.1302,-2.1302,0.0,-2.059,-2.059,-2.059,-2.059,-2.0139,-2.0009,-1.9955,-1.9497,-1.9044,-1.8654,0.0,0.0,0.0,0.0,0.0,0.0,0.0,0.0,0.0,0.0,0.0,0.0,0.0,0.0,0.0,0.0,0.0,0.0,0.0,0.0,0.0,0.0,0.0,0.0,0.0,0.0,0.0,0.0,0.0,0.0,0.0,0.0,0.0,0.0,0.0,0.0,0.0,0.0,0.0,0.0,0.0,0.0,0.0,0.0,0.0,0.0,0.0,0.0,0.0,0.0,-1.1321,-1.3027,-1.522,-1.6099,-1.6346,-1.6346,-1.6421,-1.6522,-1.6522,-1.6522,-1.6522,-1.6522,-1.6107,-1.5266,-1.3574,-1.2278,0.0,0.0,0.0,-0.8286,-0.8836,0.0,0.0,0.0,0.0,0.0,0.0,0.0,0.0,0.0,0.0,0.0,0.0,0.0,0.0,0.0,0.0,0.0,-2.187,-2.2246,-2.2485,-2.2485,-2.2852,-2.3078,-2.3078,-2.3078,-2.3078,-2.3078,-2.3078,-2.3078,-2.3078,-2.3078,-2.2763,-2.2137,-2.2137,0.0,0.0,-2.1164,-2.1164,-2.1101,-2.0974,-2.0846,-2.0846,-2.0655,-2.0139,-1.9562,0.0,0.0,0.0,0.0,0.0,0.0,0.0,0.0,0.0,0.0,0.0,0.0,0.0,0.0,0.0,0.0,0.0,0.0,0.0,0.0,0.0,0.0,0.0,0.0,0.0,0.0,0.0,0.0,0.0,0.0,0.0,0.0,0.0,0.0,0.0,0.0,0.0,0.0,0.0,0.0,0.0,0.0,0.0,0.0,0.0,0.0,0.0,0.0,0.0,0.0,0.0,-1.1281,-1.3317,-1.4776,-1.5768,-1.5768,0.0,0.0,-1.6522,-1.6522,-1.6522,-1.6522,-1.6107,-1.5266,-1.3574,0.0,0.0,0.0,-0.7901,-0.7676,-0.8273,-0.9253,0.0,0.0,0.0,0.0,0.0,0.0,0.0,0.0,0.0,0.0,0.0,0.0,0.0,0.0,0.0,0.0,-2.2987,-2.3025,-2.3002,-2.3002,-2.3053,-2.3078,-2.3078,-2.3078,-2.3078,-2.3078,-2.3078,-2.3078,-2.3078,-2.3078,-2.3078,-2.3005,-2.3005,0.0,0.0,-2.2884,-2.2884,-2.2823,-2.2063,-2.1753,-2.169,-2.091,-2.0526,-2.0398,0.0,0.0,0.0,0.0,0.0,0.0,0.0,0.0,0.0,0.0,0.0,0.0,0.0,0.0,0.0,0.0,0.0,0.0,0.0,0.0,0.0,0.0,0.0,0.0,0.0,0.0,0.0,0.0,0.0,0.0,0.0,0.0,0.0,0.0,0.0,0.0,0.0,0.0,0.0,0.0,0.0,0.0,0.0,0.0,0.0,0.0,0.0,0.0,0.0,0.0,0.0,0.0,-1.0668,-1.2137,0.0,0.0,-1.5593,-1.6095,-1.6421,-1.6522,-1.6522,-1.6522,-1.5856,-1.4852,-1.3498,0.0,0.0,-0.8964,-0.8039,-0.7688,-0.86,-0.9115,-0.9956,0.0,-1.231,-1.3179,0.0,0.0,0.0,0.0,0.0,0.0,0.0,0.0,0.0,0.0,0.0,0.0,-2.3078,-2.3078,-2.3078,-2.3078,-2.3078,-2.3078,-2.3078,-2.3078,-2.3078,-2.3078,-2.3078,-2.3078,-2.3078,-2.3078,-2.3078,-2.3078,-2.3078,0.0,0.0,-2.3078,-2.3078,-2.3078,-2.2763,-2.2628,-2.2567,-2.2249,-2.1803,-2.1365,0.0,0.0,0.0,0.0,0.0,0.0,0.0,0.0,0.0,0.0,0.0,0.0,0.0,0.0,0.0,0.0,0.0,0.0,0.0,0.0,0.0,0.0,0.0,0.0,0.0,0.0,0.0,0.0,0.0,0.0,0.0,0.0,0.0,0.0,0.0,0.0,0.0,0.0,0.0,0.0,0.0,0.0,0.0,0.0,0.0,0.0,0.0,0.0,0.0,0.0,0.0,0.0,0.0,0.0,0.0,0.0,-1.4917,-1.5701,-1.612,-1.6511,-1.6752,-1.6752,-1.5911,-1.4826,0.0,0.0,-0.9943,-0.9251,-0.8336,-0.7964,-0.8924,-0.91,-0.9591,-1.1086,-1.1613,-1.2354,-1.3871,0.0,0.0,0.0,0.0,0.0,0.0,0.0,0.0,0.0,0.0,0.0,-2.3078,-2.3078,-2.3078,-2.3078,-2.3078,-2.3078,-2.3078,-2.3078,-2.3078,-2.3078,-2.3078,-2.3078,-2.3078,-2.3078,-2.3078,-2.3078,-2.3078,0.0,0.0,-2.3078,-2.3078,-2.3078,-2.3078,-2.3078,-2.3078,-2.3078,-2.2763,-2.2199,0.0,0.0,0.0,0.0,0.0,0.0,0.0,0.0,0.0,0.0,0.0,0.0,0.0,0.0,0.0,0.0,0.0,0.0,0.0,0.0,0.0,0.0,0.0,0.0,0.0,0.0,0.0,0.0,0.0,0.0,0.0,0.0,0.0,0.0,0.0,0.0,0.0,0.0,0.0,0.0,0.0,0.0,0.0,0.0,0.0,0.0,0.0,0.0,0.0,0.0,0.0,0.0,0.0,0.0,0.0,0.0,-1.4016,-1.544,-1.5636,-1.6484,-1.7312,-1.7312,-1.648,-1.5389,0.0,-1.2269,-1.0381,-0.9327,-0.8663,-0.8462,-0.9,-0.91,-0.9465,-1.0518,-1.1676,-1.2793,-1.3934,0.0,0.0,0.0,0.0,0.0,0.0,0.0,0.0,0.0,0.0,0.0,-2.3078,-2.3078,-2.3078,-2.3078,-2.3078,-2.3078,-2.3078,-2.3078,-2.3078,-2.3078,-2.3078,-2.3078,-2.3078,-2.3078,-2.3078,-2.3078,0.0,0.0,0.0,-2.3078,-2.3078,-2.3078,-2.3078,-2.3078,-2.3078,-2.3078,-2.3065,-2.2944,0.0,0.0,0.0,0.0,0.0,0.0,0.0,0.0,0.0,0.0,0.0,0.0,0.0,0.0,0.0,0.0,0.0,0.0,0.0,0.0,0.0,0.0,0.0,0.0,0.0,0.0,0.0,-0.9303,0.0,0.0,0.0,0.0,0.0,0.0,0.0,0.0,0.0,0.0,0.0,0.0,0.0,0.0,0.0,0.0,0.0,0.0,0.0,0.0,0.0,0.0,0.0,0.0,0.0,0.0,0.0,-1.0115,-1.1836,0.0,-1.4458,-1.5036,-1.5341,-1.5234,-1.4641,-1.3875,-1.2869,-1.1514,-1.0328,-0.9755,-0.9215,-0.9025,-0.9541,-0.9642,-1.0131,-1.1625,-1.2466,0.0,0.0,0.0,0.0,0.0,0.0,0.0,0.0,0.0,0.0,0.0,0.0,0.0,-2.3138,-2.3078,-2.3078,-2.3078,-2.3078,-2.3078,-2.3078,-2.3078,-2.3078,-2.3078,-2.3078,-2.3078,-2.3078,-2.3078,-2.3078,0.0,0.0,0.0,0.0,-2.3078,-2.3078,-2.3078,-2.3078,-2.3078,-2.3078,-2.3078,-2.3078,-2.3078,0.0,0.0,0.0,0.0,0.0,0.0,0.0,0.0,0.0,0.0,0.0,0.0,0.0,0.0,0.0,0.0,0.0,0.0,0.0,0.0,0.0,0.0,0.0,0.0,0.0,-0.9359,-0.9247,-0.9139,-0.9109,-0.9047,0.0,0.0,0.0,0.0,0.0,0.0,0.0,0.0,0.0,0.0,0.0,0.0,-0.7677,0.0,0.0,0.0,0.0,0.0,0.0,0.0,0.0,0.0,0.0,0.0,0.0,0.0,-1.0175,-1.1693,0.0,-1.4082,-1.4674,-1.452,-1.4062,-1.3453,-1.2677,-1.1669,-1.0775,-1.0363,-0.9913,-0.9723,-1.0183,-1.0072,-1.0414,-1.1949,-1.2565,0.0,0.0,0.0,0.0,0.0,0.0,0.0,0.0,0.0,0.0,0.0,0.0,0.0,-2.3603,-2.3531,-2.3424,-2.3138,-2.3078,-2.3078,-2.3078,-2.3078,-2.3078,-2.3078,-2.3078,-2.3078,-2.3078,-2.3078,-2.3078,0.0,0.0,0.0,0.0,-2.3078,-2.3078,-2.3078,-2.3078,-2.3078,-2.3078,-2.3078,-2.3078,-2.3078,0.0,0.0,0.0,0.0,0.0,0.0,0.0,0.0,0.0,0.0,0.0,0.0,0.0,0.0,0.0,0.0,0.0,0.0,0.0,0.0,0.0,0.0,0.0,0.0,0.0,-0.9149,-0.9149,-0.8913,-0.9084,-0.9165,-0.9185,-0.9105,0.0,0.0,0.0,0.0,0.0,0.0,0.0,0.0,0.0,-0.7771,0.0,0.0,0.0,0.0,0.0,0.0,0.0,0.0,0.0,0.0,0.0,0.0,0.0,0.0,0.0,0.0,0.0,-1.3373,-1.467,-1.4642,-1.4213,-1.3651,-1.3153,-1.2246,0.0,-1.0938,-1.0575,-1.0505,-1.0945,-1.049,-1.0509,-1.1932,0.0,0.0,0.0,0.0,0.0,0.0,0.0,0.0,0.0,0.0,0.0,0.0,0.0,0.0,-2.4408,-2.4408,-2.406,-2.3305,-2.3245,-2.3185,-2.3078,-2.3078,-2.3078,-2.3078,-2.3078,-2.3078,-2.3078,-2.3078,-2.3078,0.0,0.0,0.0,-2.3078,-2.3078,-2.3078,-2.3078,-2.3078,-2.3078,-2.3078,-2.3078,-2.3078,-2.3078,0.0,0.0,0.0,0.0,0.0,0.0,0.0,0.0,0.0,0.0,0.0,0.0,0.0,0.0,0.0,0.0,0.0,0.0,0.0,0.0,0.0,0.0,0.0,0.0,0.0,-0.9091,-0.9022,-0.9047,-0.9549,-0.9875,-1.0024,-1.042,-1.0289,-0.9788,0.0,0.0,0.0,0.0,0.0,0.0,-0.8122,-0.8104,0.0,0.0,0.0,0.0,-0.8102,-0.8009,0.0,0.0,0.0,0.0,0.0,0.0,0.0,0.0,-0.8526,-0.908,-0.9573,0.0,-1.1299,-1.1139,-1.0988,-1.0784,0.0,-1.0107,-0.9982,0.0,0.0,-1.05,-1.2052,-1.1851,-1.2156,0.0,0.0,0.0,0.0,0.0,0.0,0.0,0.0,0.0,0.0,0.0,0.0,0.0,0.0,-2.5906,-2.5175,-2.5119,-2.5063,-2.4894,-2.4838,-2.4266,-2.3138,-2.3078,-2.3078,-2.3078,-2.3078,-2.3078,-2.3078,-2.3078,-2.3078,0.0,0.0,-2.3078,-2.3078,-2.3078,-2.3078,-2.3078,-2.3078,-2.3078,-2.3078,-2.3078,-2.3078,-2.3078,0.0,0.0,0.0,0.0,0.0,0.0,0.0,0.0,0.0,0.0,0.0,0.0,0.0,0.0,0.0,0.0,0.0,0.0,0.0,0.0,0.0,0.0,0.0,0.0,0.0,-0.9161,-0.9047,-0.9011,-0.9468,-0.9926,-1.0397,-1.0314,-1.0273,-1.0261,-0.9653,0.0,0.0,0.0,0.0,0.0,-0.8293,0.0,0.0,0.0,0.0,0.0,-0.828,-0.8203,0.0,-0.7957,-0.7941,-0.7983,0.0,0.0,0.0,0.0,-0.8154,-0.8454,-0.8454,-0.9655,-1.0912,-1.0807,-1.0997,-1.1186,-1.099,0.0,0.0,0.0,0.0,0.0,-1.2528,0.0,0.0,0.0,0.0,0.0,0.0,0.0,0.0,0.0,0.0,0.0,0.0,0.0,0.0,0.0,0.0,-2.6654,-2.5946,-2.5906,-2.5728,-2.5398,-2.5398,-2.5007,-2.415,-2.3826,-2.3662,-2.3662,-2.3245,-2.3078,-2.3078,-2.3078,-2.3078,0.0,0.0,-2.3078,-2.3078,-2.3078,-2.3078,-2.3078,-2.3078,-2.3078,-2.3078,-2.3078,-2.3078,-2.3078,0.0,0.0,0.0,0.0,0.0,0.0,0.0,0.0,0.0,0.0,0.0,0.0,0.0,0.0,0.0,0.0,0.0,0.0,0.0,0.0,0.0,0.0,0.0,-0.9551,-0.9233,-0.9277,-0.9179,-0.8968,-0.9424,-1.0014,-1.0695,-1.0092,-1.0054,-1.0405,-0.9359,0.0,0.0,0.0,0.0,0.0,0.0,0.0,0.0,0.0,0.0,0.0,0.0,0.0,0.0,-0.8012,-0.7997,-0.8077,-0.7941,0.0,0.0,0.0,0.0,0.0,-0.8154,-1.0024,-1.185,-1.1461,-1.2021,-1.2636,-1.2531,0.0,0.0,0.0,0.0,0.0,0.0,0.0,0.0,0.0,0.0,0.0,0.0,0.0,0.0,0.0,0.0,0.0,0.0,0.0,0.0,0.0,0.0,-2.7306,-2.6721,-2.6669,-2.639,-2.5783,-2.5728,-2.5728,-2.5728,-2.4894,-2.4408,-2.4292,-2.359,-2.3185,-2.3078,-2.3078,-2.3078,-2.3078,0.0,0.0,-2.3078,-2.3078,-2.3078,-2.3078,-2.3078,-2.3078,-2.3078,-2.3078,-2.3078,-2.3078,0.0,0.0,0.0,0.0,0.0,0.0,0.0,0.0,0.0,0.0,0.0,0.0,0.0,0.0,0.0,0.0,0.0,0.0,0.0,0.0,0.0,0.0,-0.9846,-0.9599,-0.9375,-0.9323,-0.9284,-0.9228,-1.0592,-1.1401,-1.1685,-1.202,-1.1486,-1.0204,-0.931,-0.8891,0.0,0.0,0.0,0.0,0.0,0.0,0.0,0.0,0.0,0.0,0.0,0.0,0.0,-0.8012,-0.7997,-0.8077,-0.7941,0.0,0.0,0.0,0.0,0.0,-0.9276,-1.1092,-1.2126,-0.9893,-1.0657,-1.1805,-1.1251,0.0,0.0,0.0,0.0,0.0,0.0,0.0,0.0,0.0,0.0,0.0,0.0,0.0,0.0,0.0,0.0,0.0,0.0,0.0,0.0,0.0,0.0,-2.756,-2.7458,-2.7408,-2.7357,-2.724,-2.724,-2.724,-2.724,-2.5877,-2.4894,-2.4292,-2.4176,-2.3767,-2.3078,-2.3078,-2.3078,-2.3078,0.0,-2.3078,-2.3078,-2.3078,-2.3078,-2.3078,-2.3078,-2.3078,-2.3078,-2.3078,-2.3078,-2.3078,0.0,0.0,0.0,0.0,0.0,0.0,0.0,0.0,0.0,0.0,0.0,0.0,0.0,0.0,0.0,0.0,0.0,0.0,0.0,0.0,0.0,0.0,-1.0025,-0.9823,-0.962,-0.958,-0.9705,-0.9995,-1.0825,-1.1678,-1.2542,-1.2358,-1.1357,-0.9694,-0.9286,-0.9043,-0.8902,0.0,0.0,-0.8891,0.0,0.0,0.0,0.0,0.0,0.0,0.0,0.0,0.0,0.0,-0.8119,-0.8227,-0.8065,0.0,0.0,0.0,0.0,0.0,-0.8664,-1.0234,-1.1521,-1.0687,-1.2478,-1.4277,-1.3645,0.0,0.0,0.0,0.0,0.0,0.0,0.0,0.0,0.0,0.0,0.0,0.0,0.0,0.0,0.0,0.0,0.0,0.0,0.0,0.0,0.0,0.0,0.0,-2.7595,-2.7625,-2.7625,-2.7625,-2.7625,-2.7625,-2.7625,-2.6916,-2.6215,-2.5453,-2.4681,-2.4118,-2.3708,-2.3305,-2.3078,-2.3078,0.0,-2.3078,-2.3078,-2.3078,-2.3078,-2.3078,-2.3078,-2.3078,-2.3078,-2.3078,-2.3078,-2.3078,0.0,0.0,0.0,0.0,0.0,0.0,0.0,0.0,0.0,0.0,0.0,0.0,0.0,0.0,0.0,0.0,0.0,0.0,0.0,0.0,-1.019,-1.0197,-1.0147,-1.004,-0.9844,-1.0,-1.0283,-1.0685,-1.1022,-1.1662,-1.2568,-1.1908,-1.0807,-0.9349,-0.9321,-0.9159,-0.8957,-0.9047,-0.9033,-0.8891,0.0,0.0,0.0,0.0,0.0,0.0,0.0,0.0,0.0,0.0,0.0,0.0,0.0,0.0,0.0,-0.7956,-0.7956,-0.8017,-0.8304,-0.9753,-1.1349,-1.1973,-1.409,-1.6025,-1.6009,0.0,0.0,0.0,0.0,0.0,0.0,0.0,0.0,0.0,0.0,0.0,0.0,0.0,0.0,0.0,0.0,0.0,0.0,0.0,0.0,0.0,0.0,0.0,-2.7355,-2.7385,-2.746,-2.7625,-2.7625,-2.7625,-2.7625,-2.7625,-2.7255,-2.651,-2.5342,-2.4738,-2.4509,-2.3767,-2.3365,-2.3365,-2.3198,-2.3078,-2.3078,-2.3078,-2.3078,-2.3078,-2.3078,-2.3078,-2.3078,-2.3078,-2.3078,-2.3078,0.0,0.0,0.0,0.0,0.0,0.0,0.0,0.0,0.0,0.0,0.0,0.0,0.0,0.0,0.0,0.0,0.0,0.0,0.0,0.0,-1.0133,-1.0199,-1.0191,-1.0124,-0.9992,-1.0608,-1.0938,-1.0959,-1.1663,-1.1682,-1.104,-1.0876,-1.0313,-0.9483,-0.9358,-0.9208,0.0,0.0,-0.9033,-0.8891,-0.8891,0.0,0.0,0.0,0.0,0.0,0.0,0.0,0.0,0.0,0.0,0.0,0.0,0.0,-0.809,-0.809,-0.809,-0.8326,-0.9447,-1.1039,-1.2486,-1.2985,-1.357,0.0,-1.6234,-1.6204,0.0,-1.7326,0.0,0.0,0.0,0.0,0.0,0.0,0.0,0.0,0.0,0.0,0.0,0.0,0.0,0.0,0.0,0.0,0.0,0.0,0.0,0.0,-2.6632,-2.6662,-2.6946,-2.7595,-2.7625,-2.7625,-2.7625,-2.7625,-2.7255,-2.651,-2.6404,-2.596,-2.5287,-2.4567,-2.4234,-2.4176,-2.3424,-2.3078,-2.3078,-2.3078,-2.3078,-2.3078,-2.3078,-2.3078,-2.3078,-2.3078,-2.3078,-2.3078,0.0,0.0,0.0,0.0,0.0,0.0,0.0,0.0,0.0,0.0,0.0,0.0,0.0,0.0,0.0,0.0,0.0,0.0,0.0,0.0,-1.0175,-1.0199,-1.0195,-1.0161,-1.007,-1.023,-1.0557,-1.1056,-1.1754,-1.1691,-1.0912,-1.0849,-1.0349,-0.9508,-0.9534,0.0,0.0,0.0,-0.9088,-0.8891,-0.8891,-0.8891,0.0,0.0,0.0,0.0,0.0,0.0,0.0,0.0,-0.8645,-0.8693,-0.8604,-0.845,-0.828,-0.828,-0.828,-0.8393,-0.8844,-1.0763,-1.2863,-1.3885,-1.4787,0.0,0.0,-1.7949,-1.8986,0.0,0.0,0.0,0.0,0.0,0.0,0.0,0.0,0.0,0.0,0.0,0.0,0.0,0.0,0.0,0.0,0.0,0.0,0.0,0.0,0.0,-2.5944,-2.5974,-2.6288,-2.6946,-2.6961,-2.7156,-2.7625,-2.7625,-2.7458,-2.7203,-2.6721,-2.6336,-2.6068,-2.5342,-2.4951,-2.4951,-2.4667,-2.4266,-2.3826,-2.3826,-2.3543,-2.3078,-2.3078,-2.3078,-2.3078,-2.3078,-2.3078,-2.3078,0.0,0.0,0.0,0.0,0.0,0.0,0.0,0.0,0.0,0.0,0.0,0.0,0.0,0.0,0.0,0.0,0.0,0.0,0.0,-0.9617,-1.0174,-1.0199,-1.0195,-1.0166,-1.0098,-0.9996,-1.0313,-1.1098,-1.1531,-1.1306,-1.0508,-1.0508,-1.019,-0.9559,0.0,0.0,0.0,0.0,0.0,-0.8968,-0.8968,-0.8936,0.0,0.0,0.0,0.0,0.0,0.0,0.0,0.0,-0.876,-0.876,-0.876,-0.864,-0.8492,-0.8492,-0.8812,-0.9181,-0.9113,-1.114,-1.353,-1.4616,0.0,0.0,-1.7691,-1.8984,-2.0235,0.0,0.0,0.0,0.0,0.0,0.0,0.0,0.0,0.0,0.0,0.0,0.0,0.0,0.0,0.0,0.0,0.0,0.0,0.0,0.0,0.0,0.0,-2.53,-2.56,-2.6258,-2.6273,-2.6497,-2.6946,-2.7156,-2.726,-2.726,-2.6997,-2.6826,-2.6826,-2.6054,-2.5728,-2.5728,-2.5508,-2.5119,-2.4624,-2.4408,-2.3826,-2.3078,-2.3078,-2.3078,-2.3078,-2.3078,-2.3078,-2.3078,0.0,0.0,0.0,0.0,0.0,0.0,0.0,0.0,0.0,0.0,0.0,0.0,0.0,0.0,0.0,0.0,0.0,0.0,0.0,-0.961,-1.0136,-1.0201,-1.0195,-1.0166,-1.0098,-1.0024,-1.0369,-1.1098,-1.0957,-1.048,-0.9698,-0.9698,-0.9698,0.0,0.0,0.0,0.0,0.0,0.0,0.0,-0.9088,-0.9022,-0.8891,0.0,0.0,0.0,0.0,0.0,0.0,0.0,-0.8891,-0.8891,-0.8891,-0.8806,-0.8722,-0.8705,-0.9743,-1.0869,-1.0653,-1.2522,-1.4643,0.0,0.0,0.0,0.0,-1.9076,0.0,0.0,0.0,0.0,0.0,0.0,0.0,0.0,0.0,0.0,0.0,0.0,0.0,0.0,0.0,0.0,0.0,0.0,0.0,0.0,0.0,0.0,0.0,-2.4567,-2.4881,-2.5585,-2.56,-2.56,-2.5615,-2.6258,-2.6587,-2.6602,-2.726,-2.7625,-2.7575,-2.6826,-2.651,-2.6457,-2.5728,-2.5398,-2.5342,-2.4624,-2.3826,-2.3138,-2.3138,-2.3138,-2.3138,-2.3138,-2.3138,-2.3138,0.0,0.0,0.0,0.0,0.0,0.0,0.0,0.0,0.0,0.0,0.0,0.0,0.0,0.0,0.0,0.0,0.0,0.0,0.0,-0.9695,-1.0186,-1.0199,-1.0195,-1.0166,-1.0098,-1.0024,-1.0068,-1.0186,-1.0102,-0.9937,-0.9698,-0.9698,-0.9698,-0.9698,0.0,0.0,0.0,0.0,0.0,0.0,-0.9088,-0.9022,-0.8891,0.0,0.0,0.0,0.0,0.0,0.0,0.0,0.0,0.0,-0.8891,-0.9595,-1.0168,-0.9155,-1.0299,-1.1748,-1.1118,-1.3446,0.0,0.0,0.0,0.0,0.0,0.0,0.0,0.0,0.0,0.0,0.0,0.0,0.0,0.0,0.0,0.0,0.0,0.0,0.0,0.0,0.0,0.0,0.0,0.0,0.0,0.0,0.0,0.0,0.0,-2.3909,-2.4208,-2.4896,-2.4881,-2.5136,-2.5615,-2.6258,-2.6587,-2.6602,-2.726,-2.7625,-2.7575,-2.7357,-2.7255,-2.7255,-2.7034,-2.6654,-2.6122,-2.5398,-2.4951,-2.4724,-2.4724,-2.4724,-2.4667,-2.4163,-2.4279,-2.4553,0.0,0.0,0.0,0.0,0.0,0.0,0.0,0.0,0.0,0.0,0.0,-0.4338,0.0,0.0,0.0,0.0,0.0,0.0,0.0,0.0,-1.0206,-1.0194,-1.0201,-1.0166,-1.0098,-1.0024,-0.9941,-0.9844,-0.9782,-0.9717,-0.9698,-0.9698,-0.9698,-0.9698,0.0,-0.9649,0.0,0.0,0.0,0.0,-0.9228,-0.9139,-0.899,0.0,0.0,0.0,0.0,0.0,0.0,0.0,0.0,0.0,-0.8913,0.0,-1.0178,-0.9857,-1.1178,-1.2821,-1.3227,0.0,0.0,0.0,0.0,0.0,0.0,0.0,0.0,0.0,0.0,0.0,0.0,0.0,0.0,0.0,0.0,0.0,0.0,0.0,0.0,0.0,0.0,0.0,0.0,0.0,0.0,0.0,0.0,0.0,0.0,-2.3595,-2.3789,-2.4208,-2.4223,-2.4418,-2.4807,-2.548,-2.5809,-2.5809,-2.6482,-2.6931,-2.7186,-2.7505,-2.7625,-2.7625,-2.7625,-2.7203,-2.6457,-2.6014,-2.5673,-2.5398,-2.5398,-2.5398,-2.5342,-2.4908,-2.5007,-2.5287,0.0,0.0,-0.3862,-0.4062,0.0,0.0,0.0,0.0,0.0,0.0,-0.4511,-0.4504,0.0,0.0,0.0,-0.6043,0.0,0.0,0.0,0.0,-1.0202,-1.0209,-1.0185,-1.0158,-1.0098,-1.0048,-0.9967,-0.9904,-0.9844,-0.9775,-0.9698,0.0,-0.9706,-0.9698,0.0,-0.9698,0.0,0.0,0.0,-0.9331,-0.9447,-0.9349,-0.9129,-0.9247,0.0,0.0,0.0,0.0,0.0,0.0,0.0,0.0,-0.8936,-0.8993,-0.9332,-1.0551,-1.2143,-1.3938,0.0,0.0,0.0,0.0,0.0,0.0,0.0,0.0,0.0,0.0,0.0,0.0,0.0,0.0,0.0,0.0,0.0,0.0,0.0,0.0,0.0,0.0,0.0,0.0,0.0,0.0,0.0,0.0,0.0,0.0,0.0,-2.3638,-2.3595,-2.3595,-2.3595,-2.3595,-2.3595,-2.4283,-2.4582,-2.4597,-2.53,-2.5929,-2.6527,-2.7186,-2.7565,-2.7625,-2.7625,-2.7203,-2.6616,-2.6616,-2.6229,-2.5618,-2.5618,-2.5618,-2.5618,-2.5508,-2.5563,-2.5563,0.0,0.0,-0.3862,-0.4062,0.0,0.0,0.0,0.0,-0.4499,-0.4499,-0.4553,-0.4585,-0.4577,-0.4692,0.0,-0.6892,-0.7309,0.0,0.0,0.0,-1.0202,-1.0209,-1.0147,-1.0117,-1.0094,-1.0086,-1.0052,-0.9972,-0.991,-0.9818,0.0,0.0,0.0,-0.9698,0.0,-0.9698,0.0,0.0,-0.9609,-0.9447,-0.9491,-0.9403,-0.9247,-0.9293,-0.9303,0.0,0.0,0.0,0.0,0.0,0.0,0.0,-0.8902,-0.9687,-1.0466,-0.962,-1.1688,-1.4377,0.0,0.0,0.0,0.0,0.0,0.0,0.0,0.0,0.0,0.0,0.0,0.0,0.0,0.0,0.0,0.0,0.0,0.0,0.0,0.0,0.0,0.0,0.0,0.0,0.0,0.0,0.0,0.0,0.0,0.0,-2.4225,-2.3837,-2.3595,-2.3595,-2.3595,-2.3595,-2.3595,-2.4283,-2.4582,-2.4597,-2.53,-2.5689,-2.5839,-2.6497,-2.7081,-2.7625,-2.7625,-2.7524,-2.7357,-2.7357,-2.724,-2.7137,-2.7137,-2.7137,-2.7086,-2.6496,-2.6602,-2.6967,0.0,0.0,0.0,0.0,0.0,0.0,0.0,0.0,-0.4541,-0.4541,-0.4601,-0.4657,-0.4701,-0.479,0.0,0.0,-0.7216,-0.8066,0.0,0.0,0.0,-1.0197,-1.0141,-1.0094,-1.0094,-1.0094,-1.007,-0.9997,-1.0006,0.0,0.0,0.0,0.0,-1.0376,0.0,-1.0376,0.0,0.0,-0.9625,-0.9508,-0.9559,-0.9517,-0.9403,-0.9474,-0.95,-0.9491,-0.9412,0.0,0.0,0.0,0.0,0.0,0.0,0.0,-1.0113,-0.9988,-1.1603,-1.3752,0.0,0.0,0.0,0.0,0.0,0.0,0.0,0.0,0.0,0.0,0.0,0.0,0.0,0.0,0.0,0.0,0.0,0.0,0.0,0.0,0.0,0.0,0.0,0.0,0.0,0.0,0.0,0.0,0.0,-2.4934,-2.443,-2.4142,-2.3879,-2.3595,-2.3595,-2.3595,-2.3595,-2.3954,-2.4133,-2.4148,-2.4477,-2.4822,-2.5166,-2.6153,-2.6782,-2.7126,-2.749,-2.7625,-2.7625,-2.7625,-2.7625,-2.7625,-2.7625,-2.7625,-2.756,-2.7152,-2.7255,-2.7509,0.0,0.0,0.0,0.0,0.0,0.0,0.0,0.0,0.0,-0.4601,-0.4674,-0.4753,-0.4813,-0.4884,-0.5254,0.0,0.0,0.0,-0.8739,0.0,0.0,0.0,-1.0147,-1.0117,-1.0129,-1.0129,-1.0086,-1.0011,0.0,0.0,0.0,0.0,0.0,-1.1105,0.0,0.0,0.0,-1.0043,-0.9649,-0.9542,-0.9649,-0.9633,-0.9542,-0.9649,-0.9698,-0.9691,-0.9567,-0.9593,-0.9633,-0.9403,0.0,0.0,0.0,0.0,-0.9327,-1.0429,-1.1395,-1.2668,0.0,0.0,0.0,0.0,0.0,0.0,0.0,0.0,0.0,0.0,0.0,0.0,0.0,0.0,0.0,0.0,0.0,0.0,0.0,0.0,0.0,0.0,0.0,0.0,0.0,0.0,0.0,0.0,0.0,-2.5486,-2.4712,-2.443,-2.4116,-2.3752,-2.3638,-2.3595,-2.3595,-2.3595,-2.3595,-2.3595,-2.3595,-2.3894,-2.4448,-2.5704,-2.6378,-2.6617,-2.7171,-2.7505,-2.7625,-2.7625,-2.7625,-2.7625,-2.7625,-2.7625,-2.7625,-2.7625,-2.7625,-2.7625,0.0,0.0,0.0,0.0,0.0,0.0,0.0,0.0,0.0,0.0,-0.4759,-0.4877,-0.4884,-0.4949,-0.532,-0.6125,-0.6991,-0.7873,0.0,0.0,0.0,0.0,-1.0182,-1.019,-1.0183,-1.0183,-1.0161,-1.0086,0.0,0.0,0.0,0.0,0.0,-1.1105,0.0,0.0,0.0,0.0,-0.9747,-0.9683,-0.9698,-0.9691,-0.9683,-0.9698,-0.9698,-0.9698,-0.9683,-0.9609,-0.9525,-0.9491,-0.9403,0.0,0.0,0.0,0.0,0.0,-1.0279,0.0,0.0,0.0,0.0,0.0,0.0,0.0,0.0,0.0,0.0,0.0,0.0,0.0,0.0,0.0,0.0,0.0,0.0,0.0,0.0,0.0,0.0,0.0,0.0,0.0,0.0,0.0,0.0,0.0,-2.5783,-2.5449,-2.5779,-2.4471,-2.3879,-2.4266,-2.3837,-2.3595,-2.3595,-2.3595,-2.3595,-2.3595,-2.3595,-2.3655,-2.3759,-2.4537,-2.551,-2.6587,-2.6677,-2.7036,-2.7625,-2.7625,-2.7625,-2.7625,-2.7625,-2.7625,-2.7625,-2.7625,-2.7625,-2.7625,0.0,0.0,0.0,0.0,0.0,0.0,0.0,0.0,0.0,0.0,0.0,-0.5862,-0.6318,-0.5977,-0.5891,-0.628,-0.707,0.0,0.0,0.0,0.0,0.0,-1.0209,-1.0209,-1.0198,-1.02,-1.0183,0.0,0.0,0.0,0.0,-1.2717,-1.3232,0.0,0.0,0.0,0.0,0.0,-0.9761,-0.9698,-0.9698,-1.0249,-1.0947,-1.0047,-1.0268,-1.0929,-1.001,-0.9657,-0.9617,-0.9617,-0.9567,-0.9517,-0.943,0.0,0.0,0.0,0.0,0.0,0.0,0.0,0.0,0.0,0.0,0.0,0.0,0.0,0.0,0.0,0.0,0.0,0.0,0.0,0.0,0.0,0.0,0.0,0.0,0.0,0.0,0.0,0.0,0.0,0.0,0.0,0.0,0.0,-2.628,-2.5908,-2.5577,-2.4855,-2.4307,-2.3948,-2.3709,-2.3595,-2.3595,-2.3595,-2.3595,-2.3595,-2.3595,-2.3595,-2.361,-2.3909,-2.4582,-2.551,-2.5884,-2.6213,-2.6497,-2.6871,-2.7021,-2.7066,-2.7475,-2.7625,-2.7625,-2.7625,-2.7625,-2.7625,0.0,0.0,0.0,0.0,0.0,0.0,0.0,0.0,0.0,0.0,0.0,-0.6823,-0.7432,0.0,0.0,0.0,-0.745,0.0,0.0,0.0,0.0,0.0,0.0,-1.023,-1.0205,-1.02,0.0,0.0,0.0,0.0,-1.3027,-1.3613,-1.5037,0.0,-1.5248,0.0,0.0,0.0,0.0,-1.0304,-1.0304,-1.1039,-1.204,-1.1443,-1.1838,-1.2535,-1.1113,0.0,0.0,0.0,0.0,0.0,0.0,0.0,0.0,0.0,0.0,0.0,0.0,0.0,0.0,0.0,0.0,0.0,0.0,0.0,0.0,0.0,0.0,0.0,0.0,0.0,0.0,0.0,0.0,0.0,0.0,0.0,0.0,0.0,0.0,0.0,0.0,0.0,0.0,0.0,-2.659,-2.6245,-2.5635,-2.5335,-2.4816,-2.4032,-2.3879,-2.3767,-2.3595,-2.3595,-2.3595,-2.3595,-2.3595,-2.3595,-2.3595,-2.3595,-2.3879,-2.4403,-2.5076,-2.545,-2.5644,-2.6138,-2.6437,-2.6632,-2.7126,-2.7475,-2.7625,-2.7625,-2.7625,-2.7625,0.0,0.0,0.0,0.0,0.0,0.0,0.0,0.0,0.0,0.0,0.0,-0.7451,-0.7489,-0.7523,-0.7543,-0.7543,-0.8323,0.0,0.0,0.0,0.0,0.0,0.0,0.0,0.0,-1.0206,0.0,0.0,0.0,0.0,-1.3843,-1.3876,-1.567,-1.8799,-1.7119,-1.4835,-1.2277,0.0,0.0,-1.1985,-1.1985,-1.2021,-1.2333,-1.4554,-1.4976,-1.4261,-1.3427,0.0,0.0,0.0,0.0,0.0,0.0,0.0,0.0,0.0,0.0,0.0,0.0,0.0,0.0,0.0,0.0,0.0,0.0,0.0,0.0,0.0,0.0,0.0,0.0,0.0,0.0,0.0,0.0,0.0,0.0,0.0,0.0,0.0,0.0,0.0,0.0,0.0,0.0,0.0,-2.6297,-2.6227,-2.6624,-2.5709,-2.5182,-2.5144,-2.4617,-2.4116,-2.3595,-2.3595,-2.3595,-2.3595,-2.3595,-2.3595,-2.3595,-2.3595,-2.3625,-2.3684,-2.4373,-2.5031,-2.5615,-2.5644,-2.6033,-2.6587,-2.6632,-2.7021,-2.7625,-2.7625,-2.7625,-2.7625,0.0,0.0,0.0,0.0,0.0,0.0,0.0,0.0,0.0,0.0,0.0,0.0,0.0,-0.875,-0.8448,-0.8494,-0.8781,0.0,0.0,0.0,0.0,0.0,0.0,0.0,0.0,0.0,0.0,0.0,0.0,-1.0844,-1.231,-1.2868,-1.3777,-1.4951,-1.4868,-1.4806,-1.4631,-1.2489,0.0,-1.215,-1.2655,-1.3802,-1.5166,-1.4995,-1.6022,-1.7344,0.0,0.0,0.0,0.0,0.0,0.0,0.0,-1.007,-0.9625,-0.9625,0.0,0.0,0.0,0.0,0.0,0.0,0.0,0.0,0.0,0.0,0.0,0.0,0.0,0.0,0.0,0.0,0.0,0.0,0.0,0.0,0.0,0.0,0.0,0.0,0.0,0.0,0.0,0.0,0.0,0.0,0.0,-2.6401,-2.6262,-2.5924,-2.5577,-2.5221,-2.5012,-2.4672,-2.4116,-2.3752,-2.3595,-2.3595,-2.3595,-2.3595,-2.3595,-2.3595,-2.3595,-2.361,-2.3864,-2.4103,-2.4358,-2.4792,-2.536,-2.6004,-2.6422,-2.6991,-2.7625,-2.7625,-2.7625,-2.7625,0.0,0.0,0.0,-0.832,0.0,-0.7978,-0.7978,-0.7974,-0.818,-0.8758,0.0,0.0,0.0,0.0,-0.9369,-0.9429,-0.9433,-0.9687,-1.0254,0.0,0.0,0.0,0.0,0.0,0.0,0.0,0.0,0.0,0.0,0.0,0.0,-1.1988,-1.2565,-1.3099,-1.3074,-1.408,0.0,0.0,0.0,-1.3038,0.0,0.0,-1.6523,0.0,-1.8096,0.0,0.0,0.0,0.0,0.0,0.0,0.0,0.0,-1.0592,-0.9698,-0.9698,-1.0278,0.0,0.0,0.0,0.0,0.0,0.0,0.0,0.0,0.0,0.0,0.0,0.0,0.0,0.0,0.0,0.0,0.0,0.0,0.0,0.0,0.0,0.0,0.0,0.0,0.0,0.0,0.0,0.0,0.0,0.0,0.0,-2.5529,-2.5495,-2.537,-2.5077,-2.5169,-2.5028,-2.4672,-2.4307,-2.4032,-2.3879,-2.3879,-2.3752,-2.3595,-2.3595,-2.3595,-2.3595,-2.3595,-2.3595,-2.3625,-2.4088,-2.4672,-2.533,-2.5749,-2.6333,-2.6946,-2.7156,-2.7245,-2.7275,-0.9698,-0.9805,-0.9893,-0.9893,-0.9358,-0.8937,-0.8937,-0.8937,-0.8937,-0.8937,0.0,0.0,0.0,0.0,0.0,-1.0293,-1.0293,-1.0293,-1.0293,-1.0293,0.0,0.0,0.0,0.0,0.0,0.0,0.0,0.0,0.0,0.0,0.0,0.0,-1.2233,-1.3767,-1.2113,-1.2714,-1.4931,0.0,-1.4756,-1.4763,0.0,-1.5862,-1.6274,0.0,0.0,0.0,-2.0592,-2.006,0.0,0.0,0.0,0.0,0.0,-1.1165,-0.9769,-0.9743,-1.0323,0.0,0.0,0.0,0.0,0.0,0.0,0.0,0.0,0.0,0.0,0.0,0.0,0.0,0.0,0.0,0.0,0.0,0.0,0.0,0.0,0.0,0.0,0.0,0.0,0.0,0.0,0.0,0.0,0.0,-2.4898,-2.4506,-2.4506,-2.4506,-2.4607,-2.4824,-2.5045,-2.5205,-2.5221,-2.5221,-2.495,-2.443,-2.443,-2.4158,-2.3638,-2.3638,-2.3638,-2.3638,-2.3638,-2.3638,-2.3638,-2.3595,-2.4014,-2.4582,-2.4582,-2.5031,-2.5689,-2.6318,-2.6572,-2.6677,-0.9683,-0.9805,-0.9893,-0.9893,-0.982,-0.9767,-0.9767,-0.9767,-0.9767,0.0,0.0,0.0,-1.0202,-1.0243,-1.0273,-1.0293,-1.0293,-1.0293,-1.0293,-1.0293,-1.0293,-1.0293,-1.0293,-1.0293,0.0,0.0,0.0,0.0,0.0,0.0,-1.0538,-1.0479,0.0,0.0,-1.1511,-1.2022,-1.3286,-1.2547,0.0,0.0,-1.4931,-1.6743,0.0,0.0,0.0,0.0,0.0,-2.1975,-2.1183,0.0,-1.8801,-1.6262,0.0,0.0,-1.153,-1.0889,-1.1682,-1.2465,-1.0964,0.0,0.0,0.0,0.0,0.0,0.0,0.0,0.0,0.0,0.0,0.0,0.0,0.0,0.0,0.0,0.0,0.0,0.0,0.0,0.0,0.0,0.0,0.0,0.0,0.0,0.0,0.0,-2.4625,-2.4506,-2.4506,-2.4506,-2.4751,-2.5363,-2.5089,-2.5187,-2.5762,-2.5373,-2.5144,-2.4973,-2.4973,-2.4894,-2.4752,-2.4752,-2.4752,-2.4752,-2.4752,-2.4552,-2.4158,-2.3752,-2.4014,-2.4582,-2.4582,-2.5031,-2.563,-2.5809,-2.6183,-2.6617,-0.9757,-0.9863,-0.9944,-0.9944,-1.0034,-1.0094,-1.0094,-1.0094,-1.0094,0.0,0.0,0.0,-1.0208,-1.0556,-1.0662,-1.0332,-1.0293,-1.0293,-1.0293,-1.0293,-1.0293,-1.0293,-1.0293,-1.0293,-1.0293,-0.99,-0.9857,-1.0207,-0.9837,-0.9843,-1.0211,-1.0121,-1.0363,-1.0844,-1.0775,-1.1067,-1.1579,-1.0986,0.0,0.0,-1.5829,0.0,0.0,-2.0746,-2.2229,0.0,0.0,0.0,-2.3145,-2.2981,-2.0741,0.0,0.0,-1.4197,-1.3247,-1.1978,-1.2728,0.0,-1.229,0.0,0.0,0.0,0.0,0.0,0.0,0.0,0.0,0.0,0.0,0.0,0.0,0.0,0.0,0.0,0.0,0.0,0.0,0.0,0.0,0.0,0.0,0.0,0.0,-2.4036,-2.4036,-2.4036,-2.3748,-2.3579,-2.3579,-2.3866,-2.4239,-2.4678,-2.4677,-2.4896,-2.538,-2.5386,-2.5268,-2.5033,-2.5378,-2.5411,-2.5221,-2.5221,-2.5221,-2.5221,-2.5221,-2.5012,-2.4697,-2.4389,-2.4234,-2.4193,-2.4193,-2.4433,-2.4807,-2.5091,-2.5435,-2.5809,0.0,-0.9955,-0.9997,-0.9997,-1.0061,-1.0133,-1.0229,-1.0152,-1.0171,0.0,-1.0431,-1.0484,-1.0473,-1.1094,-1.1254,-1.0623,-1.039,-1.0332,-1.0429,-1.0352,-1.0293,-1.0293,-1.0293,-1.0293,-1.0293,-0.955,-0.9489,-1.0209,-0.9419,-0.9448,-1.0197,-1.015,-1.0102,-1.0094,-1.0094,-1.0094,-1.0113,-1.0306,0.0,-1.4213,-1.718,-1.8583,0.0,0.0,-2.3477,0.0,-2.4549,-2.4814,-2.4728,-2.4048,-2.1827,0.0,0.0,-1.6208,-1.5236,-1.3392,-1.3989,0.0,-1.4088,-1.4426,0.0,0.0,0.0,0.0,-1.727,-1.7766,0.0,0.0,0.0,0.0,0.0,0.0,0.0,0.0,0.0,0.0,0.0,0.0,0.0,0.0,0.0,0.0,-2.3274,-2.3274,-2.3274,-2.3274,-2.2682,-2.231,-2.231,-2.2919,-2.3308,-2.3393,-2.4036,-2.4421,-2.4506,-2.5152,-2.5262,-2.4776,-2.557,-2.5721,-2.526,-2.5341,-2.5373,-2.5373,-2.5373,-2.5335,-2.5297,-2.5297,-2.4712,-2.3752,-2.3724,-2.3681,-2.3756,-2.4283,-2.4522,-2.4672,-0.9818,-0.9922,-0.9997,-0.9997,-1.0061,-1.0344,-1.1041,-1.056,-1.0598,-1.2007,-1.22,-1.2206,-1.2209,-1.1789,-1.1694,-1.2182,-1.0999,-1.052,-1.1216,-1.0662,-1.0293,-1.0293,-1.0293,-1.0293,-1.0293,-1.0137,-1.0117,-1.0273,-1.0051,-1.0036,-1.0207,-1.0194,-1.0157,-1.0094,-1.0094,-1.0094,-1.019,-1.1603,0.0,-1.4973,-1.5513,0.0,-2.0826,-2.2073,-2.3364,-2.4573,-2.4854,-2.4962,-2.4872,0.0,-2.315,-2.1737,0.0,0.0,-1.8877,-1.6895,0.0,-1.8561,-1.7457,-1.7748,-1.8133,-1.7147,0.0,0.0,0.0,-1.571,0.0,0.0,0.0,0.0,0.0,0.0,0.0,0.0,0.0,0.0,0.0,0.0,0.0,0.0,0.0,0.0,-2.2513,-2.2513,-2.2513,-2.2513,-2.2395,-2.231,-2.231,-2.2446,-2.2801,-2.3376,-2.3528,-2.3883,-2.4506,-2.4659,-2.4664,-2.457,-2.531,-2.5597,-2.5548,-2.6133,-2.6385,-2.6385,-2.6385,-2.6175,-2.5852,-2.5852,-2.5449,-2.4816,-2.443,-2.4225,-2.4214,-2.3917,-2.4148,-2.4597,-0.9899,-0.9972,-1.0191,-1.0617,-1.0735,-1.1041,-1.193,-1.168,-1.1848,-1.3137,-1.3677,-1.3633,-1.2791,-1.2736,-1.2572,-1.2146,-1.133,-1.0857,-1.0844,-1.0464,-1.0273,-1.0293,-1.0293,-1.0293,-1.0293,-1.0293,-1.0293,-1.0293,-1.0231,-1.0198,-1.0195,-1.0202,-1.0413,-1.0789,-1.0334,-1.0601,-1.1435,0.0,-1.3272,-1.5343,-1.6975,0.0,-2.2125,-2.3346,-2.4324,-2.5068,-2.513,-2.5152,-2.5048,-2.4332,-2.3802,0.0,0.0,-2.1196,-2.1154,0.0,-1.9443,-2.0289,-1.9505,-1.9601,-1.9711,-1.8889,0.0,0.0,0.0,0.0,0.0,0.0,0.0,0.0,0.0,0.0,0.0,0.0,0.0,0.0,0.0,0.0,0.0,0.0,0.0,0.0,-2.25,-2.2388,-2.231,-2.231,-2.231,-2.231,-2.231,-2.231,-2.2479,-2.2835,-2.2852,-2.3038,-2.3393,-2.3765,-2.3934,-2.3951,-2.5067,-2.5609,-2.5642,-2.6353,-2.6691,-2.6691,-2.6691,-2.659,-2.6367,-2.6367,-2.6175,-2.5855,-2.5089,-2.4632,-2.4389,-2.4116,-2.4064,-2.4118,-0.9982,-1.0042,-1.0325,-1.1021,-1.1291,-1.1661,-1.2411,-1.2526,-1.3003,-1.4305,-1.5193,-1.5245,-1.4069,-1.4415,-1.4341,-1.3328,-1.2477,-1.1768,-1.1239,-1.0736,-1.0486,-1.0547,-1.0391,-1.0371,-1.0547,-1.0391,-1.0293,-1.0293,-1.0251,-1.0203,-1.0203,-1.0203,-1.066,-1.1477,-1.0759,0.0,0.0,0.0,0.0,-1.642,0.0,-2.1119,-2.2524,-2.437,-2.5082,-2.5101,-2.5245,-2.5303,-2.5187,-2.4543,0.0,-2.4072,-2.2485,-2.2581,0.0,0.0,0.0,0.0,0.0,0.0,0.0,0.0,0.0,-1.9675,0.0,0.0,0.0,-1.8775,0.0,0.0,0.0,0.0,0.0,0.0,0.0,0.0,0.0,0.0,0.0,0.0,0.0,0.0,0.0,-2.2184,-2.2044,-2.2293,-2.204,-2.2006,-2.2293,-2.231,-2.231,-2.231,-2.231,-2.231,-2.231,-2.2885,-2.319,-2.3207,-2.4678,-2.5389,-2.5423,-2.6302,-2.6691,-2.6691,-2.6691,-2.6691,-2.6691,-2.6691,-2.6691,-2.6607,-2.5709,-2.5105,-2.4657,-2.4471,-2.4116,-2.3767,-0.9992,-1.0042,-1.0133,-1.0229,-1.0887,-1.1502,-1.1848,-1.1906,-1.3017,-1.6151,-1.7112,-1.7728,0.0,0.0,0.0,0.0,0.0,0.0,-1.4771,0.0,-1.1445,-1.1445,-1.0703,-1.0664,-1.1445,-1.0703,-1.0293,-1.0293,-1.0293,-1.0252,-1.0204,-1.0204,-1.0665,-1.1484,-1.1321,0.0,0.0,0.0,-1.5978,0.0,-2.0139,-2.0408,0.0,-2.3293,-2.4245,-2.4341,-2.5043,-2.5303,-2.5284,0.0,-2.5149,-2.5005,0.0,-2.4351,-2.4803,0.0,0.0,0.0,0.0,0.0,0.0,0.0,-2.2116,0.0,0.0,0.0,-1.8775,-1.744,0.0,0.0,0.0,0.0,0.0,0.0,0.0,0.0,0.0,0.0,0.0,0.0,0.0,0.0,0.0,-2.1237,-2.1154,-2.2209,-2.1015,-2.0846,-2.2243,-2.231,-2.231,-2.231,-2.231,-2.231,-2.231,-2.2395,-2.2429,-2.2446,-2.3917,-2.4611,-2.4661,-2.6065,-2.6691,-2.6691,-2.6691,-2.6691,-2.6691,-2.6691,-2.6691,-2.6657,-2.6104,-2.5888,-2.5689,-2.4752,-2.4348,-2.4225,-0.9997,-1.0042,-1.0267,-1.0771,-1.1291,-1.1887,-1.2671,-1.3344,-1.4286,-1.5728,-1.7857,0.0,0.0,0.0,0.0,0.0,0.0,-1.7771,0.0,0.0,-1.3324,-1.2402,-1.1523,-1.123,-1.1582,-1.0742,-1.0293,-1.0293,-1.0293,-1.0273,-1.0207,-1.0231,-1.0971,-1.225,-1.2218,0.0,-1.6169,0.0,0.0,0.0,0.0,0.0,0.0,-2.3658,-2.4793,-2.4832,-2.5168,-2.5303,-2.5226,0.0,-2.4909,0.0,0.0,0.0,0.0,0.0,0.0,0.0,0.0,0.0,0.0,0.0,0.0,0.0,-1.9945,0.0,-1.9234,0.0,0.0,0.0,0.0,0.0,0.0,0.0,0.0,0.0,0.0,0.0,0.0,0.0,0.0,0.0,0.0,0.0,0.0,0.0,-2.0906,-2.067,-2.1772,-2.2122,-2.231,-2.231,-2.231,-2.231,-2.231,-2.231,-2.231,-2.2327,-2.3359,-2.3849,-2.39,-2.5389,-2.6065,-2.6082,-2.6505,-2.6691,-2.6691,-2.6691,-2.6691,-2.6691,-2.647,-2.6227,-2.5941,-2.5486,-2.5128,-2.4831,-1.035,0.0,0.0,0.0,-1.1464,-1.2286,-1.3747,-1.467,-1.5862,-1.7727,0.0,0.0,-2.0385,-2.1298,0.0,0.0,-2.227,-2.1274,0.0,0.0,-1.5482,-1.4286,-1.3202,0.0,0.0,-1.1562,-1.0898,-1.0664,-1.043,-1.0273,-1.023,-1.0273,-1.1074,-1.2496,0.0,-1.4896,-1.78,0.0,0.0,-2.046,-2.0828,-2.1254,-2.19,-2.4139,-2.512,-2.5303,-2.5303,-2.5303,-2.5207,-2.462,-2.4812,0.0,-2.4601,0.0,0.0,0.0,0.0,0.0,-2.491,0.0,0.0,0.0,0.0,0.0,0.0,0.0,0.0,0.0,0.0,0.0,0.0,0.0,0.0,-1.7293,0.0,0.0,0.0,0.0,0.0,0.0,0.0,0.0,0.0,0.0,0.0,0.0,0.0,-2.0085,-2.1443,-2.1875,-2.2156,-2.231,-2.231,-2.231,-2.231,-2.231,-2.231,-2.231,-2.3054,-2.3393,-2.3444,-2.4932,-2.5609,-2.5642,-2.6387,-2.6691,-2.6691,-2.6691,-2.6691,-2.6691,-2.6691,-2.647,-2.6191,-2.6049,-2.5762,-2.5411,-1.1194,-1.0675,0.0,0.0,0.0,-1.2555,-1.4805,-1.517,-1.7554,0.0,0.0,0.0,0.0,0.0,0.0,0.0,0.0,-2.4077,-2.5118,0.0,-1.7761,-1.7653,-1.6117,-1.5271,0.0,0.0,-1.2402,-1.1562,-1.0703,-1.0293,-1.0293,-1.0293,-1.0781,-1.1719,-1.3331,-1.5488,-1.7942,-1.8697,-2.0958,-2.3953,-2.3075,-2.3697,-2.5072,0.0,-2.462,-2.5303,-2.5303,0.0,0.0,-2.5264,-2.5284,0.0,0.0,0.0,0.0,0.0,0.0,0.0,0.0,0.0,0.0,-2.2499,0.0,0.0,0.0,0.0,-2.0466,0.0,0.0,0.0,0.0,0.0,-1.9861,-1.8317,-1.806,0.0,0.0,0.0,0.0,0.0,0.0,0.0,0.0,0.0,0.0,0.0,-1.8334,0.0,-2.1357,-2.1522,-2.1773,-2.2276,-2.231,-2.231,-2.231,-2.231,-2.231,-2.231,-2.3054,-2.3393,-2.3444,-2.4932,-2.5609,-2.5642,-2.6387,-2.6691,-2.6691,-2.6691,-2.6691,-2.6691,-2.6691,-2.6691,-2.6624,-2.6156,-2.5997,-2.5888,0.0,0.0,0.0,0.0,0.0,-1.169,-1.4728,-1.7112,0.0,0.0,0.0,0.0,0.0,-2.4654,-2.5383,0.0,0.0,-2.4934,-2.5329,-2.3838,0.0,0.0,0.0,-1.7693,0.0,0.0,-1.4121,-1.3242,-1.1855,-1.1465,-1.1992,-1.084,-1.1367,0.0,0.0,-1.669,0.0,0.0,0.0,0.0,0.0,-2.3909,-2.5335,0.0,-2.5063,-2.5303,-2.5303,-2.5303,0.0,-2.5303,-2.5303,-2.5303,-2.5303,-2.5303,-2.5303,-2.5303,-2.5303,-2.5293,0.0,0.0,-2.4817,-2.3524,0.0,0.0,0.0,0.0,0.0,0.0,0.0,0.0,0.0,0.0,-2.0136,-1.9069,-1.8005,-1.6652,0.0,0.0,0.0,0.0,0.0,0.0,0.0,0.0,0.0,0.0,-1.8466,0.0,0.0,-2.2182,-2.2628,-2.2573,-2.2546,-2.249,-2.231,-2.231,-2.231,-2.231,-2.2564,-2.2682,-2.2716,-2.3697,-2.4408,-2.4898,-2.5642,-2.6251,-2.6691,-2.6691,-2.6691,-2.6691,-2.6691,-2.6691,-2.6691,-2.6505,-2.647,-2.6401,-1.3102,0.0,0.0,0.0,0.0,0.0,0.0,0.0,0.0,0.0,-2.3957,0.0,-2.5303,0.0,-2.5303,0.0,-2.5303,-2.5303,-2.5303,-2.5385,0.0,-2.1817,-2.1016,0.0,0.0,0.0,-1.648,-1.4995,-1.3613,-1.293,0.0,0.0,0.0,0.0,0.0,0.0,0.0,0.0,-2.2918,0.0,0.0,-2.4515,0.0,0.0,-2.5348,-2.5303,0.0,-2.5303,-2.5303,-2.5303,-2.5303,-2.5303,-2.5303,-2.5303,-2.5303,-2.5303,-2.5303,-2.5303,-2.5303,-2.5253,0.0,-2.4025,-2.3258,0.0,-2.1078,0.0,0.0,0.0,0.0,0.0,0.0,0.0,-2.0939,-1.9631,-1.8245,-1.6652,0.0,0.0,0.0,0.0,0.0,0.0,0.0,0.0,-1.6316,-1.7968,-1.7897,0.0,0.0,0.0,-2.2576,-2.2703,-2.2695,-2.2573,-2.231,-2.2371,-2.2371,-2.231,-2.2415,-2.2388,-2.2344,-2.3054,-2.3799,-2.4557,-2.5287,-2.6031,-2.6691,-2.6691,-2.6691,-2.6691,-2.6691,-2.6691,-2.6691,-2.6691,-2.6691,-2.6657,0.0,0.0,0.0,0.0,-1.8612,0.0,0.0,0.0,-2.536,0.0,-2.5553,-2.5553,-2.5553,-2.5553,-2.5553,-2.5553,-2.5553,0.0,-2.5303,-2.538,0.0,0.0,-2.3547,-2.2735,-2.1752,0.0,0.0,0.0,0.0,0.0,0.0,0.0,0.0,0.0,-1.4707,0.0,-1.9531,-2.2037,-2.4079,-2.5601,-2.5543,-2.5517,-2.5517,-2.5517,-2.5421,-2.5303,-2.5303,-2.5303,-2.5293,-2.5293,-2.5293,-2.5303,-2.5303,-2.5303,-2.5303,-2.5303,-2.5303,-2.5303,-2.5303,-2.5163,-2.4832,-2.4072,-2.3676,0.0,0.0,0.0,-2.3073,0.0,0.0,0.0,0.0,0.0,-2.2276,-2.0006,-1.8772,-1.7289,0.0,0.0,0.0,0.0,0.0,0.0,0.0,0.0,-1.4639,-1.7693,-1.661,0.0,0.0,0.0,-2.1729,-2.2667,-2.2729,-2.2625,-2.2349,-2.2573,-2.259,-2.2349,-2.259,-2.2563,-2.2355,-2.305,-2.3778,-2.4557,-2.5236,-2.5981,-2.6691,-2.6691,-2.6691,-2.6691,-2.6691,-2.6691,-2.6691,-2.6691,-2.6691,-2.6691,-1.592,-1.6022,-1.6503,0.0,-1.985,-2.2419,0.0,0.0,0.0,0.0,-2.9091,-2.9091,-2.9091,-2.9091,-2.9091,-2.9091,-2.9091,0.0,0.0,0.0,0.0,-2.5063,-2.5531,-2.509,-2.3499,-2.215,0.0,-1.95,0.0,0.0,-1.4727,0.0,0.0,0.0,0.0,0.0,-2.0391,-2.2284,-2.41,-2.5662,-2.5659,-2.5629,0.0,0.0,-2.5561,-2.5453,-2.5453,-2.5415,-2.5368,-2.536,-2.5339,-2.5303,-2.5303,-2.5303,-2.5303,-2.5303,-2.5303,-2.5303,-2.5303,-2.5264,-2.5166,-2.4974,-2.4315,-2.3591,0.0,0.0,0.0,0.0,0.0,0.0,0.0,0.0,0.0,-2.0578,-1.9044,-1.7674,0.0,0.0,0.0,0.0,0.0,0.0,0.0,-1.3728,-1.4536,-1.535,-1.6702,0.0,0.0,0.0,-2.1932,-2.2539,-2.3129,-2.33,-2.2965,-2.2772,-2.2797,-2.2982,-2.2772,-2.2643,-2.2599,-2.2789,-2.3465,-2.4523,-2.4678,-2.5507,-2.6691,-2.6691,-2.6691,-2.6691,-2.6691,-2.6691,-2.6691,-2.6691,-2.6691,-2.6691,-1.7706,0.0,0.0,-2.2062,0.0,0.0,-2.3053,0.0,0.0,-2.7918,-2.9456,0.0,-3.0398,-3.0398,-3.0398,-3.0398,-3.0398,0.0,-2.7648,0.0,0.0,-2.6841,-2.6376,-2.5848,-2.5222,-2.4005,0.0,-2.0982,0.0,0.0,-1.5366,0.0,0.0,0.0,0.0,-1.7949,0.0,-2.3047,-2.4805,-2.5703,-2.5703,0.0,0.0,-2.5683,-2.5893,-2.6161,-2.6161,-2.5847,-2.5441,-2.5401,-2.536,-2.5339,-2.5303,-2.5303,-2.5303,-2.5303,-2.5303,-2.538,-2.5764,-2.587,-2.587,-2.587,-2.5435,-2.4807,-2.3976,-2.3979,-2.4056,0.0,-2.4236,-2.4667,0.0,0.0,0.0,0.0,0.0,0.0,0.0,0.0,0.0,0.0,0.0,0.0,-1.2876,-1.3765,-1.4488,-1.4488,-1.6078,0.0,0.0,0.0,0.0,-2.2481,-2.3277,-2.3544,-2.3189,-2.3165,-2.3165,-2.3189,-2.3165,-2.3069,-2.2923,-2.2772,-2.3453,-2.4701,-2.4567,-2.5353,-2.6691,-2.6691,-2.6691,-2.6691,-2.6691,-2.6691,-2.6691,-2.6691,-2.6691,-2.6691,0.0,0.0,0.0,0.0,0.0,0.0,0.0,-2.363,0.0,-2.5245,0.0,-2.9898,-3.034,-3.0398,-3.0398,-3.0398,0.0,-3.0398,-3.0398,-3.0398,-2.9956,-2.8956,-2.7014,-2.611,-2.6428,-2.5741,0.0,0.0,0.0,-1.8514,-1.5206,0.0,0.0,0.0,0.0,0.0,0.0,-2.4023,-2.5703,-2.5703,-2.582,-2.5879,-2.5879,-2.5996,-2.6504,-2.7168,-2.7168,-2.6607,-2.5848,-2.5783,-2.5757,-2.5732,-2.5677,-2.5649,-2.563,-2.563,-2.5553,-2.5649,-2.6524,-2.6697,-2.664,-2.6736,-2.6678,-2.6177,-2.4536,-2.4626,-2.4836,-2.414,-2.4461,-2.4898,-2.5069,0.0,0.0,0.0,0.0,0.0,0.0,0.0,0.0,0.0,0.0,0.0,0.0,-1.415,-1.4451,-1.4352,-1.4995,0.0,0.0,0.0,0.0,-2.2397,-2.3283,-2.3628,-2.3346,-2.3566,-2.3566,-2.3346,-2.3566,-2.3544,-2.3236,-2.2923,-2.3571,-2.4977,-2.4658,-2.5353,-2.6691,-2.6691,-2.6691,-2.6691,-2.6691,-2.6691,-2.6691,-2.6691,-2.6691,-2.6691,0.0,0.0,0.0,0.0,0.0,-2.6995,-3.2071,-2.6197,-2.2169,-2.4937,-2.5822,-2.7264,-3.009,-3.0398,-3.0398,-3.0398,-3.0398,0.0,0.0,0.0,0.0,-3.011,-2.9706,-2.8264,-2.5591,-2.539,-2.4205,0.0,-2.0186,-1.7589,-1.4258,-1.4817,0.0,0.0,0.0,0.0,-2.2656,-2.4785,0.0,-2.5762,-2.6484,-2.6777,-2.6855,-2.7578,-2.7949,-2.8066,-2.8066,-2.7924,-2.7722,-2.7716,-2.7648,-2.7544,-2.752,-2.7489,-2.7448,-2.7448,-2.6948,-2.6563,-2.7448,-2.714,-2.6774,-2.7486,-2.7121,-2.6514,-2.6177,-2.5667,-2.5215,-2.5071,-2.5118,-2.4971,-2.42,0.0,0.0,0.0,0.0,0.0,0.0,0.0,0.0,0.0,0.0,0.0,0.0,0.0,-1.4224,0.0,0.0,0.0,0.0,0.0,0.0,0.0,-2.3363,0.0,0.0,0.0,-2.3816,-2.4016,-2.3795,-2.3671,-2.3588,-2.3277,-2.3806,-2.4977,-2.4658,-2.5353,-2.6691,-2.6691,-2.6691,-2.6691,-2.6691,-2.6691,-2.6691,-2.6691,-2.6691,-2.6691,0.0,0.0,0.0,0.0,0.0,0.0,0.0,-3.1352,0.0,-3.0379,-3.059,-3.1205,-3.2859,-3.3051,-3.2321,-3.0552,-3.0398,-3.0398,-3.0398,-3.0398,-3.0398,-3.0398,-3.0398,0.0,-2.7975,-2.6206,-2.4784,-2.3707,-2.1022,-1.8283,-1.5506,-1.5788,-1.5022,-1.3595,0.0,-2.0951,0.0,0.0,0.0,-2.6445,-2.7324,-2.7676,-2.7715,-2.8144,-2.8574,-2.8965,-2.8965,-2.9237,-2.9467,-2.8518,-2.8134,-2.8055,-2.8005,-2.7951,-2.789,-2.789,-2.7601,-2.7467,-2.8294,-2.8217,-2.8005,-2.8409,-2.789,-2.7159,-2.6697,-2.5928,-2.5303,-2.5303,-2.5303,-2.5024,-2.411,-2.356,0.0,0.0,0.0,0.0,0.0,0.0,0.0,0.0,0.0,0.0,0.0,0.0,0.0,0.0,0.0,0.0,0.0,0.0,-1.9234,0.0,0.0,0.0,-2.419,0.0,-2.4036,-2.419,-2.4054,-2.3976,-2.3955,-2.361,-2.4201,-2.5491,-2.4959,-2.5617,-2.7004,-2.6791,-2.6691,-2.6691,-2.6691,-2.6691,-2.6691,-2.6691,-2.6691,-2.6691,0.0,-2.588,0.0,0.0,-2.6495,0.0,-3.4666,-3.5493,-3.5493,-3.5493,-3.5493,-3.5493,-3.5493,-3.5493,-3.4416,-3.1705,-3.1475,-3.1475,-3.1475,-3.0802,-3.0398,-3.0398,-3.0398,-3.0398,-3.0398,-2.7399,-2.5668,0.0,-2.2649,-1.9888,-1.7061,-1.6987,-1.6469,-1.5769,0.0,0.0,0.0,0.0,-2.709,-2.7344,-2.8223,-2.8574,-2.8594,-2.8789,-2.9277,-2.9883,-2.9883,-3.0312,-3.0683,-2.9249,-2.8711,-2.8632,-2.8572,-2.8526,-2.8473,-2.845,-2.8315,-2.8356,-2.9151,-2.9236,-2.914,-2.9333,-2.8756,-2.7928,-2.7063,-2.6197,-2.5514,-2.5341,-2.5303,-2.512,-2.4466,-2.436,0.0,0.0,0.0,0.0,0.0,0.0,0.0,0.0,0.0,0.0,0.0,0.0,0.0,0.0,0.0,0.0,-1.4683,0.0,0.0,0.0,0.0,-2.3309,-2.3933,0.0,-2.419,-2.419,-2.419,-2.419,-2.419,-2.4018,-2.4699,-2.5985,-2.5561,-2.6097,-2.7272,-2.6873,-2.6691,-2.6691,-2.6691,-2.6691,-2.6691,-2.6691,-2.6691,-2.6691,0.0,0.0,0.0,0.0,0.0,0.0,-3.5397,-3.5493,-3.5493,-3.5493,-3.5493,-3.5493,-3.5493,-3.5493,-3.5359,-3.5051,-3.5012,-3.5012,-3.5012,-3.2109,-3.0398,-3.0398,-3.0398,-3.0398,-3.0398,-2.8602,-2.689,0.0,0.0,-2.237,-1.7638,-1.8164,-1.9291,-2.0933,-2.2207,0.0,0.0,-2.6505,-2.7396,-2.8242,-2.9121,-2.9473,-2.9551,-3.0351,-3.0703,-3.0781,-3.0781,-3.082,-3.0879,-3.0703,-3.0559,-3.0446,-3.0383,-3.0354,-3.0314,-3.0199,-2.965,-2.9244,-3.0059,-2.9698,-2.9294,-3.0083,-2.9621,-2.8775,-2.7948,-2.7101,-2.6255,-2.5457,-2.5303,-2.5284,-2.5187,-2.5187,-2.4918,0.0,0.0,0.0,0.0,0.0,0.0,0.0,0.0,0.0,0.0,0.0,0.0,0.0,0.0,0.0,0.0,0.0,0.0,-2.1692,-2.2575,-2.3052,-2.3125,-2.3841,-2.419,-2.419,-2.419,-2.419,-2.4208,-2.4599,-2.5221,-2.6021,-2.6454,-2.6894,-2.7272,-2.6873,-2.6691,-2.6691,-2.6691,-2.6691,-2.6691,-2.6691,-2.6691,-2.6691,0.0,0.0,0.0,0.0,0.0,0.0,0.0,-3.5493,-3.5493,-3.5493,-3.5493,-3.5493,-3.5493,-3.5493,-3.5493,-3.5493,-3.5493,-3.5493,-3.5493,-3.4205,-3.3455,-3.3455,-3.3455,-3.2968,-3.1929,-3.0256,-2.9063,0.0,0.0,0.0,-2.2216,-2.0446,-2.0797,-2.3001,-2.4579,-2.6009,-2.7282,-2.8141,-2.8749,-2.916,-3.0039,-3.0371,-3.043,-3.0762,-3.0898,-3.0898,-3.0898,-3.0898,-3.0898,-3.0898,-3.0814,-3.0693,-3.0673,-3.0619,-3.0581,-3.0491,-3.023,-3.0046,-3.0309,-3.016,-2.9967,-3.0302,-2.9737,-2.889,-2.8082,-2.7236,-2.6351,-2.5476,-2.5303,-2.5303,-2.5303,-2.5303,-2.5187,-2.487,0.0,0.0,0.0,0.0,0.0,0.0,0.0,0.0,0.0,0.0,0.0,0.0,0.0,-1.1883,-1.4143,-1.5637,0.0,-2.0223,0.0,-2.2997,-2.2997,-2.3804,-2.419,-2.419,-2.419,-2.419,-2.4226,-2.4897,-2.5746,-2.6772,-2.7456,-2.7735,-2.7648,-2.7487,-2.7272,-2.7051,-2.7051,-2.6906,-2.6691,-2.6691,-2.6691,-2.6691,-3.1494,0.0,-3.6969,0.0,-3.6969,-3.6969,-3.6969,-3.6969,-3.6969,-3.6969,-3.6969,-3.6603,-3.5622,-3.5493,-3.5493,-3.5493,-3.5493,-3.5493,-3.5493,-3.5493,-3.5493,-3.5493,-3.5493,0.0,-3.3699,-3.2006,-3.0891,-3.0398,-2.7975,0.0,-2.5245,-2.288,-2.3014,-2.5311,-2.6779,-2.7866,-2.8662,-2.9287,-2.9703,-3.0039,-3.0644,-3.0898,-3.0898,-3.0898,-3.0898,-3.0898,-3.0898,-3.0898,-3.0898,-3.0898,-3.0837,-3.0747,-3.0718,-3.068,-3.0667,-3.0567,-3.0529,-3.0505,-3.0451,-3.0425,-3.0398,-3.0398,-2.9948,-2.9198,-2.814,-2.7409,-2.6659,-2.5534,-2.5303,-2.5303,-2.5303,-2.5303,-2.5207,-2.4986,0.0,0.0,0.0,0.0,0.0,0.0,0.0,-2.0365,-1.9347,0.0,0.0,0.0,0.0,-1.3765,-1.5073,-1.625,0.0,0.0,0.0,0.0,-2.2997,-2.3804,-2.419,-2.419,-2.419,-2.419,-2.4245,-2.5273,-2.6487,-2.7749,-2.8193,-2.8264,-2.802,-2.7954,-2.7736,-2.747,-2.7365,-2.7115,-2.6873,-2.6758,-2.6691,-2.6691,-3.7331,-3.9573,-4.0431,-4.0431,-4.0431,-4.0431,-4.0431,-4.0431,-4.0431,-4.0431,-4.0431,-3.9181,-3.5872,-3.5493,-3.5493,-3.5493,-3.5493,-3.5493,-3.5493,-3.5493,-3.5493,0.0,0.0,-3.5474,-3.5468,-3.3757,-3.2064,-3.0398,0.0,0.0,-2.5303,-2.5264,-2.6456,-2.8651,-2.8794,-2.9065,-2.9391,-2.941,-2.9982,-3.0898,-3.0898,-3.0898,-3.0898,-3.0898,-3.0898,-3.0898,-3.0898,-3.0898,-3.0898,-3.0898,-3.0898,-3.0879,-3.0745,-3.0792,-3.0857,-3.0662,-3.06,-3.0587,-3.0532,-3.0442,-3.0398,-3.0398,-3.0379,-2.9948,-2.8275,-2.789,-2.739,-2.5649,-2.5303,-2.5303,-2.5303,-2.5303,-2.5043,-2.4245,0.0,0.0,0.0,0.0,0.0,0.0,-2.057,-1.9357,-2.0188,0.0,0.0,0.0,0.0,-1.8871,-1.9494,0.0,0.0,-2.3116,-2.3085,0.0,-2.2997,-2.3804,-2.419,-2.419,-2.419,-2.419,-2.4245,-2.586,-2.7453,-2.8952,-2.8565,-2.8394,-2.8368,-2.802,-2.7897,-2.7869,-2.7457,-2.7303,-2.7224,-2.6841,-2.6691,-2.6691,-3.8303,-3.9027,-3.9249,-3.9249,-3.9249,-3.9249,-3.9249,-3.9965,-4.0489,-4.0489,-4.0489,-4.0085,-3.9027,-3.6873,-3.5493,0.0,-3.5493,-3.5493,0.0,-3.5493,-3.5493,-3.5493,-3.5493,-3.5493,-3.5493,-3.4968,-3.441,-3.3878,0.0,0.0,-2.8802,-2.9948,-3.0256,-2.989,-3.0717,-3.1178,-3.1336,-3.1806,-3.218,-3.2469,-3.2469,-3.2494,-3.2463,-3.1875,-3.1713,-3.1719,-3.1113,-3.0898,-3.0898,-3.0898,-3.0898,-3.0898,-3.0857,-3.0878,-3.0878,-3.071,-3.0673,-3.0633,-3.0529,-3.0472,-3.0452,-3.0414,-3.0398,-3.0102,-2.8986,-2.7832,-2.6697,-2.5534,-2.5303,-2.5303,-2.5303,-2.5303,-2.5207,-2.4966,-2.5139,0.0,0.0,0.0,0.0,0.0,-2.2455,-2.1696,0.0,-2.0949,0.0,0.0,0.0,0.0,0.0,0.0,0.0,0.0,-2.303,0.0,-2.3015,-2.3804,-2.419,-2.419,-2.419,-2.4483,-2.5034,-2.6117,-2.7181,-2.8209,-2.8625,-2.8815,-2.8797,-2.87,-2.8507,-2.8237,-2.8112,-2.7918,-2.7678,-2.7577,-2.75,-2.747,-3.8707,-3.8707,-3.8707,-3.8707,-3.8707,-3.8707,-3.8707,-3.9327,-3.9821,-3.9821,-4.023,-4.0489,-4.0489,-3.8623,0.0,-3.7373,-3.7373,-3.6834,-3.5584,-3.5493,-3.5493,-3.5493,-3.5493,-3.5493,-3.5493,-3.5493,0.0,-3.5493,-3.5493,-3.4397,-3.234,-3.3391,-3.3333,-3.234,-3.3051,-3.3164,-3.2822,-3.3031,-3.3145,-3.3193,-3.3193,-3.3231,-3.3215,-3.2689,-3.2528,-3.25,-3.1983,-3.1791,-3.1791,-3.1791,-3.1814,-3.1836,-3.1836,-3.1621,-3.1308,-3.0891,-3.0743,-3.068,-3.0568,-3.0513,-3.0472,-3.0425,-3.0398,-3.0179,-2.9294,-2.7794,-2.6447,-2.5909,-2.5534,-2.5303,-2.5303,-2.5303,-2.5303,-2.5303,-2.5303,-2.5303,-2.5303,0.0,0.0,0.0,0.0,0.0,0.0,-2.2601,-2.2439,0.0,0.0,0.0,0.0,0.0,-2.1674,-2.2178,-2.3491,-2.3951,-2.3456,-2.3951,-2.419,-2.419,-2.419,-2.4777,-2.586,-2.6374,-2.72,-2.8282,-2.8796,-2.8994,-2.8994,-2.8994,-2.8839,-2.859,-2.8446,-2.8219,-2.7992,-2.7823,-2.7851,-2.7992,-3.8707,-3.8707,-3.8707,-3.8707,-3.8707,-3.8707,-3.8707,-3.8707,-3.8719,-3.8822,-3.98,-4.0489,-4.0489,-4.0422,-4.0406,-4.0489,0.0,0.0,-3.6065,-3.5853,-3.5853,-3.5853,-3.5622,-3.5493,-3.5493,-3.5493,-3.5493,-3.5493,-3.5493,-3.5493,-3.5493,-3.5493,-3.5493,-3.5493,-3.5493,-3.4897,-3.3891,-3.3399,-3.3237,-3.3354,-3.3354,-3.3354,-3.3368,-3.3366,-3.3336,-3.3284,-3.3297,-3.3298,-3.3298,-3.3301,-3.3346,-3.3398,-3.3398,-3.2891,-3.2109,-3.123,-3.0853,-3.071,-3.0633,-3.0554,-3.049,-3.0428,-3.039,-3.0179,-2.9294,-2.7852,-2.6678,-2.6621,-2.5909,-2.5303,-2.5303,-2.5303,-2.5303,-2.5303,-2.5303,-2.5303,-2.5303,0.0,0.0,0.0,0.0,0.0,-2.2966,-2.3706,-2.4168,0.0,0.0,0.0,0.0,0.0,-2.185,-2.442,-2.4303,-2.419,-2.419,-2.419,-2.419,-2.419,-2.4263,-2.5071,-2.6521,-2.6631,-2.7512,-2.892,-2.8975,-2.8994,-2.8994,-2.8994,-2.8994,-2.8952,-2.859,-2.8368,-2.8201,-2.7747,-2.789,-2.8254,-3.8707,0.0,-3.8707,-3.8707,-3.8707,-3.8707,-3.8707,-3.8707,-3.9036,-3.9945,-4.0336,-4.0489,-4.0489,-3.969,-3.9505,-4.0422,-4.0489,-4.0162,-3.9373,-3.9315,-3.9315,-3.9315,-3.6873,-3.5493,-3.5493,-3.5493,-3.5493,-3.5493,-3.5493,-3.5493,-3.5493,-3.5493,-3.5493,-3.5493,-3.5493,-3.5339,-3.5103,-3.4956,-3.4918,-3.4955,-3.4955,-3.4986,-3.4952,-3.4311,-3.4128,-3.4101,-3.3453,-3.3225,-3.3237,-3.3286,-3.3308,-3.3322,-3.3378,-3.3262,-3.2949,-3.2129,-3.1406,-3.0836,-3.071,-3.065,-3.0614,-3.0507,-3.043,-3.0179,-2.9294,-2.8313,-2.739,-2.6736,-2.5909,-2.5303,-2.5303,-2.5303,-2.5303,-2.5303,-2.5303,-2.5303,-2.5303,-2.5139,0.0,0.0,-2.4832,-2.4716,-2.4716,-2.4889,-2.4755,0.0,0.0,0.0,-2.3863,-2.294,-2.3049,-2.4458,-2.4303,-2.419,-2.419,-2.419,-2.419,-2.4208,-2.4814,-2.5329,-2.5713,-2.6961,-2.7714,-2.8117,-2.8741,-2.8994,-2.8994,-2.8994,-2.8994,-2.8994,-2.8905,-2.8839,-2.8815,-2.87,-2.8725,-2.8773,-4.0598,-4.0891,-4.0891,-4.0891,-4.0891,-4.0891,-4.0891,-4.0891,-4.1132,-4.1795,-4.1074,-4.0489,-4.0489,-3.9905,-3.98,-4.0438,-4.0489,-4.0489,-4.0489,-4.0489,-4.0489,-4.0489,-3.8757,-3.7796,-3.7796,-3.6796,-3.6411,-3.6642,-3.6411,-3.6026,-3.5493,-3.5493,-3.5493,-3.5493,-3.5493,-3.5493,-3.5493,-3.5493,-3.5493,-3.5493,-3.5493,-3.5522,-3.5512,-3.5057,-3.4923,-3.4904,-3.4456,-3.4298,-3.4307,-3.434,-3.4408,-3.4498,-3.4539,-3.4295,-3.3906,-3.3476,-3.2461,-3.1464,-3.1328,-3.1008,-3.0673,-3.0537,-3.0462,-3.0294,-2.9794,-2.9044,-2.8313,-2.7832,-2.6755,-2.589,-2.589,-2.5572,-2.5303,-2.5303,-2.5303,-2.5303,-2.5303,-2.5303,-2.5303,-2.5303,-2.5303,-2.5303,-2.5303,-2.5303,-2.512,-2.4678,-2.4302,0.0,-2.4182,-2.387,-2.3895,-2.4357,-2.4266,-2.419,-2.419,-2.419,-2.419,-2.4208,-2.463,-2.5236,-2.597,-2.6851,-2.7658,-2.8374,-2.8815,-2.8994,-2.8994,-2.8994,-2.8994,-2.8994,-2.8994,-2.8994,-2.8994,-2.8994,-2.8994,-2.8952,-4.2947,-4.3497,-4.3497,-4.3497,-4.3497,-4.3497,-4.3497,-4.3497,-4.3497,-4.3497,-4.2021,-4.0767,-4.0269,-4.023,-4.03,-4.0489,-4.0489,-4.0489,-4.0489,-4.0489,-4.0489,-4.0489,-4.0489,-4.0489,-4.0489,-3.8488,-3.7661,-3.8123,-3.7661,-3.6873,-3.5762,-3.593,-3.5911,-3.5743,-3.5699,-3.5622,-3.5493,-3.5493,-3.5493,-3.5493,-3.5493,-3.5493,-3.552,-3.5562,-3.5558,-3.5501,-3.5574,-3.5579,-3.5599,-3.56,-3.5706,-3.586,-3.5896,-3.5435,-3.4882,-3.4883,-3.3809,-3.2519,-3.2272,-3.158,-3.0833,-3.0571,-3.0453,-3.0414,-3.041,-2.9737,-2.9102,-2.9102,-2.7775,-2.6601,-2.6601,-2.589,-2.5303,-2.5303,-2.5303,-2.5303,-2.5303,0.0,-2.5303,-2.5303,-2.5303,-2.5303,-2.5303,-2.5303,-2.5303,-2.5303,-2.5,-2.4877,-2.4979,-2.4708,-2.4461,-2.4303,-2.4247,-2.4228,-2.419,-2.419,-2.419,-2.419,-2.4447,-2.5273,-2.6612,-2.6851,-2.7691,-2.8994,-2.8994,-2.8994,-2.8994,-2.8994,-2.8994,-2.8994,-2.8994,-2.8994,-2.8994,-2.8994,-2.8994,-2.8994,-4.3387,-4.3497,-4.3497,-4.3497,-4.3497,-4.3497,-4.3497,-4.3497,-4.3497,-4.3497,-4.3236,-4.2008,-3.9266,-3.897,-3.9402,-4.0406,-4.0489,-4.0489,-4.0489,-4.0489,-4.0489,-4.0489,-4.0489,-4.0489,-4.0489,-3.9219,-3.8584,-3.8681,-3.8584,-3.8007,-3.6969,-3.7853,-3.7796,-3.693,-3.6642,-3.6142,-3.5493,-3.5493,-3.5493,-3.5493,-3.5493,-3.5493,-3.5507,-3.5515,-3.5501,-3.5507,-3.5515,-3.5528,-3.5522,-3.5588,-3.5621,-3.5685,-3.5851,-3.5809,-3.5723,-3.578,-3.5098,-3.4141,-3.3398,-3.2512,-3.1601,-3.0787,-3.0537,-3.0463,-3.0414,-2.9737,-2.9102,-2.9102,-2.7775,-2.6601,-2.6601,-2.589,-2.5303,-2.5303,-2.5303,-2.5303,-2.5303,0.0,-2.5303,-2.5303,-2.5303,-2.5303,-2.5303,-2.5303,-2.5303,-2.5303,-2.5088,-2.4986,-2.501,-2.4836,-2.4746,-2.4716,-2.4545,-2.4375,-2.419,-2.419,-2.419,-2.4208,-2.5585,-2.6374,-2.6649,-2.8003,-2.8755,-2.8994,-2.8994,-2.8994,-2.8994,-2.8994,-2.8994,-2.8994,-2.8994,-2.8994,-2.8994,-2.8994,-2.8994,-2.8994,-4.3497,-4.3497,-4.3497,-4.3497,-4.3497,-4.3497,-4.3497,-4.3497,-4.3497,-4.3497,-4.3497,-4.2928,-4.1442,-4.1295,-4.0818,-3.9631,-3.9529,-3.98,-4.0473,-3.9884,-3.9821,-4.0473,-4.0489,-4.0489,-4.0489,-3.9969,-3.9719,-3.9719,-3.9719,-3.945,-3.8969,-3.8854,-3.8527,-3.8046,-3.7603,-3.7199,-3.6853,-3.6853,-3.6853,-3.6853,-3.6853,-3.6853,-3.6853,-3.6853,-3.6565,-3.6161,-3.6161,-3.5872,-3.5488,-3.554,-3.5566,-3.5621,-3.5743,-3.5841,-3.591,-3.5975,-3.5371,-3.4512,-3.3633,-3.2708,-3.1903,-3.1449,-3.0912,-3.049,-3.0462,-3.01,-2.9794,-2.9794,-2.8813,-2.7813,-2.7371,-2.6582,-2.6005,-2.6005,-2.561,-2.5457,-2.5928,-2.5591,-2.5303,-2.5303,-2.5303,-2.5303,-2.5303,-2.5303,-2.5303,-2.5303,-2.5111,-2.5046,-2.5152,-2.5005,-2.4917,-2.4917,-2.4741,-2.4607,-2.4528,-2.4528,-2.4461,-2.4375,-2.5541,-2.6294,-2.6649,-2.7824,-2.8594,-2.8994,-2.8994,-2.8994,-2.8994,-2.8994,-2.8994,-2.8994,-2.8994,-2.8994,-2.8994,-2.8994,-2.8994,-2.8994,-4.3497,-4.3497,-4.3497,-4.3497,-4.3497,-4.3497,-4.3497,-4.3497,-4.3497,-4.3497,-4.3497,-4.3497,-4.3497,-4.3497,-4.2506,-4.0029,-3.9827,-3.9891,-4.0062,-3.9216,-3.91,-4.0043,-4.0353,-4.0489,-4.0489,-4.0489,-4.0489,-4.0489,-4.0489,-4.0489,-4.0469,-3.9585,-3.9084,-3.8892,-3.8488,-3.818,-3.8007,-3.8007,-3.8007,-3.8007,-3.8007,-3.8007,-3.8007,-3.8007,-3.7584,-3.7007,-3.7007,-3.6488,-3.5795,-3.5795,-3.5682,-3.5579,-3.5655,-3.5756,-3.586,-3.5948,-3.5507,-3.4805,-3.3945,-3.318,-3.2522,-3.2104,-3.1417,-3.0785,-3.0568,-3.0482,-3.0451,-3.0451,-2.9776,-2.8965,-2.8318,-2.7499,-2.6853,-2.664,0.0,-2.5774,-2.6236,-2.5707,-2.5303,-2.5303,-2.5303,-2.5303,-2.5303,-2.5303,-2.5303,-2.5303,-2.5152,-2.5141,-2.5284,-2.5152,-2.5077,-2.5077,-2.4877,-2.4804,-2.4804,-2.4804,-2.4825,-2.4858,-2.5663,-2.6414,-2.7076,-2.7871,-2.8569,-2.9089,-2.9089,-2.9044,-2.8994,-2.8994,-2.8994,-2.8994,-2.8994,-2.8994,-2.8994,-2.8994,-2.8994,-2.8994,-4.3497,-4.3497,-4.3497,-4.3497,-4.3497,-4.3497,-4.3497,-4.3497,-4.3497,-4.3497,-4.3497,-4.3497,-4.3497,-4.3497,-4.3387,-4.3167,-4.313,-4.193,-3.9006,-3.875,-3.875,-3.8851,-3.9905,-4.0489,-4.0489,-4.0489,-4.0489,-4.0489,-4.0489,-4.0489,-4.0489,-4.0412,-3.9969,-3.9258,-3.9219,-3.8757,-3.8007,-3.8007,-3.8007,-3.8007,-3.8007,-3.8007,-3.8007,-3.8007,-3.7969,-3.7892,-3.7892,-3.7353,-3.6622,-3.6622,-3.6122,-3.5509,-3.5599,-3.5611,-3.5668,-3.586,-3.5909,-3.5703,-3.4844,-3.4551,-3.41,-3.2422,-3.1942,-3.1652,-3.0787,-3.0587,-3.0587,-3.0587,-2.9946,-2.9324,-2.914,-2.8446,-2.7619,-2.6737,0.0,0.0,-2.5495,-2.5341,-2.5303,-2.5303,-2.5303,-2.5303,-2.5303,-2.5303,-2.5303,-2.5303,-2.5293,-2.5274,-2.5303,-2.5293,-2.5274,-2.5274,-2.4981,-2.4804,-2.4804,-2.4804,-2.5167,-2.5903,-2.6717,-2.7547,-2.8395,-2.919,-2.9495,-2.9372,-2.9372,-2.9225,-2.8994,-2.8994,-2.8994,-2.8994,-2.8994,-2.8994,-2.8994,-2.8994,-2.8994,-2.8994,-4.3497,-4.3497,-4.3497,-4.3497,-4.3497,-4.3497,-4.3497,-4.3497,-4.3497,-4.3497,-4.3497,-4.3497,-4.3497,-4.3497,-4.3497,-4.3497,-4.3497,-4.2965,-4.1754,-4.168,-4.0781,-3.8799,-3.9127,-3.9377,-3.9377,-4.012,-4.0319,-3.9925,-4.0319,-4.0406,-4.0269,-4.0406,-4.0335,-4.0027,-4.0027,-3.9854,-3.9546,-3.9546,-3.9546,-3.9546,-3.9546,-3.9546,-3.9546,-3.9546,-3.9238,-3.8815,-3.8815,-3.8257,-3.7507,-3.7507,-3.6949,-3.6265,-3.6369,-3.6037,-3.564,-3.5831,-3.5913,-3.5868,-3.5586,-3.5117,-3.4531,-3.3845,-3.2838,-3.1903,-3.1554,-3.1028,-3.0606,-3.0606,-3.0353,-2.9977,-2.9421,-2.9004,-2.8631,-2.8278,0.0,-2.7467,-2.7621,-2.7236,-2.6909,-2.6909,-2.6909,-2.6909,-2.6909,-2.6428,-2.612,-2.612,-2.561,-2.5303,-2.5303,-2.5303,-2.5303,-2.5303,-2.519,-2.5115,-2.5115,-2.5115,-2.5468,-2.6203,-2.7006,-2.7782,-2.8539,-2.9336,-2.9589,-2.9412,-2.9412,-2.9246,-2.8994,-2.8994,-2.8994,-2.8994,-2.8994,-2.8994,-2.8994,-2.8994,-2.8994,-2.8994,-4.3497,-4.3497,-4.3497,-4.3497,-4.3497,-4.3497,-4.3497,-4.3497,-4.3497,-4.3497,-4.3497,-4.3497,-4.3497,-4.3497,-4.3497,-4.3497,-4.3497,-4.3497,-4.3497,-4.3497,-4.2506,-4.0304,-3.9239,-3.8707,-3.8707,-3.9505,-3.9821,-3.9599,-4.0063,-4.025,-4.0101,-4.0372,-4.0489,-4.0489,-4.0489,-4.0489,-4.0489,-4.0489,-4.0489,-4.0489,-4.0489,-4.0489,-4.0489,-4.0489,-4.0162,-3.9681,-3.9681,-3.9123,-3.8411,-3.8411,-3.7834,-3.7118,-3.7218,-3.6671,-3.597,-3.5853,-3.5856,-3.591,-3.597,-3.5546,-3.5039,-3.4766,-3.3767,-3.2704,-3.2174,-3.1552,-3.102,-3.0743,-3.0685,-3.0505,-2.9927,-2.973,-2.9583,-2.9303,-2.8722,-2.8405,-2.8714,-2.8268,-2.789,-2.789,-2.789,-2.789,-2.789,-2.7351,-2.7005,-2.7005,-2.6447,-2.612,-2.612,-2.612,-2.612,-2.612,-2.612,-2.612,-2.612,-2.5851,-2.6088,-2.6802,-2.7612,-2.8387,-2.9125,-2.968,-2.9799,-2.9589,-2.9532,-2.9353,-2.9112,-2.9021,-2.8994,-2.8994,-2.8994,-2.8994,-2.8994,-2.8994,-2.8994,-2.8994,-4.3497,-4.3497,-4.3497,-4.3497,-4.3497,-4.3497,-4.3497,-4.3497,-4.3497,-4.3497,-4.3497,-4.3497,-4.3497,-4.3497,-4.3497,-4.3497,-4.3497,-4.3497,-4.3497,-4.3497,-4.3497,-4.3497,-4.0432,-3.8744,-3.8744,-3.8707,-3.8998,-3.9599,-3.9819,-3.9963,-4.0101,-4.0372,-4.0489,-4.0489,-4.0489,-4.0489,-4.0489,-4.0489,-4.0489,-4.0489,-4.0489,-4.0489,-4.0489,-4.0489,-4.0489,-4.0489,-4.0489,-3.9988,-3.9296,-3.9296,-3.8719,-3.8007,-3.8007,-3.7495,-3.6723,-3.5862,-3.5755,-3.59,-3.59,-3.5947,-3.5781,-3.4922,-3.4707,-3.4258,-3.2598,-3.2207,-3.1953,-3.1094,-3.0898,-3.0858,-3.0721,-3.0696,-3.0427,-2.9552,-2.9297,-2.8938,-2.8125,-2.7962,-2.7909,-2.7909,-2.7909,-2.7909,-2.7909,-2.7909,-2.7909,-2.7909,-2.789,-2.789,-2.789,-2.789,-2.789,-2.789,-2.789,-2.789,-2.789,-2.7044,-2.7044,-2.7909,-2.8717,-2.9563,-3.0398,-3.0398,-3.0254,-2.9999,-2.978,-2.9589,-2.9392,-2.9112,-2.9017,-2.8994,-2.8994,-2.8994,-2.8994,-2.8994,-2.8994,-2.8994,-4.3497,-4.3497,-4.3497,-4.3497,-4.3497,-4.3497,-4.3497,-4.3497,-4.3497,-4.3497,-4.3497,-4.3497,-4.3497,-4.3497,-4.3497,-4.3497,-4.3497,-4.3497,-4.3497,-4.3497,-4.3497,-4.3497,-4.258,-4.2066,-4.2066,-3.9863,-3.8792,-3.897,-3.9451,-3.9778,-3.9963,-4.0319,-4.0489,-4.0489,-4.0489,-4.0489,-4.0489,-4.0489,-4.0489,-4.0489,-4.0489,-4.0489,-4.0489,-4.0489,-4.0489,-4.0489,-4.0489,-4.0335,-4.0142,-4.0142,-3.9585,-3.8815,-3.818,-3.7434,-3.6717,-3.6566,-3.6125,-3.5698,-3.5743,-3.5849,-3.5886,-3.5664,-3.5156,-3.457,-3.4062,-3.3047,-3.2129,-3.1875,-3.1328,-3.0898,-3.0857,-3.0769,-3.0612,-3.0349,-3.0233,-3.0081,-2.9799,-2.9736,-2.9719,-2.9671,-2.966,-2.966,-2.966,-2.9102,-2.8736,-2.8736,-2.8217,-2.789,-2.789,-2.789,-2.789,-2.789,-2.789,-2.789,-2.789,-2.764,-2.7928,-2.8736,-2.8986,-2.9563,-3.0398,-3.0398,-3.0254,-2.9999,-2.9939,-2.9713,-2.9392,-2.931,-2.9178,-2.8994,-2.8994,-2.8994,-2.8994,-2.8994,-2.8994,-2.8994,-4.3497,-4.3497,-4.3497,-4.3497,-4.3497,-4.3497,-4.3497,-4.3497,-4.3497,-4.3497,-4.3497,-4.3497,-4.3497,-4.3497,-4.3497,-4.3497,-4.3497,-4.3497,-4.3497,-4.3497,-4.3497,-4.3497,-4.3497,-4.3497,-4.3497,-4.1589,-4.0598,-4.0598,-4.0977,-4.0996,-4.0703,-4.1017,-4.1209,-4.1297,-4.1456,-4.1143,-4.0489,-4.0489,-4.0489,-4.0489,-4.0489,-4.0489,-4.0489,-4.0489,-4.0489,-4.0489,-4.0489,-4.0489,-4.0489,-4.0489,-4.0181,-3.9623,-3.8777,-3.8142,-3.7676,-3.7398,-3.6756,-3.6124,-3.617,-3.6009,-3.5821,-3.5871,-3.5541,-3.5117,-3.4785,-3.3926,-3.3086,-3.2754,-3.1992,-3.1406,-3.1406,-3.1071,-3.0771,-3.0771,-3.0703,-3.0633,-3.0587,-3.0567,-3.0521,-3.0482,-3.0472,-3.0441,-3.0441,-2.9943,-2.9602,-2.9602,-2.9159,-2.889,-2.889,-2.889,-2.889,-2.889,-2.889,-2.889,-2.889,-2.889,-2.8967,-2.9102,-2.9448,-2.989,-3.0398,-3.0398,-3.0311,-3.015,-3.0061,-2.9861,-2.9625,-2.9551,-2.9435,-2.9272,-2.9272,-2.9228,-2.9156,-2.9156,-2.9089,-2.8994,-4.3497,-4.3497,-4.3497,-4.3497,-4.3497,-4.3497,-4.3497,-4.3497,-4.3497,-4.3497,-4.3497,-4.3497,-4.3497,-4.3497,-4.3497,-4.3497,-4.3497,-4.3497,-4.3497,-4.3497,-4.3497,-4.3497,-4.3497,-4.3497,-4.3497,-4.3497,-4.3497,-4.3497,-4.3497,-4.2983,-4.2026,-4.2249,-4.2412,-4.2578,-4.2946,-4.2244,-4.0745,-4.0681,-4.0681,-4.0719,-4.0719,-4.0758,-4.0777,-4.0681,-4.0642,-4.0604,-4.0527,-4.0489,-4.0489,-4.0489,-4.0489,-4.0354,-3.9642,-3.9354,-3.9142,-3.8354,-3.7578,-3.6983,-3.6906,-3.6366,-3.5787,-3.5709,-3.5838,-3.5761,-3.5,-3.4746,-3.4473,-3.3672,-3.2871,-3.2305,-3.2305,-3.1601,-3.1016,-3.1016,-3.0852,-3.0718,-3.0696,-3.0657,-3.0611,-3.0606,-3.0552,-3.0516,-3.0498,-3.0441,-3.0398,-3.0398,-3.0398,-3.0398,-3.0398,-3.0398,-3.0398,-3.0398,-3.0398,-3.0398,-3.0398,-3.0398,-3.0006,-2.9217,-3.0025,-3.0398,-3.0398,-3.0398,-3.0398,-3.0398,-3.0136,-3.0013,-2.9984,-2.9796,-2.9713,-2.9696,-2.9696,-2.9589,-2.9414,-2.9414,-2.9267,-2.9021,-4.3497,-4.3497,-4.3497,-4.3497,-4.3497,-4.3497,-4.3497,-4.3497,-4.3497,-4.3497,-4.3497,-4.3497,-4.3497,-4.3497,-4.3497,-4.3497,-4.3497,-4.3497,-4.3497,-4.3497,-4.3497,-4.3497,-4.3497,-4.3497,-4.3497,-4.3497,-4.3497,-4.3497,-4.3497,-4.3369,-4.3164,-4.318,-4.3165,-4.3042,-4.3126,-4.2957,-4.2578,-4.2042,-4.2104,-4.2547,-4.2547,-4.2777,-4.3066,-4.2162,-4.17,-4.1431,-4.0739,-4.0489,-4.0489,-4.0489,-4.0489,-4.0469,-4.0277,-3.9796,-3.9258,-3.9065,-3.8421,-3.7602,-3.6928,-3.6687,-3.6484,-3.5786,-3.5702,-3.5734,-3.5656,-3.5151,-3.4648,-3.4453,-3.373,-3.3144,-3.3144,-3.2461,-3.1914,-3.1914,-3.1328,-3.0816,-3.0718,-3.0687,-3.0665,-3.0611,-3.0587,-3.0547,-3.0507,-3.0441,-3.0398,-3.0398,-3.0398,-3.0398,-3.0398,-3.0398,-3.0398,-3.0398,-3.0398,-3.0398,-3.0398,-3.0398,-3.0314,-3.0121,-3.0302,-3.0398,-3.0398,-3.0398,-3.0398,-3.0398,-3.0343,-3.0196,-2.9999,-2.9954,-2.9845,-2.9696,-2.9696,-2.9678,-2.9625,-2.9625,-2.9513,-2.9289,-4.3497,-4.3497,-4.3497,-4.3497,-4.3497,-4.3497,-4.3497,-4.3497,-4.3497,-4.3497,-4.3497,-4.3497,-4.3497,-4.3497,-4.3497,-4.3497,-4.3497,-4.3497,-4.3497,-4.3497,-4.3497,-4.3497,-4.3497,-4.3497,-4.3497,-4.3497,-4.3497,-4.3497,-4.3497,-4.3497,-4.3497,-4.3497,-4.3444,-4.3372,-4.357,-4.3674,-4.3643,-4.2984,-4.3025,-4.347,-4.347,-4.3643,-4.3816,-4.3239,-4.2508,-4.1739,-4.1277,-4.0854,-4.0489,-4.0489,-4.0489,-4.0489,-4.0489,-4.02,-3.9873,-3.9873,-3.9277,-3.8527,-3.8065,-3.7384,-3.6697,-3.6233,-3.5882,-3.5679,-3.5786,-3.5479,-3.521,-3.5263,-3.4582,-3.3979,-3.4004,-3.334,-3.2773,-3.2773,-3.207,-3.1504,-3.1439,-3.1067,-3.0788,-3.0752,-3.0689,-3.0628,-3.0547,-3.0524,-3.0509,-3.0509,-3.0472,-3.0451,-3.0451,-3.0425,-3.0398,-3.0398,-3.0398,-3.0398,-3.0398,-3.0398,-3.0398,-3.0398,-3.0398,-3.0398,-3.0398,-3.0398,-3.0398,-3.0398,-3.0398,-3.0311,-3.0196,-3.0196,-3.0142,-3.0037,-3.0037,-2.9958,-2.9845,-2.9845,-2.9678,-2.9395,-4.3497,-4.3497,-4.3497,-4.3497,-4.3497,-4.3497,-4.3497,-4.3497,-4.3497,-4.3497,-4.3497,-4.3497,-4.3497,-4.3497,-4.3497,-4.3497,-4.3497,-4.3497,-4.3497,-4.3497,-4.3497,-4.3497,-4.3497,-4.3497,-4.3497,-4.3497,-4.3497,-4.3497,-4.3497,-4.3497,-4.3497,-4.3497,-4.3497,-4.3513,-4.3912,-4.4058,-4.405,-4.3613,-4.3611,-4.3925,-4.3981,-4.4056,-4.4091,-4.3938,-4.3186,-4.222,-4.2066,-4.147,-4.07,-4.0546,-4.0489,-4.0489,-4.0489,-4.0489,-4.0489,-4.0489,-4.0027,-3.9469,-3.9335,-3.8238,-3.7123,-3.6969,-3.6344,-3.5794,-3.5868,-3.5779,-3.5723,-3.5841,-3.5311,-3.4839,-3.4899,-3.4199,-3.3613,-3.3613,-3.2949,-3.2402,-3.2402,-3.166,-3.1113,-3.1113,-3.087,-3.068,-3.0608,-3.0611,-3.0606,-3.0606,-3.0559,-3.0532,-3.0532,-3.0442,-3.0425,-3.0425,-3.0421,-3.0398,-3.0398,-3.0398,-3.0398,-3.0398,-3.0398,-3.0398,-3.0398,-3.0398,-3.0398,-3.0398,-3.0398,-3.0398,-3.0398,-3.0398,-3.0398,-3.0398,-3.0398,-3.0267,-3.0061,-3.0013,-2.9829,-2.9533,-4.3497,-4.3497,-4.3497,-4.3497,-4.3497,-4.3497,-4.3497,-4.3497,-4.3497,-4.3497,-4.3497,-4.3497,-4.3497,-4.3497,-4.3497,-4.3497,-4.3497,-4.3497,-4.3497,-4.3497,-4.3497,-4.3497,-4.3497,-4.3497,-4.3497,-4.3497,-4.3497,-4.3497,-4.3497,-4.3497,-4.3497,-4.3497,-4.3497,-4.3479,-4.3582,-4.3597,-4.3612,-4.3813,-4.393,-4.4018,-4.4379,-4.4691,-4.4874,-4.409,-4.3867,-4.3874,-4.3162,-4.2354,-4.1508,-4.0739,-4.0489,-4.0489,-4.0489,-4.0489,-4.0489,-4.0489,-4.0412,-4.0181,-3.9488,-3.9123,-3.8757,-3.8007,-3.7175,-3.6548,-3.6575,-3.6125,-3.571,-3.5723,-3.5734,-3.5728,-3.5734,-3.5073,-3.4512,-3.4512,-3.3809,-3.3242,-3.3242,-3.2539,-3.2012,-3.2012,-3.1241,-3.0693,-3.0687,-3.0624,-3.0606,-3.0606,-3.0594,-3.0587,-3.0587,-3.0521,-3.0491,-3.0491,-3.0439,-3.0398,-3.0398,-3.0398,-3.0398,-3.0398,-3.0398,-3.0398,-3.0398,-3.0398,-3.0398,-3.0398,-3.0398,-3.0398,-3.0398,-3.0398,-3.0398,-3.0398,-3.0398,-3.0367,-3.0311,-3.0089,-2.992,-2.981,-4.1621,-4.1621,-4.1621,-4.1621,-4.1621,-4.1621,-4.1621,-4.2678,-4.3497,-4.3497,-4.3497,-4.3497,-4.3497,-4.3497,-4.3497,-4.3497,-4.3497,-4.3497,-4.3497,-4.3497,-4.3497,-4.3497,-4.3497,-4.3497,-4.3497,-4.3497,-4.3497,-4.3497,-4.3497,-4.3497,-4.3497,-4.3497,-4.3497,-4.3497,-4.3497,-4.3497,-4.3513,-4.3646,-4.3726,-4.3726,-4.3931,-4.4308,-4.4787,-4.4407,-4.4154,-4.3886,-4.2939,-4.2354,-4.1873,-4.0835,-4.0489,-4.0489,-4.0489,-4.0489,-4.0489,-4.0489,-4.0489,-4.0412,-4.0065,-3.9642,-3.92,-3.8815,-3.8065,-3.7296,-3.6815,-3.6472,-3.6142,-3.5736,-3.569,-3.5775,-3.5873,-3.5603,-3.5384,-3.543,-3.4687,-3.4121,-3.4121,-3.3398,-3.2695,-3.2246,-3.1814,-3.1343,-3.0853,-3.0786,-3.0777,-3.0777,-3.0696,-3.0661,-3.0661,-3.0594,-3.0567,-3.0567,-3.0521,-3.0516,-3.0516,-3.0472,-3.0452,-3.0452,-3.0425,-3.0398,-3.0398,-3.0398,-3.0398,-3.0398,-3.0398,-3.0398,-3.0398,-3.0398,-3.0398,-3.0398,-3.0398,-3.0398,-3.0398,-3.0267,-3.0196,-3.0169]},{"header":{"parameterUnit":"m.s-1","parameterCategory":1,"la1":30.6,"la2":28.766,"lo1":-90.7593,"lo2":-88.6598,"dy":0.0162,"dx":0.0183,"nx":116,"ny":114,"refTime":"2024-07-05T18:00:00:Z","depth":0,"parameterNumber":3,"parameterNumberName":"V-component_of_WINDS"},"data":[0.0,0.0,0.0,0.0,0.0,0.0,0.0,0.0,0.0,0.0,0.0,0.0,0.0,0.0,0.0,0.0,0.0,0.0,0.0,0.0,0.0,0.0,0.0,0.0,0.0,0.0,0.0,0.0,0.0,0.0,0.0,0.0,0.0,0.0,0.0,0.0,0.0,0.0,0.0,0.0,0.0,0.0,0.0,0.0,0.0,0.0,0.0,0.0,0.0,0.0,0.0,0.0,0.0,0.0,0.0,0.0,0.0,0.0,0.0,0.0,0.0,0.0,0.0,0.0,0.0,0.0,0.0,0.0,0.0,0.0,0.0,0.0,0.0,0.0,0.0,0.0,0.0,0.0,0.0,0.0,0.0,0.0,0.0,0.0,0.0,0.0,0.0,0.0,0.0,0.0,0.0,0.0,0.0,0.0,0.0,0.0,0.0,0.0,0.0,0.0,0.0,0.0,0.0,0.0,0.0,0.0,0.0,0.0,0.0,0.0,0.0,0.0,0.0,0.0,0.0,0.0,0.0,0.0,0.0,0.0,0.0,0.0,0.0,0.0,0.0,0.0,0.0,0.0,0.0,0.0,0.0,0.0,0.0,0.0,0.0,0.0,0.0,0.0,0.0,0.0,0.0,0.0,0.0,0.0,0.0,0.0,0.0,0.0,0.0,0.0,0.0,0.0,0.0,0.0,0.0,0.0,0.0,0.0,0.0,0.0,0.0,0.0,0.0,0.0,0.0,0.0,0.0,0.0,0.0,0.0,0.0,0.0,0.0,0.0,0.0,0.0,0.0,0.0,0.0,0.0,0.0,0.0,0.0,0.0,0.0,0.0,0.0,0.0,0.0,0.0,0.0,0.0,0.0,0.0,0.0,0.0,0.0,0.0,0.0,0.0,0.0,0.0,0.0,0.0,0.0,0.0,0.0,0.0,0.0,0.0,0.0,0.0,0.0,0.0,0.0,0.0,0.0,0.0,0.0,0.0,0.0,0.0,0.0,0.0,0.0,0.0,0.0,0.0,0.0,0.0,0.0,0.0,0.0,0.0,0.0,0.0,0.0,0.0,0.0,0.0,0.0,0.0,0.0,0.0,0.0,0.0,0.0,0.0,0.0,0.0,0.0,0.0,0.0,0.0,0.0,0.0,0.0,0.0,0.0,0.0,0.0,0.0,0.0,0.0,0.0,0.0,0.0,0.0,0.0,0.0,0.0,0.0,0.0,0.0,0.0,0.0,0.0,0.0,0.0,0.0,0.0,0.0,0.0,0.0,0.0,0.0,0.0,0.0,0.0,0.0,0.0,0.0,0.0,0.0,0.0,0.0,0.0,0.0,0.0,0.0,0.0,0.0,0.0,0.0,0.0,0.0,0.0,0.0,0.0,0.0,0.0,0.0,0.0,0.0,0.0,0.0,0.0,0.0,0.0,0.0,0.0,0.0,0.0,0.0,0.0,0.0,0.0,0.0,0.0,0.0,0.0,0.0,0.0,0.0,0.0,0.0,0.0,0.0,0.0,0.0,0.0,0.0,0.0,0.0,0.0,0.0,0.0,0.0,0.0,0.0,0.0,0.0,0.0,0.0,0.0,0.0,0.0,0.0,0.0,0.0,0.0,0.0,0.0,0.0,0.0,0.0,0.0,0.0,0.0,0.0,0.0,0.0,0.0,0.0,0.0,0.0,0.0,0.0,0.0,0.0,0.0,0.0,0.0,0.0,0.0,0.0,0.0,0.0,0.0,0.0,0.0,0.0,0.0,0.0,0.0,0.0,0.0,0.0,0.0,0.0,0.0,0.0,0.0,0.0,0.0,0.0,0.0,0.0,0.0,0.0,0.0,0.0,0.0,0.0,0.0,0.0,0.0,0.0,0.0,0.0,0.0,0.0,0.0,0.0,0.0,0.0,0.0,0.0,0.0,0.0,0.0,0.0,0.0,0.0,0.0,0.0,0.0,0.0,0.0,0.0,0.0,0.0,0.0,0.0,0.0,0.0,0.0,0.0,0.0,0.0,0.0,0.0,0.0,0.0,0.0,0.0,0.0,0.0,0.0,0.0,0.0,0.0,0.0,0.0,0.0,0.0,0.0,0.0,0.0,0.0,0.0,0.0,0.0,0.0,0.0,0.0,0.0,0.0,0.0,0.0,0.0,0.0,0.0,0.0,0.0,0.0,0.0,0.0,0.0,0.0,0.0,0.0,0.0,0.0,0.0,0.0,0.0,0.0,0.0,0.0,0.0,0.0,0.0,0.0,0.0,0.0,0.0,0.0,0.0,0.0,0.0,0.0,0.0,0.0,0.0,0.0,0.0,0.0,0.0,0.0,0.0,0.0,0.0,0.0,0.0,0.0,0.0,0.0,0.0,0.0,0.0,0.0,0.0,0.0,0.0,0.0,0.0,0.0,0.0,0.0,0.0,0.0,0.0,0.0,0.0,0.0,0.0,0.0,0.0,0.0,0.0,0.0,0.0,0.0,0.0,0.0,0.0,0.0,0.0,0.0,0.0,0.0,0.0,0.0,0.0,0.0,0.0,0.0,0.0,0.0,0.0,0.0,0.0,0.0,0.0,0.0,0.0,0.0,0.0,0.0,0.0,0.0,0.0,0.0,0.0,0.0,0.0,0.0,0.0,0.0,0.0,0.0,0.0,0.0,0.0,0.0,0.0,0.0,0.0,0.0,0.0,0.0,0.0,0.0,0.0,0.0,0.0,0.0,0.0,0.0,0.0,0.0,0.0,0.0,0.0,0.0,0.0,0.0,0.0,0.0,0.0,0.0,0.0,0.0,0.0,0.0,0.0,0.0,0.0,0.0,0.0,0.0,0.0,0.0,0.0,0.0,0.0,0.0,0.0,0.0,0.0,0.0,0.0,0.0,0.0,0.0,0.0,0.0,0.0,0.0,0.0,0.0,0.0,0.0,0.0,0.0,0.0,0.0,0.0,0.0,0.0,0.0,0.0,0.0,0.0,0.0,0.0,0.0,0.0,0.0,0.0,0.0,0.0,0.0,0.0,0.0,0.0,0.0,0.0,0.0,0.0,0.0,0.0,0.0,0.0,0.0,0.0,0.0,0.0,0.0,0.0,0.0,0.0,0.0,0.0,0.0,0.0,0.0,0.0,0.0,0.0,0.0,0.0,0.0,0.0,0.0,0.0,0.0,0.0,0.0,0.0,0.0,0.0,0.0,0.0,0.0,0.0,0.0,0.0,0.0,0.0,0.0,0.0,0.0,0.0,0.0,0.0,0.0,0.0,0.0,0.0,0.0,0.0,0.0,0.0,0.0,0.0,0.0,0.0,0.0,0.0,0.0,0.0,0.0,0.0,0.0,0.0,0.0,0.0,0.0,0.0,0.0,0.0,0.0,0.0,0.0,0.0,0.0,0.0,0.0,0.0,0.0,0.0,0.0,0.0,0.0,0.0,0.0,0.0,0.0,0.0,0.0,0.0,0.0,0.0,0.0,0.0,0.0,0.0,0.0,0.0,0.0,0.0,0.0,0.0,0.0,0.0,0.0,0.0,0.0,0.0,0.0,0.0,0.0,0.0,0.0,0.0,0.0,0.0,0.0,0.0,0.0,0.0,0.0,0.0,0.0,0.0,0.0,0.0,0.0,0.0,0.0,0.0,0.0,0.0,0.0,0.0,0.0,0.0,0.0,0.0,0.0,0.0,0.0,0.0,0.0,0.0,0.0,0.0,0.0,0.0,0.0,0.0,0.0,0.0,0.0,0.0,0.0,0.0,0.0,0.0,0.0,0.0,0.0,0.0,0.0,0.0,0.0,0.0,0.0,0.0,0.0,0.0,0.0,0.0,0.0,0.0,0.0,0.0,0.0,0.0,0.0,0.0,0.0,0.0,0.0,0.0,0.0,0.0,0.0,0.0,0.0,0.0,0.0,0.0,0.0,0.0,0.0,0.0,0.0,0.0,0.0,0.0,0.0,0.0,0.0,0.0,0.0,0.0,0.0,0.0,0.0,0.0,0.0,0.0,0.0,0.0,0.0,0.0,0.0,0.0,0.0,0.0,0.0,0.0,0.0,0.0,0.0,0.0,0.0,0.0,0.0,0.0,0.0,0.0,0.0,0.0,0.0,0.0,0.0,0.0,0.0,0.0,0.0,0.0,0.0,0.0,0.0,0.0,0.0,0.0,0.0,0.0,0.0,0.0,0.0,0.0,0.0,0.0,0.0,0.0,0.0,0.0,0.0,0.0,0.0,0.0,0.0,0.0,0.0,0.0,0.0,0.0,0.0,0.0,0.0,0.0,0.0,0.0,0.0,0.0,0.0,0.0,0.0,0.0,0.0,0.0,0.0,0.0,0.0,0.0,0.0,0.0,0.0,0.0,0.0,0.0,0.0,0.0,0.0,0.0,0.0,0.0,0.0,0.0,0.0,0.0,0.0,0.0,0.0,0.0,0.0,0.0,0.0,0.0,0.0,0.0,0.0,0.0,0.0,0.0,0.0,0.0,0.0,0.0,0.0,0.0,0.0,0.0,0.0,0.0,0.0,0.0,0.0,0.0,0.0,0.0,0.0,0.0,0.0,0.0,0.0,0.0,0.0,0.0,0.0,0.0,0.0,0.0,0.0,0.0,0.0,0.0,0.0,0.0,0.0,0.0,0.0,0.0,0.0,0.0,0.0,0.0,0.0,0.0,0.0,0.0,0.0,0.0,0.0,0.0,0.0,0.0,0.0,0.0,0.0,0.0,0.0,0.0,0.0,0.0,0.0,0.0,0.0,0.0,0.0,0.0,0.0,0.0,0.0,0.0,0.0,0.0,0.0,0.0,0.0,0.0,0.0,0.0,0.0,0.0,0.0,0.0,0.0,0.0,0.0,0.0,0.0,0.0,0.0,0.0,0.0,0.0,0.0,0.0,0.0,0.0,0.0,0.0,0.0,0.0,0.0,0.0,0.0,0.0,0.0,0.0,0.0,0.0,0.0,0.0,0.0,0.0,0.0,0.0,0.0,0.0,0.0,0.0,0.0,0.0,0.0,0.0,0.0,0.0,0.0,0.0,0.0,0.0,0.0,0.0,0.0,0.0,0.0,0.0,0.0,0.0,0.0,0.0,0.0,0.0,0.0,0.0,0.0,0.0,0.0,0.0,0.0,0.0,0.0,0.0,0.0,0.0,0.0,0.0,0.0,0.0,0.0,0.0,0.0,0.0,0.0,0.0,0.0,0.0,0.0,0.0,0.0,0.0,0.0,0.0,0.0,0.0,0.0,0.0,0.0,0.0,0.0,0.0,0.0,0.0,0.0,0.0,0.0,0.0,0.0,0.0,0.0,0.0,0.0,0.0,0.0,0.0,0.0,0.0,0.0,0.0,0.0,0.0,0.0,0.0,0.0,0.0,0.0,0.0,0.0,0.0,0.0,0.0,0.0,0.0,0.0,0.0,0.0,0.0,0.0,0.0,0.0,0.0,0.0,0.0,0.0,0.0,0.0,0.0,0.0,0.0,0.0,0.0,0.0,0.0,0.0,0.0,0.0,0.0,0.0,0.0,0.0,0.0,0.0,0.0,0.0,0.0,0.0,0.0,0.0,0.0,0.0,0.0,0.0,0.0,0.0,0.0,0.0,0.0,0.0,0.0,0.0,0.0,0.0,0.0,0.0,0.0,0.0,0.0,0.0,0.0,0.0,0.0,0.0,0.0,0.0,0.0,0.0,0.0,0.0,0.0,0.0,0.0,0.0,0.0,0.0,0.0,0.0,0.0,0.0,0.0,0.0,0.0,0.0,0.0,0.0,0.0,0.0,0.0,0.0,0.0,0.0,0.0,0.0,0.0,0.0,0.0,0.0,0.0,0.0,0.0,0.0,0.0,0.0,0.0,0.0,0.0,0.0,0.0,0.0,0.0,0.0,0.0,0.0,0.0,0.0,0.0,0.0,0.0,0.0,0.0,0.0,0.0,0.0,0.0,0.0,0.0,0.0,0.0,0.0,0.0,0.0,0.0,0.0,0.0,0.0,0.0,0.0,0.0,0.0,0.0,0.0,0.0,0.0,0.0,0.0,0.0,0.0,0.0,0.0,0.0,0.0,0.0,0.0,0.0,0.0,0.0,0.0,0.0,0.0,0.0,0.0,0.0,0.0,0.0,0.0,0.0,0.0,0.0,0.0,0.0,0.0,0.0,0.0,-1.0212,0.0,0.0,0.0,0.0,0.0,0.0,0.0,0.0,0.0,0.0,0.0,0.0,0.0,0.0,0.0,0.0,0.0,0.0,0.0,0.0,0.0,0.0,0.0,0.0,0.0437,0.0073,-0.0292,-0.0642,-0.088,-0.0987,0.0,0.0,0.0,0.0,0.0,-0.2981,-0.3134,-0.3548,-0.422,-0.4124,-0.44,-0.5032,-0.5008,-0.4636,-0.3963,0.0,0.0,0.0,0.0,0.0,0.0,0.0,0.0,0.0,0.0,0.0,0.0,0.0,0.0,0.0,0.0,0.0,0.0,0.0,0.0,0.0,0.0,0.0,0.0,0.0,0.0,0.0,0.0,0.0,0.0,0.0,0.0,0.0,0.0,0.0,0.0,0.0,0.0,0.0,0.0,0.0,0.0,0.0,0.0,0.0,0.0,0.0,0.0,0.0,0.0,0.0,0.0,0.0,0.0,0.0,0.0,0.0,0.0,0.0,0.0,0.0,0.0,0.0,0.0,0.0,0.0,0.0,0.0,0.0,0.0,0.0,-1.0588,0.0,0.0,0.0,0.0,0.0,0.0,0.0,0.0,0.0,0.0,0.0,0.0,0.0,0.0,0.0,0.0,0.0,0.0,0.0,0.0,0.0,0.0779,0.0078,-0.0163,-0.0492,-0.1009,-0.1251,-0.1394,-0.1434,-0.1472,0.0,0.0,0.0,-0.3475,-0.4547,-0.4462,-0.4631,-0.5138,-0.5094,-0.533,-0.5808,-0.6272,-0.5733,-0.4362,-0.4568,0.0,0.0,0.0,0.0,0.0,0.0,0.0,0.0,0.0,0.0,0.0,0.0,0.0,0.0,0.0,0.0,0.0,0.0,0.0,0.0,0.0,0.0,0.0,0.0,0.0,0.0,0.0,0.0,0.0,0.0,0.0,0.0,0.0,0.0,0.0,0.0,0.0,0.0,0.0,0.0,0.0,0.0,0.0,0.0,0.0,0.0,0.0,0.0,0.0,0.0,0.0,0.0,0.0,0.0,0.0,0.0,0.0,0.0,0.0,0.0,0.0,0.0,0.0,-1.6525,-1.6738,-1.9305,-1.9305,-1.7839,-1.5197,-1.2527,-1.1811,-1.2425,-1.1076,0.0,0.0,0.0,0.0,0.0,0.0,0.0,0.0,0.0,0.0,0.0,0.0,0.0,0.0,0.0,0.0,0.0,0.0,0.0,-0.0198,-0.0701,-0.0687,-0.0913,-0.1614,-0.1716,-0.202,-0.2703,-0.2967,0.0,0.0,-0.4208,-0.4556,-0.4844,-0.5048,-0.5462,-0.6105,-0.674,-0.6863,-0.657,-0.7327,-0.744,-0.6966,-0.6091,-0.553,-0.5211,0.0,0.0,0.0,0.0,0.0,0.0,0.0,0.0,0.0,0.0,0.0,0.0,0.0,0.0,0.0,0.0,0.0,0.0,0.0,0.0,0.0,0.0,0.0,0.0,0.0,0.0,0.0,0.0,0.0,0.0,0.0,0.0,0.0,0.0,0.0,0.0,0.0,0.0,0.0,0.0,0.0,-0.8686,-0.9586,0.0,0.0,0.0,0.0,0.0,0.0,0.0,0.0,0.0,0.0,0.0,0.0,0.0,-1.4781,-1.6717,-1.6731,-1.7164,-1.8001,-1.8445,-1.8886,-1.9305,-1.9305,-1.9069,-1.8629,-1.8221,0.0,-1.4157,-1.3937,0.0,0.0,0.0,0.0,0.0,0.0,0.0,0.0,0.0,0.0,0.0,0.0,0.0,0.0,0.0,0.0,0.0,0.0,0.0,0.0,0.0,-0.1689,-0.2142,-0.2502,-0.2801,-0.3099,-0.3366,-0.3606,-0.3967,-0.4487,-0.4946,-0.5468,-0.6018,-0.6031,-0.6329,-0.6911,-0.7424,-0.7656,-0.7609,-0.7968,-0.8056,-0.7922,-0.7464,-0.686,-0.6167,-0.5985,0.0,0.0,0.0,0.0,0.0,0.0,0.0,0.0,0.0,0.0,0.0,0.0,0.0,0.0,0.0,0.0,0.0,0.0,0.0,0.0,0.0,0.0,0.0,0.0,0.0,0.0,0.0,0.0,0.0,0.0,0.0,0.0,0.0,0.0,0.0,0.0,0.0,0.0,0.0,-0.8896,-0.9331,-0.9247,-0.9517,-0.9698,0.0,0.0,0.0,0.0,0.0,0.0,0.0,0.0,0.0,-1.4202,-1.6179,-1.7392,-1.7794,-1.9486,-2.0331,-2.0331,-2.0795,-2.1008,-2.1013,-2.1732,-2.2042,-2.2042,-2.2042,-2.1253,-1.9803,-1.7968,-1.6371,-1.4841,0.0,0.0,0.0,0.0,-1.2067,-1.5474,0.0,0.0,0.0,0.0,0.0,0.0,0.0,0.0,0.0,0.0,0.0,0.0,-0.1878,-0.2589,-0.3121,-0.3292,-0.368,-0.3909,-0.3957,-0.423,-0.4615,-0.512,-0.57,-0.6282,-0.6888,-0.6894,-0.7141,-0.7618,-0.8026,-0.8319,-0.8499,-0.865,-0.8713,-0.8713,-0.8713,-0.8144,-0.7152,-0.7047,-0.6513,0.0,0.0,0.0,0.0,0.0,0.0,0.0,0.0,0.0,0.0,0.0,0.0,0.0,0.0,0.0,0.0,0.0,0.0,0.0,0.0,0.0,0.0,0.0,0.0,0.0,0.0,0.0,0.0,0.0,0.0,0.0,0.0,0.0,0.0,0.0,0.0,0.0,0.0,-1.0176,-1.0367,-0.9978,-1.0402,-1.0458,0.0,0.0,0.0,0.0,0.0,0.0,-1.5551,-1.5483,-1.6448,-1.886,-1.9673,-1.9714,-1.8961,-2.1194,-2.231,-2.231,-2.231,-2.231,-2.2338,-2.3283,-2.3894,-2.419,-2.419,-2.419,-2.4006,-2.1547,-2.0537,-2.0189,-1.6591,-1.4462,-1.3409,-1.3409,-1.6439,-2.0586,0.0,0.0,0.0,0.0,0.0,0.0,0.0,0.0,0.0,0.0,0.0,-0.2016,-0.2917,-0.3123,-0.3379,-0.3822,-0.3887,-0.4119,0.0,0.0,-0.555,-0.583,-0.6671,-0.7055,-0.6894,-0.7451,-0.7894,-0.8261,-0.8776,-0.9039,-0.9075,-0.9579,-0.9818,-0.9818,-0.9818,-0.9292,-0.8381,-0.7989,-0.7596,-0.7125,0.0,0.0,0.0,0.0,0.0,0.0,0.0,0.0,0.0,0.0,0.0,0.0,0.0,0.0,0.0,0.0,0.0,0.0,0.0,0.0,0.0,0.0,0.0,0.0,0.0,0.0,0.0,0.0,0.0,0.0,0.0,0.0,0.0,0.0,0.0,0.0,0.0,0.0,0.0,-1.2707,-1.3173,0.0,0.0,0.0,0.0,-1.3036,-1.3208,-1.4923,-1.8837,-1.815,-1.9009,-2.1989,-2.2129,-2.2129,-2.209,-2.2226,-2.231,-2.231,-2.231,-2.231,-2.231,-2.2366,-2.3067,-2.419,-2.419,-2.419,-2.419,-2.4025,-2.3951,-2.3933,-2.3694,-2.3529,-2.3474,-2.3474,-2.3676,-2.4045,0.0,0.0,0.0,0.1219,0.0653,0.0076,-0.0315,-0.1013,-0.1624,-0.2008,-0.2677,-0.3213,-0.3457,-0.4054,-0.4498,-0.4652,-0.4982,-0.527,-0.5461,-0.5786,-0.5993,-0.6094,-0.6809,-0.7354,-0.7662,-0.8438,-0.8817,-0.8824,-0.9705,-1.0144,-1.0144,-1.0721,-1.0985,-1.0985,-1.0985,-1.0815,-1.0402,-0.9194,-0.8395,-0.7874,-0.721,-0.6722,0.0,0.0,0.0,0.0,0.0,0.0,0.0,0.0,0.0,0.0,0.0,0.0,0.0,0.0,0.0,0.0,0.0,0.0,0.0,0.0,0.0,0.0,0.0,0.0,0.0,0.0,0.0,0.0,0.0,0.0,0.0,0.0,0.0,0.0,0.0,0.0,0.0,-1.6353,-1.6157,0.0,-1.4986,-1.3613,-1.4004,-1.6967,-1.7203,-1.8378,-2.108,-2.09,-2.1194,-2.2276,-2.231,-2.231,-2.231,-2.231,-2.231,-2.231,-2.231,-2.231,-2.231,-2.231,-2.2993,-2.419,-2.419,-2.419,-2.419,-2.419,-2.419,-2.419,-2.419,-2.419,-2.419,-2.419,-2.419,-2.4247,0.2047,0.1557,0.0,0.0783,0.0286,-0.0241,-0.0756,-0.1438,-0.2052,-0.2484,-0.3297,-0.3884,-0.4011,-0.4668,-0.5136,-0.5223,-0.548,-0.5697,-0.5893,-0.6016,-0.613,-0.6189,-0.6984,-0.777,-0.853,-0.9109,-0.9491,-0.9629,-1.0357,-1.0794,-1.1023,-1.1412,-1.1588,-1.1588,-1.1588,-1.1588,-1.1542,-1.0395,-0.9504,-0.8813,-0.8402,-0.7942,-0.7428,0.0,0.0,0.0,0.0,0.0,0.0,0.0,0.0,0.0,0.0,0.0,0.0,0.0,0.0,0.0,0.0,0.0,0.0,0.0,0.0,0.0,0.0,0.0,0.0,0.0,0.0,0.0,0.0,0.0,0.0,0.0,0.0,0.0,0.0,0.0,-1.6251,-1.8075,-1.8248,-1.8158,-1.8018,-1.7009,-1.7452,-2.011,-2.0307,-2.0894,-2.222,-2.231,-2.231,-2.231,-2.231,-2.231,-2.231,-2.231,-2.231,-2.231,-2.231,-2.231,-2.231,-2.231,-2.2993,-2.419,-2.419,-2.419,-2.419,-2.419,-2.419,-2.419,-2.419,-2.419,-2.419,-2.419,-2.419,-2.419,0.1761,0.1267,0.0794,0.0444,0.0056,-0.0421,-0.1011,-0.1251,-0.1808,-0.3044,-0.3524,-0.3994,-0.465,-0.4952,-0.5214,-0.5473,-0.5272,-0.5358,-0.5863,-0.5929,-0.6027,-0.623,-0.7274,-0.8338,-0.9413,-0.9429,-0.9866,-1.0719,-1.0731,-1.106,-1.1613,-1.1625,-1.1638,-1.1638,-1.1638,-1.1638,-1.1638,-1.1638,-1.0998,-0.9981,-0.9918,-0.9278,-0.8286,0.0,0.0,0.0,0.0,0.0,0.0,0.0,0.0,0.0,0.0,0.0,0.0,0.0,0.0,0.0,0.0,0.0,0.0,0.0,0.0,0.0,0.0,0.0,0.0,0.0,0.0,0.0,0.0,0.0,0.0,0.0,0.0,0.0,-1.5136,-1.6465,-1.7784,-1.7785,-1.9356,-1.9923,-1.858,-1.9435,-2.0677,-2.2209,-2.231,-2.231,-2.231,-2.231,-2.231,-2.231,-2.231,-2.231,-2.231,-2.231,-2.231,-2.231,-2.231,-2.231,-2.231,-2.231,-2.2968,-2.4151,-2.417,-2.419,-2.419,-2.419,-2.419,-2.419,-2.419,-2.419,-2.419,-2.419,-2.419,-2.419,0.1761,0.1267,0.0737,0.0197,-0.0264,-0.0715,-0.1181,-0.2054,-0.2847,-0.3286,-0.4148,-0.4781,-0.4972,-0.5233,-0.5416,-0.5492,-0.5741,-0.5957,-0.6112,-0.6295,-0.6691,-0.7322,-0.8257,-0.9136,-0.9964,-1.0212,-1.0676,-1.1349,-1.1751,-1.2027,-1.219,-1.2592,-1.2747,-1.2747,-1.2747,-1.2747,-1.2747,-1.2747,-1.2334,-1.1613,-1.0395,-0.973,-0.9352,0.0,0.0,0.0,0.0,0.0,0.0,0.0,0.0,0.0,0.0,0.0,0.0,0.0,0.0,0.0,0.0,0.0,0.0,0.0,0.0,0.0,0.0,0.0,0.0,0.0,0.0,0.0,0.0,0.0,0.0,0.0,0.0,-2.064,-1.9271,-1.9272,-1.9484,-1.9647,-2.0564,-2.0766,-1.9679,-2.084,-2.1854,-2.2276,-2.231,-2.231,-2.231,-2.231,-2.231,-2.231,-2.231,-2.231,-2.231,-2.231,-2.231,-2.231,-2.231,-2.231,-2.231,-2.231,-2.2497,-2.2867,-2.3792,-2.419,-2.419,-2.419,-2.419,-2.419,-2.419,-2.419,-2.419,-2.419,-2.419,-2.419,0.1478,0.1112,0.0693,0.0033,-0.0472,-0.0922,-0.132,-0.2363,-0.3234,-0.3565,-0.438,-0.4971,-0.5088,-0.5233,-0.5425,-0.5652,-0.5704,-0.5914,-0.6336,-0.6728,-0.7364,-0.8301,-0.9044,-0.9755,-1.0404,-1.0853,-1.1362,-1.1939,-1.2253,-1.2529,-1.2735,-1.3048,-1.3198,-1.3198,-1.3198,-1.3198,-1.3198,-1.3198,-1.3023,-1.2622,-1.1437,-1.0809,-1.0485,-0.9316,-0.8746,-0.8547,-0.8057,-0.7901,-0.7985,-0.8123,0.0,0.0,0.0,0.0,0.0,0.0,0.0,0.0,0.0,0.0,0.0,0.0,0.0,0.0,0.0,0.0,0.0,0.0,0.0,0.0,0.0,0.0,0.0,0.0,-2.2136,-2.1874,-2.1479,-2.1119,-2.0888,-2.0852,-2.1438,-2.1617,-2.1025,-2.1786,-2.231,-2.231,-2.231,-2.231,-2.231,-2.231,-2.231,-2.231,-2.231,-2.231,-2.231,-2.231,-2.231,-2.231,-2.231,-2.231,-2.231,-2.231,-2.297,-2.4228,-2.5625,-2.5829,-2.5223,-2.5447,-2.5419,0.0,0.0,0.0,0.0,0.0,-2.4795,-2.4777,0.1106,0.0915,0.0638,-0.0122,-0.0619,-0.1041,-0.1484,-0.239,-0.3258,-0.3823,-0.4389,-0.4834,-0.5069,-0.5108,-0.53,-0.5771,-0.5396,-0.5558,-0.6516,-0.7125,-0.7935,-0.898,-0.9642,-1.0218,-1.0712,-1.1357,-1.1921,-1.2406,-1.2472,-1.2722,-1.3198,-1.3198,-1.3198,-1.3198,-1.3198,-1.3198,-1.3198,-1.3198,-1.3198,-1.316,-1.2672,-1.2178,-1.1563,-1.0495,-1.0006,-0.9818,-0.9165,-0.8738,-0.8524,-0.8826,0.0,0.0,0.0,0.0,0.0,0.0,0.0,0.0,0.0,0.0,0.0,0.0,0.0,0.0,0.0,0.0,0.0,0.0,0.0,0.0,0.0,0.0,0.0,0.0,-2.2338,-2.2349,-2.231,-2.2175,-2.1949,-2.1625,-2.199,-2.231,-2.231,-2.231,-2.231,-2.231,-2.231,-2.231,-2.231,0.0,0.0,0.0,0.0,-2.231,-2.231,-2.231,-2.231,-2.231,-2.231,-2.231,-2.2327,-2.2649,-2.4313,-2.7034,-2.8216,-2.7949,-2.6716,-2.7155,-2.7034,-2.6465,-2.5034,-2.4465,-2.4593,-2.5548,-2.5731,-2.5715,0.1315,0.0958,0.0459,-0.045,-0.077,-0.1106,-0.173,-0.2671,-0.3467,-0.3853,-0.4557,-0.5049,-0.5088,-0.5108,-0.5146,-0.5243,-0.5368,-0.5736,0.0,0.0,-0.8043,-0.8585,-0.9861,-1.0611,-1.0779,-1.1752,-1.232,-1.2459,-1.2864,-1.3098,-1.3198,-1.3198,-1.3198,-1.3198,-1.3198,-1.3198,-1.3198,-1.3198,-1.3198,-1.3185,-1.3085,-1.271,-1.2178,-1.1512,-1.0696,-0.988,-0.9742,-0.9654,-0.9604,-0.9667,-0.976,-0.9832,-0.9692,0.0,0.0,0.0,0.0,0.0,0.0,0.0,0.0,0.0,0.0,0.0,0.0,0.0,0.0,0.0,0.0,0.0,0.0,0.0,0.0,-2.1921,-2.2571,-2.266,-2.2349,-2.2443,-2.2453,-2.2167,-2.2237,-2.231,-2.231,-2.231,-2.231,-2.231,-2.231,-2.231,-2.231,-2.231,-2.231,-2.231,-2.231,-2.231,-2.231,-2.231,-2.231,-2.231,0.0,0.0,-2.2395,-2.4763,-2.6835,-2.8504,-2.7493,-2.7145,-2.7214,-2.6881,-2.6704,-2.6576,-2.6264,-2.6135,-2.6172,-2.6374,-2.641,-2.641,0.1193,0.0886,0.0439,-0.0408,-0.0853,-0.124,-0.1632,-0.2804,-0.3687,-0.3779,-0.4557,-0.5108,-0.5108,-0.5108,-0.5146,-0.5291,-0.5539,0.0,0.0,-0.727,-0.7911,-0.861,-0.9821,-1.0532,-1.0539,-1.1566,-1.2235,-1.2508,-1.272,-1.2978,-1.3198,-1.3198,-1.3198,-1.321,-1.3521,-1.3647,-1.3647,-1.3647,-1.3647,-1.3609,-1.3311,-1.3035,-1.276,-1.2484,-1.2065,-1.1533,-1.1533,-1.0847,-0.9943,-1.0219,-1.0275,-1.0203,-0.9966,-0.979,-0.9552,0.0,0.0,0.0,0.0,0.0,0.0,0.0,0.0,0.0,0.0,0.0,0.0,0.0,0.0,-1.588,-1.5645,0.0,-2.023,-2.2023,-2.247,-2.2535,-2.2338,-2.2426,-2.2436,-2.231,-2.231,-2.231,-2.231,-2.231,-2.231,-2.231,-2.231,-2.2953,-2.4425,-2.3799,-2.3393,-2.3393,-2.412,-2.4509,-2.4509,-2.4509,-2.4509,-2.4509,-2.4509,-2.4509,-2.456,-2.6031,-2.7129,-2.7826,-2.7285,-2.729,-2.7644,-2.7762,-2.7805,-2.7805,-2.7805,-2.731,-2.6649,-2.7053,-2.72,-2.7255,0.0925,0.0718,0.0419,-0.0278,-0.0882,-0.132,-0.1475,-0.2775,-0.3722,-0.3696,-0.4445,-0.502,-0.5098,-0.5108,-0.5185,0.0,0.0,0.0,0.0,-0.7095,-0.7689,-0.8673,-0.9738,-1.0263,-1.0167,-1.1235,-1.1993,-1.2354,-1.2473,-1.272,-1.3198,-1.3094,-1.3129,-1.3223,-1.3613,-1.3912,-1.4072,-1.3972,-1.3984,-1.4035,-1.3446,-1.3198,-1.3198,-1.3198,-1.3198,-1.3173,-1.2947,-1.1751,-1.0257,-1.0456,-1.0651,-1.0729,-1.0244,-1.0378,-1.053,-0.9561,-0.9688,0.0,0.0,0.0,0.0,0.0,0.0,0.0,0.0,0.0,-1.6601,-1.6681,-1.716,-1.8053,-1.9608,-1.9894,-2.0399,-2.204,-2.231,-2.231,-2.231,-2.231,-2.231,-2.231,-2.231,-2.231,-2.231,-2.231,-2.2429,-2.2716,-2.2733,-2.3765,-2.615,-2.5406,-2.4946,-2.4946,-2.6065,-2.6691,-2.6691,-2.6691,-2.6691,-2.6691,-2.6691,-2.6691,-2.6691,-2.6691,-2.6758,-2.6873,-2.7439,-2.7794,-2.8047,-2.8725,-2.8994,-2.8994,-2.8994,-2.8227,-2.7145,-2.7787,-2.8026,-2.8136,0.0621,0.0446,0.0256,-0.0301,-0.0799,-0.1208,-0.1464,-0.2415,-0.3254,-0.3644,-0.4196,-0.4699,-0.5069,-0.5108,-0.5108,-0.5146,0.0,0.0,-0.6405,-0.6834,-0.7425,-0.8322,-0.9596,-1.0102,-0.9688,-1.1058,-1.1811,-1.1884,-1.2294,-1.272,-1.3198,-1.2756,-1.2803,-1.3163,-1.2816,-1.3215,-1.4047,-1.3534,-1.3609,-1.4035,-1.3446,-1.3198,-1.3198,-1.3198,-1.3198,-1.3073,-1.2128,-1.1613,-1.1261,-1.0307,-1.0199,-1.0494,-1.0719,-1.063,-1.0459,-1.0574,0.0,-1.0121,-1.097,-1.2065,-1.3307,-1.4678,-1.4952,-1.5626,0.0,0.0,-1.7997,-1.929,-2.0171,-2.0696,-2.0688,-2.139,-2.204,-2.2276,-2.231,-2.231,-2.231,-2.231,-2.231,-2.231,-2.231,-2.231,-2.231,-2.231,-2.2852,-2.4167,-2.4239,-2.4421,-2.4743,-2.5812,-2.6437,-2.6437,-2.6607,-2.6691,-2.6691,-2.6691,-2.6691,-2.6691,-2.6691,-2.6691,-2.6691,-2.6691,-2.6971,-2.7439,-2.8057,-2.8316,-2.8394,-2.8815,-2.8994,-2.8994,-2.8994,-2.8883,-2.8737,-2.881,-2.8888,-2.8865,0.0723,0.0479,0.0256,-0.02,-0.0734,-0.117,-0.1351,-0.2301,-0.3147,-0.3532,-0.4126,-0.4641,-0.5069,-0.5233,-0.5272,-0.5108,-0.5253,-0.5643,-0.6348,-0.6561,-0.7037,-0.7917,-0.8983,-0.9455,-0.9265,-1.0339,-1.1067,-1.1319,-1.1542,-1.2018,-1.2791,-1.2579,-1.2756,-1.321,-1.3369,-1.3678,-1.4072,-1.3846,-1.3871,-1.4035,-1.3446,-1.306,-1.2791,-1.2791,-1.2943,-1.3135,-1.2685,-1.1713,0.0,0.0,-1.0612,-1.0715,-1.0849,-1.1039,-1.1158,-1.0877,-1.155,0.0,-1.4341,0.0,0.0,0.0,-1.7642,-1.8572,-1.9215,-1.957,-1.9942,-2.0568,-2.1312,-2.1803,-2.1701,-2.2023,-2.231,0.0,-2.231,-2.231,-2.231,-2.231,-2.2209,-2.1928,-2.2135,-2.231,-2.231,-2.231,-2.2919,-2.4404,-2.4269,-2.4608,-2.571,-2.5964,-2.6251,-2.6674,-2.6691,-2.6691,-2.6691,-2.6691,-2.6691,-2.6691,-2.6691,-2.6691,-2.6691,-2.6691,-2.6808,-2.7051,-2.7542,-2.7776,-2.7805,-2.8183,-2.8378,-2.8378,-2.8565,-2.8658,-2.8682,-2.8929,-2.8994,-2.8994,0.0819,0.0535,0.0256,-0.0178,-0.0658,-0.1063,-0.1269,-0.2057,-0.2847,-0.3434,-0.3958,-0.448,-0.503,-0.533,-0.5387,-0.5127,-0.5349,-0.5705,-0.6205,-0.6348,-0.6748,-0.7491,-0.8379,-0.8887,-0.9004,-0.9727,-1.0414,-1.1019,-1.1019,-1.1457,-1.2282,-1.2174,-1.2354,-1.2815,-1.3119,-1.3398,-1.3692,-1.3545,-1.3558,-1.3656,-1.32,-1.272,-1.2306,-1.2307,-1.2518,-1.2789,-1.278,-1.1349,0.0,0.0,-1.0465,-1.0568,-1.0731,-1.1195,-1.1666,-1.1627,-1.3107,-1.5084,-1.6435,0.0,0.0,-1.8481,-1.9807,-2.0967,-2.0044,-2.0703,-2.1498,-2.1498,-2.1921,-2.231,-2.231,-2.231,0.0,-2.231,-2.231,-2.2225,-2.1991,-2.202,-2.1869,-2.1368,-2.1811,-2.2106,-2.2106,-2.2209,-2.2919,-2.4404,-2.4201,-2.478,-2.659,-2.6184,-2.615,-2.6674,-2.6691,-2.6691,-2.6691,-2.6691,-2.6691,-2.6691,-2.6691,-2.6691,-2.6691,-2.6691,-2.6691,-2.6725,-2.7115,-2.7303,-2.7317,-2.7736,-2.7897,-2.7926,-2.8156,-2.8316,-2.842,-2.8608,-2.8834,-2.8994,0.0802,0.0542,0.0233,-0.0301,-0.0575,-0.0849,-0.1236,-0.1545,-0.2163,-0.3346,-0.3625,-0.4081,-0.5001,-0.533,-0.5387,-0.5127,-0.5349,-0.5592,-0.5815,-0.6182,-0.6621,-0.71,-0.7939,-0.8594,-0.8994,-0.9388,-1.0066,-1.1019,-1.1019,-1.1282,-1.1811,-1.1282,-1.1319,-1.1811,-1.133,-1.1665,-1.2596,-1.2073,-1.2189,-1.2623,-1.2565,-1.2246,-1.1827,-1.1824,-1.1838,-1.1832,-1.1687,0.0,0.0,0.0,-0.9269,-0.9738,-1.0243,-1.0836,0.0,-1.3233,-1.4912,0.0,0.0,0.0,-1.8667,-1.9673,-2.0568,-2.139,-2.204,-2.2243,-2.2276,-2.2276,-2.2293,-2.231,-2.231,-2.231,-2.231,-2.231,-2.231,-2.202,-2.1166,-2.1244,-2.1213,-2.0681,-2.1213,-2.1612,0.0,-2.2032,-2.2919,-2.4404,-2.4506,-2.515,-2.6607,-2.6674,-2.6674,-2.6691,-2.6691,-2.6691,-2.6691,-2.6691,-2.6691,-2.6691,-2.6691,-2.6691,-2.6691,-2.6691,-2.6691,-2.6725,-2.7115,-2.7303,-2.7317,-2.7736,-2.7897,-2.7897,-2.7926,-2.8102,-2.835,-2.8047,-2.8404,-2.8994,0.0925,0.0599,0.029,-0.0067,-0.0333,-0.0621,-0.0984,-0.141,-0.2021,-0.2923,-0.3818,0.0,0.0,0.0,0.0,0.0,-0.5509,-0.5767,-0.5795,-0.6096,-0.6518,-0.707,-0.7646,-0.8154,-0.8574,-0.9004,-0.9357,-0.9672,-0.9953,-1.035,-1.0866,-1.0946,-1.1282,-1.1774,-1.1627,-1.1715,-1.2047,-1.1889,-1.1912,-1.205,-1.1696,-1.1281,-1.0916,-1.1228,-1.0519,-0.9462,0.0,0.0,0.0,0.0,-0.9008,-1.0129,-1.0122,0.0,0.0,-1.3904,0.0,0.0,0.0,0.0,-1.9544,-2.0169,-2.0693,-2.1212,-2.1715,-2.1645,-2.1507,-2.1764,-2.184,-2.1928,-2.2237,-2.231,-2.231,-2.231,-2.1811,-2.1385,-2.1275,-2.1535,-2.1392,-2.0509,-2.1259,0.0,0.0,0.0,0.0,-2.4404,-2.4506,-2.5023,-2.6179,-2.6227,-2.6227,-2.6227,-2.6227,-2.6401,-2.6691,-2.6691,-2.6691,-2.6691,-2.6691,-2.6691,-2.6691,-2.6691,-2.6962,-2.7435,-2.7556,-2.7913,-2.8442,-2.8562,-2.863,-2.8646,-2.8876,-2.9033,-2.9158,-2.9299,-2.9218,-2.8954,0.1038,0.0764,0.0455,0.0067,-0.0145,0.0,0.0,0.0,0.0,0.0,0.0,0.0,0.0,0.0,0.0,0.0,0.0,-0.5704,-0.5548,-0.5875,-0.6227,-0.6626,-0.7031,-0.7461,-0.791,-0.8184,-0.8477,-0.8779,-0.9053,-0.9432,-0.9897,-1.0149,-1.0464,-1.0787,-1.0787,-1.0787,-1.0787,-1.0787,-1.0787,-1.0791,-1.0509,-1.0112,-0.9721,-0.9958,-0.9544,0.0,0.0,0.0,0.0,-0.7548,0.0,0.0,0.0,0.0,0.0,0.0,0.0,-1.7057,0.0,-1.9155,-1.9877,-2.0529,-2.0842,-2.1055,-2.1337,-2.1181,-2.1022,-2.1012,-2.1024,-2.1049,-2.1109,-2.1116,-2.1244,-2.1642,-2.1313,-2.1151,-2.1552,-2.1872,-2.1724,-2.0901,-2.1553,-2.1996,0.0,0.0,0.0,-2.4265,-2.4348,-2.4761,-2.5677,-2.5726,-2.5726,-2.5726,-2.5726,-2.5961,-2.6436,-2.6436,-2.669,-2.7097,-2.7097,-2.7249,-2.7503,-2.7503,-2.7774,-2.823,-2.823,-2.8518,-2.9011,-2.9011,-2.9011,-2.9011,-2.9246,-2.9403,-2.9522,-2.964,-2.9473,-2.9119,0.1151,0.0995,0.0718,0.0,0.0,0.0,0.0,0.0,0.0,0.0,0.0,0.0,0.0,0.0,0.0,0.0,0.0,0.0,-0.5108,-0.5538,0.0,-0.5803,-0.6162,-0.6592,-0.7051,-0.707,-0.7461,-0.8313,-0.8332,-0.8516,-0.8906,-0.8926,-0.8945,-0.8945,-0.8945,-0.8945,-0.8945,-0.8945,-0.8945,-0.894,-0.8963,-0.8726,-0.8316,-0.8219,0.0,0.0,0.0,0.0,0.0,0.0,0.0,0.0,0.0,0.0,0.0,0.0,0.0,-1.7975,-1.9086,-1.9384,-1.9653,-2.0703,-2.0959,-2.0926,-2.0959,-2.0943,-2.0719,-2.0047,-1.9901,-1.9675,0.0,0.0,-1.9346,-2.0332,-2.0758,-2.1214,-2.1883,-2.2123,-2.2141,0.0,0.0,0.0,0.0,0.0,0.0,-2.401,0.0,-2.4425,-2.5134,-2.5144,-2.5144,-2.5144,-2.5144,-2.5411,-2.5961,-2.601,-2.6643,-2.7754,-2.7823,-2.8264,-2.9011,-2.9011,-2.9045,-2.9042,-2.9042,-2.9059,-2.9093,-2.9093,-2.9093,-2.9093,-2.9093,-2.9295,-2.9558,-2.924,-2.9296,-2.9487,0.0,0.0,0.0,0.0,0.0,0.0,0.0,0.0,0.0,0.0,0.0,0.0,0.0,0.0,0.0,0.0,0.0,0.0,0.0,0.0,0.0,0.0,0.0,0.0,-0.6572,-0.6582,0.0,0.0,0.0,-0.748,-0.7588,-0.79,-0.8026,-0.8026,-0.8026,-0.8026,-0.8026,-0.8026,-0.8026,-0.8018,0.0,-0.7534,-0.7476,0.0,0.0,0.0,0.0,0.0,0.0,0.0,0.0,0.0,0.0,0.0,-1.6458,0.0,0.0,-1.8527,-1.8793,-1.922,-1.9767,-2.0351,-2.0261,-2.0104,-2.0416,-1.9875,-1.9219,-1.8889,-1.8416,-1.7963,-1.7597,0.0,0.0,-1.9362,-2.0004,0.0,-2.137,-2.1712,0.0,0.0,0.0,-2.2617,-2.2617,-2.2722,0.0,0.0,-2.3951,-2.4236,-2.4601,-2.4576,-2.4576,-2.4576,-2.4576,-2.4871,-2.5411,-2.6356,-2.6958,-2.7304,-2.8255,-2.8789,-2.9011,-2.9011,-2.9296,-2.982,-2.982,-3.0125,-3.0632,-3.0632,-3.0632,-3.0632,-3.0632,-3.0692,-3.0751,-3.0654,-3.0353,-2.9938,0.0,0.0,0.0,0.0,0.0,0.0,0.0,0.0,0.0,0.0,0.0,0.0,0.0,0.0,0.0,0.0,0.0,0.0,0.0,0.0,0.0,0.0,0.0,-0.5478,-0.5818,-0.5707,0.0,0.0,0.0,0.0,0.0,-0.7014,-0.7121,-0.7121,-0.7121,-0.7121,-0.7121,-0.7121,0.0,0.0,0.0,0.0,0.0,0.0,0.0,0.0,0.0,0.0,0.0,0.0,0.0,-1.4261,-1.5294,-1.6323,-1.7204,-1.7488,0.0,-1.8762,-1.9061,-1.9405,-1.9747,-1.9965,-1.9874,-1.9596,-1.922,-1.8676,-1.799,-1.7013,-1.6519,0.0,0.0,0.0,0.0,0.0,0.0,0.0,-2.1589,-2.1979,-2.2233,0.0,-2.2862,0.0,-2.3071,-2.3071,-2.3236,0.0,-2.3764,-2.3921,-2.4059,-2.4032,-2.417,-2.449,-2.449,-2.4883,-2.5705,-2.6687,-2.7299,-2.7631,-2.8375,-2.8857,-2.9187,-2.9187,-2.954,-3.0195,0.0,-3.0589,-3.119,-3.119,-3.119,-3.119,-3.119,-3.119,-3.119,-3.119,-3.0937,-3.0548,0.0,0.0,0.0,0.0,0.0,0.0,0.0,0.0,0.0,0.0,0.0,0.0,0.0,0.0,0.0,0.0,0.0,0.0,0.0,0.0,0.0,0.0,0.0,0.0,0.0,0.0,0.0,0.0,0.0,0.0,0.0,0.0,0.0,0.0,0.0,0.0,0.0,0.0,0.0,0.0,0.0,0.0,0.0,0.0,0.0,0.0,0.0,0.0,0.0,0.0,-1.4558,-1.5396,-1.6592,-1.7428,-1.8089,-1.8672,-1.8837,-1.8957,-1.9525,-1.969,-1.969,-1.969,-1.969,-1.9346,-1.8029,-1.7563,-1.6907,-1.4932,0.0,0.0,-1.354,0.0,-1.6017,-1.7016,0.0,-2.018,-2.1964,-2.244,-2.2802,-2.352,-2.3595,-2.3595,-2.3595,-2.3595,-2.364,-2.3729,-2.3729,-2.3729,-2.3729,-2.3819,-2.4148,-2.4686,-2.4716,-2.5244,-2.6287,-2.6938,-2.7572,-2.822,-2.8359,-2.877,-2.9406,-2.9406,-2.9673,-3.0166,-3.0166,-3.0477,-3.0975,-3.0975,-3.0975,-3.0975,-3.1055,-3.1095,-3.1095,-3.119,-3.119,-3.1106,0.0,0.0,0.0,0.0,0.0,0.0,0.0,0.0,0.0,0.0,0.0,0.0,0.0,0.0,0.0,0.0,0.0,0.0,0.0,0.0,0.0,0.0,0.0,0.0,0.0,0.0,0.0,0.0,0.0,0.0,0.0,0.0,0.0,0.0,0.0,0.0,0.0,0.0,0.0,0.0,0.0,0.0,0.0,0.0,0.0,0.0,0.0,0.0,0.0,0.0,-1.6219,-1.7324,-1.8119,-1.8807,-1.9375,-1.948,-1.951,-1.954,-1.966,-1.969,-1.969,-1.969,-1.969,-1.9346,-1.8029,-1.6892,0.0,0.0,0.0,-1.2119,-1.144,-1.3316,0.0,-1.5958,0.0,0.0,0.0,0.0,-2.2293,0.0,0.0,0.0,0.0,0.0,0.0,0.0,0.0,-2.4448,-2.4448,-2.4956,-2.5315,-2.5435,-2.5435,-2.5541,-2.574,-2.6887,-2.7515,-2.764,-2.8719,-2.9294,-2.9406,-2.9406,-2.9451,-2.954,-2.954,0.0,-2.9717,-2.9717,-2.9717,-2.9761,-3.0251,-3.0477,-3.0518,-3.1015,-3.119,-3.1173,0.0,0.0,0.0,0.0,0.0,0.0,0.0,0.0,0.0,0.0,0.0,0.0,0.0,0.0,0.0,0.0,0.0,0.0,0.0,0.0,0.0,0.0,0.0,0.0,0.0,0.0,0.0,0.0,0.0,0.0,0.0,0.0,0.0,0.0,0.0,0.0,0.0,0.0,0.0,0.0,0.0,0.0,0.0,0.0,0.0,0.0,0.0,0.0,0.0,0.0,-1.5037,-1.6997,-1.8687,-1.9435,-1.969,-1.969,-1.969,-1.969,-1.969,-1.969,-1.969,-1.969,-1.9435,-1.8747,-1.7086,0.0,0.0,0.0,0.0,-1.0817,-1.0798,0.0,0.0,0.0,0.0,0.0,0.0,0.0,0.0,0.0,0.0,0.0,0.0,0.0,0.0,0.0,0.0,-2.5495,-2.5151,-2.5764,-2.6123,-2.6123,-2.6452,-2.6632,-2.6632,-2.7258,-2.754,-2.754,-2.815,-2.8448,-2.8448,-2.8448,-2.8622,-2.8919,-2.8919,0.0,-2.9406,-2.9406,-2.9406,-2.9406,-2.9717,-2.9805,-2.9865,-3.0166,-3.0477,-3.074,0.0,0.0,0.0,0.0,0.0,0.0,0.0,0.0,0.0,0.0,0.0,0.0,0.0,0.0,0.0,0.0,0.0,0.0,0.0,0.0,0.0,0.0,0.0,0.0,0.0,0.0,0.0,0.0,0.0,0.0,0.0,0.0,0.0,0.0,0.0,0.0,0.0,0.0,0.0,0.0,0.0,0.0,0.0,0.0,0.0,0.0,0.0,0.0,0.0,0.0,-1.3139,-1.5253,-1.79,-1.9101,-1.948,-1.948,-1.957,-1.969,-1.969,-1.969,-1.969,-1.969,-1.9196,-1.8194,-1.6248,-1.4633,0.0,0.0,0.0,-0.9875,-1.0484,0.0,0.0,0.0,0.0,0.0,0.0,0.0,0.0,0.0,0.0,0.0,0.0,0.0,0.0,0.0,0.0,0.0,-2.6063,-2.6512,-2.6797,-2.6797,-2.7355,-2.7625,-2.7625,-2.7625,-2.7625,-2.7625,-2.7625,-2.7625,-2.7625,-2.7625,-2.786,-2.8334,-2.8334,0.0,0.0,-2.8996,-2.8996,-2.9042,-2.9134,-2.9225,-2.9225,-2.9361,-2.9717,-3.0123,0.0,0.0,0.0,0.0,0.0,0.0,0.0,0.0,0.0,0.0,0.0,0.0,0.0,0.0,0.0,0.0,0.0,0.0,0.0,0.0,0.0,0.0,0.0,0.0,0.0,0.0,0.0,0.0,0.0,0.0,0.0,0.0,0.0,0.0,0.0,0.0,0.0,0.0,0.0,0.0,0.0,0.0,0.0,0.0,0.0,0.0,0.0,0.0,0.0,0.0,0.0,-1.1939,-1.479,-1.7149,-1.8792,-1.8792,0.0,0.0,-1.969,-1.969,-1.969,-1.969,-1.9196,-1.8194,-1.6248,0.0,0.0,0.0,-0.9458,-0.9188,-0.986,-1.1027,0.0,0.0,0.0,0.0,0.0,0.0,0.0,0.0,0.0,0.0,0.0,0.0,0.0,0.0,0.0,0.0,-2.7395,-2.744,-2.7535,-2.7535,-2.7595,-2.7625,-2.7625,-2.7625,-2.7625,-2.7625,-2.7625,-2.7625,-2.7625,-2.7625,-2.7625,-2.766,-2.766,0.0,0.0,-2.776,-2.776,-2.781,-2.8367,-2.8606,-2.8654,-2.918,-2.9451,-2.954,0.0,0.0,0.0,0.0,0.0,0.0,0.0,0.0,0.0,0.0,0.0,0.0,0.0,0.0,0.0,0.0,0.0,0.0,0.0,0.0,0.0,0.0,0.0,0.0,0.0,0.0,0.0,0.0,0.0,0.0,0.0,0.0,0.0,0.0,0.0,0.0,0.0,0.0,0.0,0.0,0.0,0.0,0.0,0.0,0.0,0.0,0.0,0.0,0.0,0.0,0.0,0.0,-1.139,-1.3303,0.0,0.0,-1.8583,-1.9181,-1.957,-1.969,-1.969,-1.969,-1.8897,-1.77,-1.6158,0.0,0.0,-1.0683,-0.9623,-0.9203,-1.0249,-1.0862,-1.1865,0.0,-1.4606,-1.5636,0.0,0.0,0.0,0.0,0.0,0.0,0.0,0.0,0.0,0.0,0.0,0.0,-2.7625,-2.7625,-2.7625,-2.7625,-2.7625,-2.7625,-2.7625,-2.7625,-2.7625,-2.7625,-2.7625,-2.7625,-2.7625,-2.7625,-2.7625,-2.7625,-2.7625,0.0,0.0,-2.7625,-2.7625,-2.7625,-2.786,-2.7944,-2.7993,-2.8222,-2.8543,-2.8873,0.0,0.0,0.0,0.0,0.0,0.0,0.0,0.0,0.0,0.0,0.0,0.0,0.0,0.0,0.0,0.0,0.0,0.0,0.0,0.0,0.0,0.0,0.0,0.0,0.0,0.0,0.0,0.0,0.0,0.0,0.0,0.0,0.0,0.0,0.0,0.0,0.0,0.0,0.0,0.0,0.0,0.0,0.0,0.0,0.0,0.0,0.0,0.0,0.0,0.0,0.0,0.0,0.0,0.0,0.0,0.0,-1.7466,-1.8465,-1.9211,-1.9417,-1.9442,-1.9442,-1.8466,-1.7131,0.0,0.0,-1.185,-1.0977,-0.9935,-0.9533,-1.0588,-1.0798,-1.138,-1.3211,-1.384,-1.4722,-1.6458,0.0,0.0,0.0,0.0,0.0,0.0,0.0,0.0,0.0,0.0,0.0,-2.7625,-2.7625,-2.7625,-2.7625,-2.7625,-2.7625,-2.7625,-2.7625,-2.7625,-2.7625,-2.7625,-2.7625,-2.7625,-2.7625,-2.7625,-2.7625,-2.7625,0.0,0.0,-2.7625,-2.7625,-2.7625,-2.7625,-2.7625,-2.7625,-2.7625,-2.786,-2.8286,0.0,0.0,0.0,0.0,0.0,0.0,0.0,0.0,0.0,0.0,0.0,0.0,0.0,0.0,0.0,0.0,0.0,0.0,0.0,0.0,0.0,0.0,0.0,0.0,0.0,0.0,0.0,0.0,0.0,0.0,0.0,0.0,0.0,0.0,0.0,0.0,0.0,0.0,0.0,0.0,0.0,0.0,0.0,0.0,0.0,0.0,0.0,0.0,0.0,0.0,0.0,0.0,0.0,0.0,0.0,0.0,-1.5842,-1.7529,-1.847,-1.8796,-1.8893,-1.8893,-1.7906,-1.6575,0.0,-1.3867,-1.2426,-1.1066,-1.0324,-1.0084,-1.0678,-1.0798,-1.1231,-1.2591,-1.3914,-1.5246,-1.6532,0.0,0.0,0.0,0.0,0.0,0.0,0.0,0.0,0.0,0.0,0.0,-2.7625,-2.7625,-2.7625,-2.7625,-2.7625,-2.7625,-2.7625,-2.7625,-2.7625,-2.7625,-2.7625,-2.7625,-2.7625,-2.7625,-2.7625,-2.7625,0.0,0.0,0.0,-2.7625,-2.7625,-2.7625,-2.7625,-2.7625,-2.7625,-2.7625,-2.761,-2.771,0.0,0.0,0.0,0.0,0.0,0.0,0.0,0.0,0.0,0.0,0.0,0.0,0.0,0.0,0.0,0.0,0.0,0.0,0.0,0.0,0.0,0.0,0.0,0.0,0.0,0.0,0.0,-0.4313,0.0,0.0,0.0,0.0,0.0,0.0,0.0,0.0,0.0,0.0,0.0,0.0,0.0,0.0,0.0,0.0,0.0,0.0,0.0,0.0,0.0,0.0,0.0,0.0,0.0,0.0,0.0,-1.0159,-1.2917,0.0,-1.5918,-1.6554,-1.6963,-1.6265,-1.5428,-1.4621,-1.3983,-1.2787,-1.1725,-1.1523,-1.0982,-1.0708,-1.1371,-1.1491,-1.2074,-1.3855,-1.4214,0.0,0.0,0.0,0.0,0.0,0.0,0.0,0.0,0.0,0.0,0.0,0.0,0.0,-2.7575,-2.7625,-2.7625,-2.7625,-2.7625,-2.7625,-2.7625,-2.7625,-2.7625,-2.7625,-2.7625,-2.7625,-2.7625,-2.7625,-2.7625,0.0,0.0,0.0,0.0,-2.7625,-2.7625,-2.7625,-2.7625,-2.7625,-2.7625,-2.7625,-2.7625,-2.7625,0.0,0.0,0.0,0.0,0.0,0.0,0.0,0.0,0.0,0.0,0.0,0.0,0.0,0.0,0.0,0.0,0.0,0.0,0.0,0.0,0.0,0.0,0.0,0.0,0.0,-0.4142,-0.4386,-0.4606,-0.4666,-0.4785,0.0,0.0,0.0,0.0,0.0,0.0,0.0,0.0,0.0,0.0,0.0,0.0,-0.6161,0.0,0.0,0.0,0.0,0.0,0.0,0.0,0.0,0.0,0.0,0.0,0.0,0.0,-1.0264,-1.265,0.0,-1.4774,-1.5262,-1.4648,-1.4001,-1.3395,-1.29,-1.2136,-1.1504,-1.1458,-1.1205,-1.1087,-1.1409,-1.1637,-1.2193,-1.3446,-1.3653,0.0,0.0,0.0,0.0,0.0,0.0,0.0,0.0,0.0,0.0,0.0,0.0,0.0,-2.7152,-2.7188,-2.7306,-2.7575,-2.7625,-2.7625,-2.7625,-2.7625,-2.7625,-2.7625,-2.7625,-2.7625,-2.7625,-2.7625,-2.7625,0.0,0.0,0.0,0.0,-2.7625,-2.7625,-2.7625,-2.7625,-2.7625,-2.7625,-2.7625,-2.7625,-2.7625,0.0,0.0,0.0,0.0,0.0,0.0,0.0,0.0,0.0,0.0,0.0,0.0,0.0,0.0,0.0,0.0,0.0,0.0,0.0,0.0,0.0,0.0,0.0,0.0,0.0,-0.4587,-0.4587,-0.5069,-0.4881,-0.4771,-0.4731,-0.5047,0.0,0.0,0.0,0.0,0.0,0.0,0.0,0.0,0.0,-0.5882,0.0,0.0,0.0,0.0,0.0,0.0,0.0,0.0,0.0,0.0,0.0,0.0,0.0,0.0,0.0,0.0,0.0,-1.3142,-1.368,-1.3595,-1.3138,-1.2509,-1.1895,-1.1723,0.0,-1.0938,-1.1047,-1.1167,-1.1041,-1.1448,-1.1826,-1.1932,0.0,0.0,0.0,0.0,0.0,0.0,0.0,0.0,0.0,0.0,0.0,0.0,0.0,0.0,-2.6404,-2.6404,-2.6721,-2.7408,-2.7458,-2.7509,-2.7625,-2.7625,-2.7625,-2.7625,-2.7625,-2.7625,-2.7625,-2.7625,-2.7625,0.0,0.0,0.0,-2.7625,-2.7625,-2.7625,-2.7625,-2.7625,-2.7625,-2.7625,-2.7625,-2.7625,-2.7625,0.0,0.0,0.0,0.0,0.0,0.0,0.0,0.0,0.0,0.0,0.0,0.0,0.0,0.0,0.0,0.0,0.0,0.0,0.0,0.0,0.0,0.0,0.0,0.0,0.0,-0.4657,-0.4873,-0.4785,-0.5293,-0.539,-0.5107,-0.5776,-0.5851,-0.5426,0.0,0.0,0.0,0.0,0.0,0.0,-0.6065,-0.6024,0.0,0.0,0.0,0.0,-0.6189,-0.6371,0.0,0.0,0.0,0.0,0.0,0.0,0.0,0.0,-0.725,-0.7893,-0.8545,0.0,-1.0536,-0.9811,-0.9509,-0.9416,0.0,-0.9466,-0.9598,0.0,0.0,-1.0685,-1.1895,-1.1903,-1.2316,0.0,0.0,0.0,0.0,0.0,0.0,0.0,0.0,0.0,0.0,0.0,0.0,0.0,0.0,-2.4908,-2.5618,-2.5673,-2.5728,-2.5892,-2.5946,-2.6481,-2.7575,-2.7625,-2.7625,-2.7625,-2.7625,-2.7625,-2.7625,-2.7625,-2.7625,0.0,0.0,-2.7625,-2.7625,-2.7625,-2.7625,-2.7625,-2.7625,-2.7625,-2.7625,-2.7625,-2.7625,-2.7625,0.0,0.0,0.0,0.0,0.0,0.0,0.0,0.0,0.0,0.0,0.0,0.0,0.0,0.0,0.0,0.0,0.0,0.0,0.0,0.0,0.0,0.0,0.0,0.0,0.0,-0.4518,-0.4785,-0.4893,-0.5034,-0.5085,-0.5015,-0.5312,-0.5348,-0.52,-0.5545,0.0,0.0,0.0,0.0,0.0,-0.5726,0.0,0.0,0.0,0.0,0.0,-0.6016,-0.6153,0.0,-0.653,-0.6517,-0.6436,0.0,0.0,0.0,0.0,-0.6812,-0.7031,-0.7031,-0.8393,-0.9655,-0.9149,-0.9227,-0.9428,-0.9596,0.0,0.0,0.0,0.0,0.0,-1.148,0.0,0.0,0.0,0.0,0.0,0.0,0.0,0.0,0.0,0.0,0.0,0.0,0.0,0.0,0.0,0.0,-2.4105,-2.4838,-2.4908,-2.5063,-2.5398,-2.5398,-2.5783,-2.6587,-2.693,-2.71,-2.71,-2.7458,-2.7625,-2.7625,-2.7625,-2.7625,0.0,0.0,-2.7625,-2.7625,-2.7625,-2.7625,-2.7625,-2.7625,-2.7625,-2.7625,-2.7625,-2.7625,-2.7625,0.0,0.0,0.0,0.0,0.0,0.0,0.0,0.0,0.0,0.0,0.0,0.0,0.0,0.0,0.0,0.0,0.0,0.0,0.0,0.0,0.0,0.0,0.0,-0.3453,-0.4232,-0.4277,-0.4527,-0.4971,-0.4647,-0.459,-0.479,-0.4653,-0.4688,-0.4907,-0.5029,0.0,0.0,0.0,0.0,0.0,0.0,0.0,0.0,0.0,0.0,0.0,0.0,0.0,0.0,-0.643,-0.6418,-0.6254,-0.6517,0.0,0.0,0.0,0.0,0.0,-0.6812,-0.8411,-0.9943,-0.9617,-1.0042,-1.0556,-1.0468,0.0,0.0,0.0,0.0,0.0,0.0,0.0,0.0,0.0,0.0,0.0,0.0,0.0,0.0,0.0,0.0,0.0,0.0,0.0,0.0,0.0,0.0,-2.3424,-2.406,-2.4118,-2.4394,-2.5007,-2.5063,-2.5063,-2.5063,-2.5892,-2.6404,-2.651,-2.7137,-2.7509,-2.7625,-2.7625,-2.7625,-2.7625,0.0,0.0,-2.7625,-2.7625,-2.7625,-2.7625,-2.7625,-2.7625,-2.7625,-2.7625,-2.7625,-2.7625,0.0,0.0,0.0,0.0,0.0,0.0,0.0,0.0,0.0,0.0,0.0,0.0,0.0,0.0,0.0,0.0,0.0,0.0,0.0,0.0,0.0,0.0,-0.2409,-0.3376,-0.3956,-0.4175,-0.4354,-0.4426,-0.4967,-0.5076,-0.481,-0.551,-0.5633,-0.5312,-0.5161,-0.5108,0.0,0.0,0.0,0.0,0.0,0.0,0.0,0.0,0.0,0.0,0.0,0.0,0.0,-0.643,-0.6418,-0.6254,-0.6517,0.0,0.0,0.0,0.0,0.0,-0.7784,-0.9266,-1.013,-0.8264,-0.8903,-0.9905,-0.9441,0.0,0.0,0.0,0.0,0.0,0.0,0.0,0.0,0.0,0.0,0.0,0.0,0.0,0.0,0.0,0.0,0.0,0.0,0.0,0.0,0.0,0.0,-2.3125,-2.3245,-2.3305,-2.3365,-2.3471,-2.3471,-2.3471,-2.3471,-2.4881,-2.5892,-2.651,-2.6616,-2.6982,-2.7625,-2.7625,-2.7625,-2.7625,0.0,-2.7625,-2.7625,-2.7625,-2.7625,-2.7625,-2.7625,-2.7625,-2.7625,-2.7625,-2.7625,-2.7625,0.0,0.0,0.0,0.0,0.0,0.0,0.0,0.0,0.0,0.0,0.0,0.0,0.0,0.0,0.0,0.0,0.0,0.0,0.0,0.0,0.0,0.0,-0.1858,-0.2655,-0.3195,-0.3487,-0.3872,-0.4294,-0.4539,-0.4777,-0.5036,-0.5277,-0.5176,-0.4807,-0.4706,-0.4834,-0.5088,0.0,0.0,-0.5108,0.0,0.0,0.0,0.0,0.0,0.0,0.0,0.0,0.0,0.0,-0.623,-0.6088,-0.6301,0.0,0.0,0.0,0.0,0.0,-0.7238,-0.8587,-0.9667,-0.8928,-1.047,-1.2033,-1.145,0.0,0.0,0.0,0.0,0.0,0.0,0.0,0.0,0.0,0.0,0.0,0.0,0.0,0.0,0.0,0.0,0.0,0.0,0.0,0.0,0.0,0.0,0.0,-2.3053,-2.3078,-2.3078,-2.3078,-2.3078,-2.3078,-2.3078,-2.3813,-2.4553,-2.5342,-2.6122,-2.6669,-2.7034,-2.7408,-2.7625,-2.7625,0.0,-2.7625,-2.7625,-2.7625,-2.7625,-2.7625,-2.7625,-2.7625,-2.7625,-2.7625,-2.7625,-2.7625,0.0,0.0,0.0,0.0,0.0,0.0,0.0,0.0,0.0,0.0,0.0,0.0,0.0,0.0,0.0,0.0,0.0,0.0,0.0,0.0,-0.0334,-0.087,-0.1336,-0.1883,-0.25,-0.2962,-0.3491,-0.4102,-0.4094,-0.4389,-0.4919,-0.4781,-0.4532,-0.4211,-0.4273,-0.4567,-0.4991,-0.4785,-0.4853,-0.5108,0.0,0.0,0.0,0.0,0.0,0.0,0.0,0.0,0.0,0.0,0.0,0.0,0.0,0.0,0.0,-0.65,-0.65,-0.6579,-0.6906,-0.8004,-0.9231,-0.9826,-1.177,-1.3506,-1.3433,0.0,0.0,0.0,0.0,0.0,0.0,0.0,0.0,0.0,0.0,0.0,0.0,0.0,0.0,0.0,0.0,0.0,0.0,0.0,0.0,0.0,0.0,0.0,-2.2852,-2.2877,-2.294,-2.3078,-2.3078,-2.3078,-2.3078,-2.3078,-2.3484,-2.4292,-2.5453,-2.6068,-2.6283,-2.6982,-2.7357,-2.7357,-2.7524,-2.7625,-2.7625,-2.7625,-2.7625,-2.7625,-2.7625,-2.7625,-2.7625,-2.7625,-2.7625,-2.7625,0.0,0.0,0.0,0.0,0.0,0.0,0.0,0.0,0.0,0.0,0.0,0.0,0.0,0.0,0.0,0.0,0.0,0.0,0.0,0.0,0.0287,-0.0847,-0.0936,-0.1355,-0.2215,-0.3042,-0.3501,-0.3561,-0.4102,-0.4281,-0.41,-0.4312,-0.4245,-0.3952,-0.4191,-0.4466,0.0,0.0,-0.4853,-0.5108,-0.5108,0.0,0.0,0.0,0.0,0.0,0.0,0.0,0.0,0.0,0.0,0.0,0.0,0.0,-0.6236,-0.6236,-0.6236,-0.6505,-0.7823,-0.8586,-0.9197,-0.9964,-1.0988,0.0,-1.3682,-1.3596,0.0,-1.4538,0.0,0.0,0.0,0.0,0.0,0.0,0.0,0.0,0.0,0.0,0.0,0.0,0.0,0.0,0.0,0.0,0.0,0.0,0.0,0.0,-2.2347,-2.2372,-2.2611,-2.3053,-2.3078,-2.3078,-2.3078,-2.3078,-2.3484,-2.4292,-2.4408,-2.4851,-2.5508,-2.6229,-2.6563,-2.6616,-2.7306,-2.7625,-2.7625,-2.7625,-2.7625,-2.7625,-2.7625,-2.7625,-2.7625,-2.7625,-2.7625,-2.7625,0.0,0.0,0.0,0.0,0.0,0.0,0.0,0.0,0.0,0.0,0.0,0.0,0.0,0.0,0.0,0.0,0.0,0.0,0.0,0.0,0.0133,-0.0847,-0.0892,-0.1225,-0.1935,-0.2646,-0.3077,-0.3249,-0.4019,-0.4255,-0.3998,-0.411,-0.405,-0.389,-0.3828,0.0,0.0,0.0,-0.4706,-0.5108,-0.5108,-0.5108,0.0,0.0,0.0,0.0,0.0,0.0,0.0,0.0,-0.5587,-0.5511,-0.5614,-0.5808,-0.6016,-0.6016,-0.6016,-0.6126,-0.6665,-0.7748,-0.9007,-0.9996,-1.1143,0.0,0.0,-1.4796,-1.5932,0.0,0.0,0.0,0.0,0.0,0.0,0.0,0.0,0.0,0.0,0.0,0.0,0.0,0.0,0.0,0.0,0.0,0.0,0.0,0.0,0.0,-2.1769,-2.1794,-2.2058,-2.2611,-2.2623,-2.2786,-2.3078,-2.3078,-2.3245,-2.3543,-2.406,-2.4452,-2.4738,-2.5453,-2.5837,-2.5837,-2.6108,-2.6481,-2.693,-2.693,-2.7203,-2.7625,-2.7625,-2.7625,-2.7625,-2.7625,-2.7625,-2.7625,0.0,0.0,0.0,0.0,0.0,0.0,0.0,0.0,0.0,0.0,0.0,0.0,0.0,0.0,0.0,0.0,0.0,0.0,0.0,0.099,0.02,-0.0847,-0.0892,-0.1181,-0.1781,-0.2285,-0.2715,-0.3104,-0.3886,-0.4115,-0.3851,-0.3851,-0.381,-0.3765,0.0,0.0,0.0,0.0,0.0,-0.4971,-0.4971,-0.503,0.0,0.0,0.0,0.0,0.0,0.0,0.0,0.0,-0.5368,-0.5368,-0.5368,-0.5558,-0.5782,-0.5782,-0.5972,-0.6193,-0.6292,-0.7409,-0.8787,-0.9766,0.0,0.0,-1.3031,-1.5101,-1.6904,0.0,0.0,0.0,0.0,0.0,0.0,0.0,0.0,0.0,0.0,0.0,0.0,0.0,0.0,0.0,0.0,0.0,0.0,0.0,0.0,0.0,0.0,-2.123,-2.1481,-2.2033,-2.2046,-2.2234,-2.2611,-2.2786,-2.2874,-2.2874,-2.3572,-2.3943,-2.3943,-2.4724,-2.5063,-2.5063,-2.5287,-2.5673,-2.6176,-2.6404,-2.693,-2.7625,-2.7625,-2.7625,-2.7625,-2.7625,-2.7625,-2.7625,0.0,0.0,0.0,0.0,0.0,0.0,0.0,0.0,0.0,0.0,0.0,0.0,0.0,0.0,0.0,0.0,0.0,0.0,0.0,0.1223,0.0642,-0.0825,-0.0892,-0.1181,-0.1781,-0.2062,-0.2489,-0.3104,-0.3693,-0.3814,-0.3506,-0.3506,-0.3506,0.0,0.0,0.0,0.0,0.0,0.0,0.0,-0.4706,-0.4873,-0.5108,0.0,0.0,0.0,0.0,0.0,0.0,0.0,-0.5108,-0.5108,-0.5108,-0.5291,-0.5503,-0.5492,-0.6117,-0.6858,-0.7118,-0.7787,-0.8582,0.0,0.0,0.0,0.0,-1.418,0.0,0.0,0.0,0.0,0.0,0.0,0.0,0.0,0.0,0.0,0.0,0.0,0.0,0.0,0.0,0.0,0.0,0.0,0.0,0.0,0.0,0.0,0.0,-2.0706,-2.097,-2.1468,-2.1481,-2.1481,-2.1493,-2.2033,-2.2309,-2.2322,-2.2874,-2.3078,-2.3138,-2.3943,-2.4292,-2.435,-2.5063,-2.5398,-2.5453,-2.6176,-2.693,-2.7575,-2.7575,-2.7575,-2.7575,-2.7575,-2.7575,-2.7575,0.0,0.0,0.0,0.0,0.0,0.0,0.0,0.0,0.0,0.0,0.0,0.0,0.0,0.0,0.0,0.0,0.0,0.0,0.0,0.0998,0.0445,-0.0847,-0.0892,-0.1181,-0.1781,-0.2062,-0.2487,-0.309,-0.3478,-0.3592,-0.3506,-0.3506,-0.3506,-0.3506,0.0,0.0,0.0,0.0,0.0,0.0,-0.4706,-0.4873,-0.5108,0.0,0.0,0.0,0.0,0.0,0.0,0.0,0.0,0.0,-0.5108,-0.5568,-0.6019,-0.5393,-0.6067,-0.6955,-0.6714,-0.792,0.0,0.0,0.0,0.0,0.0,0.0,0.0,0.0,0.0,0.0,0.0,0.0,0.0,0.0,0.0,0.0,0.0,0.0,0.0,0.0,0.0,0.0,0.0,0.0,0.0,0.0,0.0,0.0,0.0,-2.0062,-2.0313,-2.0891,-2.097,-2.1091,-2.1493,-2.2033,-2.2309,-2.2322,-2.2874,-2.3078,-2.3138,-2.3365,-2.3484,-2.3484,-2.3708,-2.4105,-2.4681,-2.5398,-2.5837,-2.6054,-2.6054,-2.6054,-2.6108,-2.6602,-2.6496,-2.6215,0.0,0.0,0.0,0.0,0.0,0.0,0.0,0.0,0.0,0.0,0.0,0.275,0.0,0.0,0.0,0.0,0.0,0.0,0.0,0.0,0.0423,-0.0646,-0.0825,-0.1181,-0.1781,-0.2062,-0.2433,-0.2939,-0.3202,-0.3393,-0.3506,-0.3506,-0.3506,-0.3506,0.0,-0.3584,0.0,0.0,0.0,0.0,-0.4426,-0.4606,-0.4932,0.0,0.0,0.0,0.0,0.0,0.0,0.0,0.0,0.0,-0.5069,0.0,-0.5847,-0.5662,-0.6421,-0.7402,-0.7598,0.0,0.0,0.0,0.0,0.0,0.0,0.0,0.0,0.0,0.0,0.0,0.0,0.0,0.0,0.0,0.0,0.0,0.0,0.0,0.0,0.0,0.0,0.0,0.0,0.0,0.0,0.0,0.0,0.0,0.0,-1.9798,-1.9962,-2.0313,-2.0326,-2.0489,-2.0815,-2.138,-2.1656,-2.1656,-2.2221,-2.2598,-2.2811,-2.2977,-2.3078,-2.3078,-2.3078,-2.3543,-2.435,-2.4794,-2.5119,-2.5398,-2.5398,-2.5398,-2.5453,-2.5906,-2.5783,-2.5508,0.0,0.0,0.3417,0.3145,0.0,0.0,0.0,0.0,0.0,0.0,0.2578,0.251,0.0,0.0,0.0,0.2185,0.0,0.0,0.0,0.0,0.0512,-0.0356,-0.0779,-0.1247,-0.1781,-0.2044,-0.2324,-0.2654,-0.2939,-0.3223,-0.3506,0.0,-0.3485,-0.3506,0.0,-0.3506,0.0,0.0,0.0,-0.4252,-0.3986,-0.4211,-0.4626,-0.4386,0.0,0.0,0.0,0.0,0.0,0.0,0.0,0.0,-0.503,-0.5166,-0.5361,-0.6061,-0.6975,-0.8007,0.0,0.0,0.0,0.0,0.0,0.0,0.0,0.0,0.0,0.0,0.0,0.0,0.0,0.0,0.0,0.0,0.0,0.0,0.0,0.0,0.0,0.0,0.0,0.0,0.0,0.0,0.0,0.0,0.0,0.0,0.0,-1.9747,-1.9798,-1.9798,-1.9798,-1.9798,-1.9798,-2.0376,-2.0718,-2.0731,-2.123,-2.1757,-2.2259,-2.2811,-2.3027,-2.3078,-2.3078,-2.3543,-2.4176,-2.4176,-2.4567,-2.5175,-2.5175,-2.5175,-2.5175,-2.5287,-2.5231,-2.5231,0.0,0.0,0.3417,0.3145,0.0,0.0,0.0,0.0,0.2598,0.2598,0.2421,0.2273,0.2245,0.1943,0.0,0.2173,0.1924,0.0,0.0,0.0,0.0512,-0.0356,-0.1178,-0.167,-0.1803,-0.1847,-0.2022,-0.2302,-0.2632,-0.3025,0.0,0.0,0.0,-0.3506,0.0,-0.3506,0.0,0.0,-0.3689,-0.3986,-0.3931,-0.4089,-0.4386,-0.4333,-0.4313,0.0,0.0,0.0,0.0,0.0,0.0,0.0,-0.5088,-0.5565,-0.6012,-0.5526,-0.6748,-0.8301,0.0,0.0,0.0,0.0,0.0,0.0,0.0,0.0,0.0,0.0,0.0,0.0,0.0,0.0,0.0,0.0,0.0,0.0,0.0,0.0,0.0,0.0,0.0,0.0,0.0,0.0,0.0,0.0,0.0,0.0,-1.8927,-1.9475,-1.9798,-1.9798,-1.9798,-1.9798,-1.9798,-2.0376,-2.0718,-2.0731,-2.123,-2.1556,-2.1681,-2.2234,-2.2723,-2.3078,-2.3078,-2.3198,-2.3365,-2.3365,-2.3471,-2.359,-2.359,-2.359,-2.3649,-2.4279,-2.4163,-2.3754,0.0,0.0,0.0,0.0,0.0,0.0,0.0,0.0,0.2402,0.2402,0.2195,0.2025,0.1971,0.1743,0.0,0.0,0.1816,0.1696,0.0,0.0,0.0,-0.0601,-0.138,-0.1803,-0.1803,-0.1803,-0.1935,-0.2193,-0.2241,0.0,0.0,0.0,0.0,-0.3396,0.0,-0.3396,0.0,0.0,-0.3647,-0.389,-0.3765,-0.3869,-0.4089,-0.3973,-0.3911,-0.3931,-0.4068,0.0,0.0,0.0,0.0,0.0,0.0,0.0,-0.5606,-0.5708,-0.6699,-0.7939,0.0,0.0,0.0,0.0,0.0,0.0,0.0,0.0,0.0,0.0,0.0,0.0,0.0,0.0,0.0,0.0,0.0,0.0,0.0,0.0,0.0,0.0,0.0,0.0,0.0,0.0,0.0,0.0,0.0,-1.795,-1.8661,-1.9032,-1.9423,-1.9798,-1.9798,-1.9798,-1.9798,-2.01,-2.025,-2.0263,-2.0539,-2.0828,-2.1117,-2.1945,-2.2472,-2.2761,-2.2965,-2.3078,-2.3078,-2.3078,-2.3078,-2.3078,-2.3078,-2.3078,-2.3125,-2.3603,-2.3484,-2.3185,0.0,0.0,0.0,0.0,0.0,0.0,0.0,0.0,0.0,0.2195,0.1984,0.1789,0.1681,0.1528,0.1519,0.0,0.0,0.0,0.1502,0.0,0.0,0.0,-0.1336,-0.167,-0.1718,-0.1718,-0.1847,-0.2128,0.0,0.0,0.0,0.0,0.0,-0.3289,0.0,0.0,0.0,-0.3409,-0.3584,-0.3807,-0.3584,-0.3626,-0.3807,-0.3584,-0.3506,-0.3527,-0.3744,-0.3731,-0.3626,-0.4089,0.0,0.0,0.0,0.0,-0.4881,-0.5841,-0.6513,-0.7277,0.0,0.0,0.0,0.0,0.0,0.0,0.0,0.0,0.0,0.0,0.0,0.0,0.0,0.0,0.0,0.0,0.0,0.0,0.0,0.0,0.0,0.0,0.0,0.0,0.0,0.0,0.0,0.0,0.0,-1.7191,-1.8286,-1.8661,-1.9097,-1.9579,-1.9747,-1.9798,-1.9798,-1.9798,-1.9798,-1.9798,-1.9798,-2.0049,-2.0605,-2.1568,-2.2133,-2.2334,-2.2799,-2.2977,-2.3078,-2.3078,-2.3078,-2.3078,-2.3078,-2.3078,-2.3078,-2.3078,-2.3078,-2.3078,0.0,0.0,0.0,0.0,0.0,0.0,0.0,0.0,0.0,0.0,0.1827,0.1549,0.1528,0.1303,0.1265,0.1513,0.1582,0.1566,0.0,0.0,0.0,0.0,-0.0824,-0.1139,-0.1363,-0.1363,-0.1519,-0.1847,0.0,0.0,0.0,0.0,0.0,-0.3289,0.0,0.0,0.0,0.0,-0.3309,-0.3548,-0.3506,-0.3527,-0.3548,-0.3506,-0.3506,-0.3506,-0.3548,-0.3689,-0.3848,-0.3931,-0.4089,0.0,0.0,0.0,0.0,0.0,-0.5668,0.0,0.0,0.0,0.0,0.0,0.0,0.0,0.0,0.0,0.0,0.0,0.0,0.0,0.0,0.0,0.0,0.0,0.0,0.0,0.0,0.0,0.0,0.0,0.0,0.0,0.0,0.0,0.0,0.0,-1.6743,-1.7246,-1.6821,-1.8608,-1.9423,-1.8874,-1.9475,-1.9798,-1.9798,-1.9798,-1.9798,-1.9798,-1.9798,-1.9849,-1.9936,-2.0589,-2.1405,-2.2309,-2.2385,-2.2686,-2.3078,-2.3078,-2.3078,-2.3078,-2.3078,-2.3078,-2.3078,-2.3078,-2.3078,-2.3078,0.0,0.0,0.0,0.0,0.0,0.0,0.0,0.0,0.0,0.0,0.0,0.1434,0.1546,0.1284,0.1118,0.1164,0.1183,0.0,0.0,0.0,0.0,0.0,-0.0714,-0.0961,-0.1072,-0.123,-0.1363,0.0,0.0,0.0,0.0,-0.2443,-0.2752,0.0,0.0,0.0,0.0,0.0,-0.3266,-0.3506,-0.3506,-0.3705,-0.3957,-0.3632,-0.3712,-0.3951,-0.3619,-0.3563,-0.3668,-0.3668,-0.3744,-0.3869,-0.4027,0.0,0.0,0.0,0.0,0.0,0.0,0.0,0.0,0.0,0.0,0.0,0.0,0.0,0.0,0.0,0.0,0.0,0.0,0.0,0.0,0.0,0.0,0.0,0.0,0.0,0.0,0.0,0.0,0.0,0.0,0.0,0.0,0.0,-1.6026,-1.6585,-1.709,-1.8058,-1.8821,-1.9307,-1.9631,-1.9798,-1.9798,-1.9798,-1.9798,-1.9798,-1.9798,-1.9798,-1.9811,-2.0062,-2.0627,-2.1405,-2.1719,-2.1995,-2.2234,-2.2548,-2.2673,-2.2711,-2.2952,-2.3078,-2.3078,-2.3078,-2.3078,-2.3078,0.0,0.0,0.0,0.0,0.0,0.0,0.0,0.0,0.0,0.0,0.0,0.1435,0.158,0.0,0.0,0.0,0.0865,0.0,0.0,0.0,0.0,0.0,0.0,-0.0693,-0.0781,-0.105,0.0,0.0,0.0,0.0,-0.2268,-0.2431,-0.2787,0.0,-0.3033,0.0,0.0,0.0,0.0,-0.3725,-0.3725,-0.3991,-0.4382,-0.4137,-0.4309,-0.4562,-0.4017,0.0,0.0,0.0,0.0,0.0,0.0,0.0,0.0,0.0,0.0,0.0,0.0,0.0,0.0,0.0,0.0,0.0,0.0,0.0,0.0,0.0,0.0,0.0,0.0,0.0,0.0,0.0,0.0,0.0,0.0,0.0,0.0,0.0,0.0,0.0,0.0,0.0,0.0,0.0,-1.5584,-1.6083,-1.6968,-1.7413,-1.8112,-1.9202,-1.9423,-1.9592,-1.9798,-1.9798,-1.9798,-1.9798,-1.9798,-1.9798,-1.9798,-1.9798,-2.0037,-2.0476,-2.1041,-2.1355,-2.1518,-2.1933,-2.2184,-2.2347,-2.2761,-2.2952,-2.3078,-2.3078,-2.3078,-2.3078,0.0,0.0,0.0,0.0,0.0,0.0,0.0,0.0,0.0,0.0,0.0,0.1584,0.1592,0.1192,0.0909,0.0909,0.0783,0.0,0.0,0.0,0.0,0.0,0.0,0.0,0.0,-0.0758,0.0,0.0,0.0,0.0,-0.2472,-0.2509,-0.2798,-0.3273,-0.3018,-0.3289,-0.393,0.0,0.0,-0.4362,-0.4362,-0.4375,-0.4489,-0.5297,-0.5451,-0.519,-0.4854,0.0,0.0,0.0,0.0,0.0,0.0,0.0,0.0,0.0,0.0,0.0,0.0,0.0,0.0,0.0,0.0,0.0,0.0,0.0,0.0,0.0,0.0,0.0,0.0,0.0,0.0,0.0,0.0,0.0,0.0,0.0,0.0,0.0,0.0,0.0,0.0,0.0,0.0,0.0,-1.6036,-1.6151,-1.5526,-1.6856,-1.7633,-1.7688,-1.8382,-1.9097,-1.9798,-1.9798,-1.9798,-1.9798,-1.9798,-1.9798,-1.9798,-1.9798,-1.9823,-1.9874,-2.0451,-2.1004,-2.1493,-2.1518,-2.1845,-2.2309,-2.2347,-2.2673,-2.3078,-2.3078,-2.3078,-2.3078,0.0,0.0,0.0,0.0,0.0,0.0,0.0,0.0,0.0,0.0,0.0,0.0,0.0,0.1171,0.0907,0.0613,0.0383,0.0,0.0,0.0,0.0,0.0,0.0,0.0,0.0,0.0,0.0,0.0,0.0,-0.1937,-0.2171,-0.2269,-0.2398,-0.2603,-0.2622,-0.3147,-0.3955,-0.3346,0.0,-0.4422,-0.4575,-0.5023,-0.5558,-0.5458,-0.5832,-0.6313,0.0,0.0,0.0,0.0,0.0,0.0,0.0,-0.374,-0.3647,-0.3647,0.0,0.0,0.0,0.0,0.0,0.0,0.0,0.0,0.0,0.0,0.0,0.0,0.0,0.0,0.0,0.0,0.0,0.0,0.0,0.0,0.0,0.0,0.0,0.0,0.0,0.0,0.0,0.0,0.0,0.0,0.0,-1.5864,-1.6093,-1.6595,-1.709,-1.7578,-1.7841,-1.834,-1.9097,-1.9579,-1.9798,-1.9798,-1.9798,-1.9798,-1.9798,-1.9798,-1.9798,-1.9811,-2.0024,-2.0225,-2.0439,-2.0803,-2.128,-2.182,-2.2171,-2.2648,-2.3078,-2.3078,-2.3078,-2.3078,0.0,0.0,0.0,0.2445,0.0,0.1732,0.1732,0.1659,0.1627,0.1722,0.0,0.0,0.0,0.0,0.0696,0.0309,0.0103,0.0,0.0,0.0,0.0,0.0,0.0,0.0,0.0,0.0,0.0,0.0,0.0,0.0,0.0,-0.2087,-0.2187,-0.231,-0.2335,-0.2897,0.0,0.0,0.0,-0.4489,0.0,0.0,-0.6055,0.0,-0.6587,0.0,0.0,0.0,0.0,0.0,0.0,0.0,0.0,-0.3673,-0.3506,-0.3506,-0.3741,0.0,0.0,0.0,0.0,0.0,0.0,0.0,0.0,0.0,0.0,0.0,0.0,0.0,0.0,0.0,0.0,0.0,0.0,0.0,0.0,0.0,0.0,0.0,0.0,0.0,0.0,0.0,0.0,0.0,0.0,0.0,-1.5644,-1.57,-1.6085,-1.6994,-1.7379,-1.7852,-1.834,-1.8821,-1.9202,-1.9423,-1.9423,-1.9579,-1.9798,-1.9798,-1.9798,-1.9798,-1.9798,-1.9798,-1.9823,-2.0213,-2.0702,-2.1255,-2.1606,-2.2096,-2.2611,-2.2786,-2.2862,-2.2887,0.3506,0.3068,0.2697,0.2697,0.2096,0.1616,0.1616,0.1616,0.1616,0.1616,0.0,0.0,0.0,0.0,0.0,0.0022,0.0,0.0,0.0,0.0,0.0,0.0,0.0,0.0,0.0,0.0,0.0,0.0,0.0,0.0,0.0,0.0,-0.2157,-0.2458,-0.2163,-0.2558,-0.3482,0.0,-0.4092,-0.4619,0.0,-0.5346,-0.5883,0.0,0.0,0.0,-0.7495,-0.7301,0.0,0.0,0.0,0.0,0.0,-0.3494,-0.3483,-0.3498,-0.3732,0.0,0.0,0.0,0.0,0.0,0.0,0.0,0.0,0.0,0.0,0.0,0.0,0.0,0.0,0.0,0.0,0.0,0.0,0.0,0.0,0.0,0.0,0.0,0.0,0.0,0.0,0.0,0.0,0.0,-1.4375,-1.4077,-1.4077,-1.4077,-1.464,-1.5815,-1.6972,-1.7567,-1.7578,-1.7578,-1.7961,-1.8661,-1.8661,-1.9044,-1.9747,-1.9747,-1.9747,-1.9747,-1.9747,-1.9747,-1.9747,-1.9798,-2.015,-2.0718,-2.0718,-2.1004,-2.1556,-2.2083,-2.2297,-2.2385,0.3548,0.3068,0.2697,0.2697,0.2177,0.1744,0.1744,0.1744,0.1744,0.0,0.0,0.0,0.1027,0.047,0.009,0.0,0.0,0.0,0.0,0.0,0.0,0.0,0.0,0.0,0.0,0.0,0.0,0.0,0.0,0.0,-0.1504,-0.1754,0.0,0.0,-0.2394,-0.2528,-0.2583,-0.2868,0.0,0.0,-0.4672,-0.5481,0.0,0.0,0.0,0.0,0.0,-0.714,-0.673,0.0,-0.4994,-0.4206,0.0,0.0,-0.3225,-0.3329,-0.3739,-0.411,-0.391,0.0,0.0,0.0,0.0,0.0,0.0,0.0,0.0,0.0,0.0,0.0,0.0,0.0,0.0,0.0,0.0,0.0,0.0,0.0,0.0,0.0,0.0,0.0,0.0,0.0,0.0,0.0,-1.4145,-1.4077,-1.4077,-1.4077,-1.4434,-1.5089,-1.5907,-1.6513,-1.681,-1.7357,-1.7688,-1.7895,-1.7895,-1.8004,-1.8232,-1.8232,-1.8232,-1.8232,-1.8232,-1.8501,-1.9044,-1.9579,-2.015,-2.0718,-2.0718,-2.1004,-2.1506,-2.1656,-2.197,-2.2334,0.3217,0.2805,0.2502,0.2502,0.211,0.1803,0.1803,0.1803,0.1803,0.0,0.0,0.0,0.0736,0.0461,0.0209,0.0023,0.0,0.0,0.0,0.0,0.0,0.0,0.0,0.0,0.0,-0.0216,-0.0344,-0.0401,-0.0947,-0.1252,-0.1299,-0.1648,-0.1851,-0.1937,-0.2192,-0.2227,-0.2042,-0.2235,0.0,0.0,-0.4315,0.0,0.0,-0.6492,-0.7115,0.0,0.0,0.0,-0.6582,-0.5837,-0.4884,0.0,0.0,-0.3278,-0.3303,-0.3435,-0.3861,0.0,-0.4322,0.0,0.0,0.0,0.0,0.0,0.0,0.0,0.0,0.0,0.0,0.0,0.0,0.0,0.0,0.0,0.0,0.0,0.0,0.0,0.0,0.0,0.0,0.0,0.0,-1.3877,-1.3877,-1.3877,-1.3711,-1.3613,-1.3613,-1.3779,-1.3994,-1.4248,-1.4827,-1.5257,-1.5477,-1.6095,-1.6567,-1.6885,-1.7037,-1.7302,-1.7578,-1.7578,-1.7578,-1.7578,-1.7578,-1.7841,-1.8274,-1.8715,-1.945,-2.03,-2.03,-2.0501,-2.0815,-2.1054,-2.1343,-2.1656,0.0,0.2459,0.2193,0.2193,0.1978,0.1809,0.1827,0.1813,0.1816,0.0,0.1559,0.1148,0.0572,0.0654,0.059,0.0185,0.0091,0.0045,0.0068,0.0023,0.0,0.0,0.0,0.0,0.0,-0.0125,-0.0228,-0.0356,-0.0803,-0.1097,-0.1252,-0.1585,-0.1759,-0.1803,-0.1803,-0.1803,-0.1806,-0.184,0.0,-0.3118,-0.3809,-0.4419,0.0,0.0,-0.6181,0.0,-0.6406,-0.6475,-0.6338,-0.5497,-0.459,0.0,0.0,-0.3408,-0.3552,-0.3746,-0.4144,0.0,-0.492,-0.5251,0.0,0.0,0.0,0.0,-0.6286,-0.6466,0.0,0.0,0.0,0.0,0.0,0.0,0.0,0.0,0.0,0.0,0.0,0.0,0.0,0.0,0.0,0.0,-1.3437,-1.3437,-1.3437,-1.3437,-1.3096,-1.2881,-1.2881,-1.3232,-1.3457,-1.3506,-1.3877,-1.4029,-1.4077,-1.4521,-1.5029,-1.5708,-1.6133,-1.6623,-1.728,-1.7335,-1.7357,-1.7357,-1.7357,-1.7413,-1.7468,-1.7468,-1.8286,-1.9579,-1.9643,-1.9695,-1.9758,-2.0376,-2.0668,-2.0794,0.3025,0.2589,0.2193,0.2193,0.1978,0.1847,0.1947,0.1862,0.1869,0.209,0.1878,0.1553,0.1176,0.1057,0.1023,0.1039,0.0601,0.039,0.0563,0.0209,0.0,0.0,0.0,0.0,0.0,-0.0022,-0.0044,-0.0067,-0.0395,-0.068,-0.0983,-0.1274,-0.1541,-0.1803,-0.1803,-0.1803,-0.182,-0.202,0.0,-0.2809,-0.3297,0.0,-0.4952,-0.5606,-0.6151,-0.6469,-0.591,-0.5706,-0.5571,0.0,-0.4238,-0.3931,0.0,0.0,-0.3712,-0.4252,0.0,-0.5278,-0.6053,-0.646,-0.66,-0.6283,0.0,0.0,0.0,-0.5718,0.0,0.0,0.0,0.0,0.0,0.0,0.0,0.0,0.0,0.0,0.0,0.0,0.0,0.0,0.0,0.0,-1.2998,-1.2998,-1.2998,-1.2998,-1.293,-1.2881,-1.2881,-1.2959,-1.3164,-1.3496,-1.3584,-1.3789,-1.4077,-1.4165,-1.4312,-1.4473,-1.4909,-1.5229,-1.5351,-1.5703,-1.5853,-1.5853,-1.5853,-1.6197,-1.6708,-1.6708,-1.7246,-1.8112,-1.8661,-1.8927,-1.9004,-1.9716,-2.0263,-2.0731,0.2676,0.2302,0.2027,0.2088,0.199,0.1947,0.2077,0.2033,0.2089,0.2316,0.2289,0.2068,0.1599,0.1564,0.146,0.1223,0.0917,0.0688,0.0568,0.032,0.0134,0.0,0.0,0.0,0.0,0.0,0.0,0.0,-0.0268,-0.0579,-0.0892,-0.1027,-0.1255,-0.154,-0.1544,-0.1608,-0.1709,0.0,-0.234,-0.274,-0.3261,0.0,-0.4501,-0.4962,-0.5337,-0.55,-0.5113,-0.5003,-0.4925,-0.44,-0.4143,0.0,0.0,-0.3737,-0.3968,0.0,-0.5164,-0.5627,-0.6764,-0.7134,-0.7174,-0.6922,0.0,0.0,0.0,0.0,0.0,0.0,0.0,0.0,0.0,0.0,0.0,0.0,0.0,0.0,0.0,0.0,0.0,0.0,0.0,0.0,-1.2344,-1.2666,-1.2881,-1.2881,-1.2881,-1.2881,-1.2881,-1.2881,-1.2978,-1.3184,-1.3193,-1.3301,-1.3506,-1.3721,-1.3818,-1.3828,-1.4473,-1.4785,-1.4805,-1.5215,-1.541,-1.541,-1.541,-1.5584,-1.5921,-1.5921,-1.6197,-1.6631,-1.7731,-1.8394,-1.8715,-1.9097,-1.9661,-2.0238,0.2259,0.1975,0.1844,0.1943,0.1991,0.203,0.216,0.2181,0.2293,0.2555,0.2577,0.238,0.1915,0.1834,0.1634,0.1166,0.1037,0.0823,0.0491,0.0375,0.0229,0.0,0.0,0.0,0.0,0.0,0.0,0.0,-0.0224,-0.049,-0.0803,-0.0803,-0.0956,-0.1232,-0.1321,0.0,0.0,0.0,0.0,-0.2932,0.0,-0.3724,-0.3972,-0.4297,-0.4423,-0.4426,-0.4508,-0.4519,-0.4498,-0.4328,0.0,-0.419,-0.3965,-0.3982,0.0,0.0,0.0,0.0,0.0,0.0,0.0,0.0,0.0,-0.7161,0.0,0.0,0.0,-0.6834,0.0,0.0,0.0,0.0,0.0,0.0,0.0,0.0,0.0,0.0,0.0,0.0,0.0,0.0,0.0,-1.2108,-1.2599,-1.2871,-1.2725,-1.2705,-1.2871,-1.2881,-1.2881,-1.2881,-1.2881,-1.2881,-1.2881,-1.3213,-1.3389,-1.3398,-1.4248,-1.4658,-1.4678,-1.5186,-1.541,-1.541,-1.541,-1.541,-1.541,-1.541,-1.541,-1.5517,-1.6856,-1.7743,-1.8328,-1.8608,-1.9097,-1.9592,0.2215,0.1975,0.1809,0.1827,0.192,0.2028,0.2089,0.2099,0.2324,0.2884,0.2443,0.2098,0.0,0.0,0.0,0.0,0.0,0.0,0.0645,0.0,0.0025,0.0,0.0,0.0,0.0,0.0,0.0,0.0,-0.0022,-0.0179,-0.0468,-0.0468,-0.0629,-0.0954,-0.139,0.0,0.0,0.0,-0.2853,0.0,-0.3551,-0.3598,0.0,-0.4107,-0.422,-0.4237,-0.4416,-0.4519,-0.4515,0.0,-0.4491,-0.4409,0.0,-0.4294,-0.4541,0.0,0.0,0.0,0.0,0.0,0.0,0.0,-0.8049,0.0,0.0,0.0,-0.6834,-0.6391,0.0,0.0,0.0,0.0,0.0,0.0,0.0,0.0,0.0,0.0,0.0,0.0,0.0,0.0,0.0,-1.0763,-1.1426,-1.2822,-1.2194,-1.2096,-1.2842,-1.2881,-1.2881,-1.2881,-1.2881,-1.2881,-1.2881,-1.293,-1.2949,-1.2959,-1.3809,-1.4209,-1.4238,-1.5049,-1.541,-1.541,-1.541,-1.541,-1.541,-1.541,-1.541,-1.5468,-1.6312,-1.6652,-1.6922,-1.8232,-1.8768,-1.8927,0.2193,0.1975,0.1833,0.1899,0.1991,0.2096,0.2263,0.2383,0.2551,0.2809,0.2868,0.0,0.0,0.0,0.0,0.0,0.0,0.1477,0.0,0.0,0.064,0.0027,0.0,0.0,0.0,0.0,0.0,0.0,0.0,-0.0134,-0.0401,-0.0246,-0.0335,-0.0615,-0.0828,0.0,-0.1806,0.0,0.0,0.0,0.0,0.0,0.0,-0.4172,-0.4372,-0.4379,-0.4494,-0.4519,-0.4505,0.0,-0.4392,0.0,0.0,0.0,0.0,0.0,0.0,0.0,0.0,0.0,0.0,0.0,0.0,0.0,-0.7161,0.0,-0.7001,0.0,0.0,0.0,0.0,0.0,0.0,0.0,0.0,0.0,0.0,0.0,0.0,0.0,0.0,0.0,0.0,0.0,0.0,0.0,-1.1351,-1.1457,-1.2006,-1.258,-1.2881,-1.2881,-1.2881,-1.2881,-1.2881,-1.2881,-1.2881,-1.2891,-1.3486,-1.3769,-1.3799,-1.4658,-1.5049,-1.5059,-1.5303,-1.541,-1.541,-1.541,-1.541,-1.541,-1.5748,-1.6151,-1.6606,-1.7191,-1.7677,-1.8124,0.2129,0.0,0.0,0.0,0.2021,0.2194,0.2455,0.262,0.2833,0.3166,0.0,0.0,0.2053,0.1723,0.0,0.0,0.2242,0.2377,0.0,0.0,0.1184,0.0561,0.0202,0.0,0.0,0.0076,0.0,0.0,0.0,-0.009,-0.029,-0.009,-0.0097,-0.03,0.0,-0.0878,-0.1596,0.0,0.0,-0.3286,-0.3579,-0.3748,-0.3911,-0.4256,-0.4429,-0.4519,-0.4519,-0.4519,-0.4501,-0.4341,-0.4375,0.0,-0.4338,0.0,0.0,0.0,0.0,0.0,-0.6095,0.0,0.0,0.0,0.0,0.0,0.0,0.0,0.0,0.0,0.0,0.0,0.0,0.0,0.0,-0.6337,0.0,0.0,0.0,0.0,0.0,0.0,0.0,0.0,0.0,0.0,0.0,0.0,0.0,-1.0567,-1.1342,-1.2063,-1.2599,-1.2881,-1.2881,-1.2881,-1.2881,-1.2881,-1.2881,-1.2881,-1.3311,-1.3506,-1.3535,-1.4394,-1.4785,-1.4805,-1.5234,-1.541,-1.541,-1.541,-1.541,-1.541,-1.541,-1.5748,-1.6208,-1.6436,-1.681,-1.7302,0.1974,0.1882,0.0,0.0,0.0,0.2242,0.2644,0.2709,0.3135,0.0,0.0,0.0,0.0,0.0,0.0,0.0,0.0,0.2956,0.2973,0.0,0.1359,0.1894,0.0704,0.0267,0.0,0.0,0.0,0.0,0.0,0.0,-0.0022,0.0,0.0,-0.0026,-0.0495,-0.0778,-0.098,-0.2048,-0.2713,-0.3154,-0.3758,-0.4178,-0.4477,0.0,-0.4341,-0.4519,-0.4519,0.0,0.0,-0.4512,-0.4515,0.0,0.0,0.0,0.0,0.0,0.0,0.0,0.0,0.0,0.0,-0.6771,0.0,0.0,0.0,0.0,-0.75,0.0,0.0,0.0,0.0,0.0,-0.7278,-0.6667,-0.6573,0.0,0.0,0.0,0.0,0.0,0.0,0.0,0.0,0.0,0.0,0.0,-0.8745,0.0,-1.1296,-1.1443,-1.1883,-1.2861,-1.2881,-1.2881,-1.2881,-1.2881,-1.2881,-1.2881,-1.3311,-1.3506,-1.3535,-1.4394,-1.4785,-1.4805,-1.5234,-1.541,-1.541,-1.541,-1.541,-1.541,-1.541,-1.541,-1.5526,-1.6265,-1.6482,-1.6652,0.0,0.0,0.0,0.0,0.0,0.2088,0.263,0.3056,0.0,0.0,0.0,0.0,0.0,0.3905,0.3511,0.0,0.0,0.4005,0.4012,0.298,0.0,0.0,0.0,0.0309,0.0,0.0,0.0,0.0,0.0,0.0,0.0,0.0,0.0,0.0,0.0,-0.0546,0.0,0.0,0.0,0.0,0.0,-0.3042,-0.3843,0.0,-0.4419,-0.4519,-0.4519,-0.4519,0.0,-0.4519,-0.4519,-0.4519,-0.4519,-0.4519,-0.4519,-0.4519,-0.4519,-0.4574,0.0,0.0,-0.5275,-0.5593,0.0,0.0,0.0,0.0,0.0,0.0,0.0,0.0,0.0,0.0,-0.7379,-0.6941,-0.6553,-0.6102,0.0,0.0,0.0,0.0,0.0,0.0,0.0,0.0,0.0,0.0,-0.7933,0.0,0.0,-1.0521,-1.1344,-1.2129,-1.2178,-1.2403,-1.2881,-1.2881,-1.2881,-1.2881,-1.3027,-1.3096,-1.3115,-1.3682,-1.4092,-1.4375,-1.4805,-1.5156,-1.541,-1.541,-1.541,-1.541,-1.541,-1.541,-1.541,-1.569,-1.5748,-1.5864,0.2399,0.0,0.0,0.0,0.0,0.0,0.0,0.0,0.0,0.0,0.4278,0.0,0.4519,0.0,0.4519,0.0,0.4519,0.4519,0.4519,0.3907,0.0,0.2921,0.1562,0.0,0.0,0.0,0.0396,0.0393,0.0119,0.0,0.0,0.0,0.0,0.0,0.0,0.0,0.0,0.0,-0.1201,0.0,0.0,-0.2361,0.0,0.0,-0.4015,-0.4519,0.0,-0.4519,-0.4519,-0.4519,-0.4519,-0.4519,-0.4519,-0.4519,-0.4519,-0.4519,-0.4519,-0.4519,-0.4519,-0.468,0.0,-0.5052,-0.553,0.0,-0.6344,0.0,0.0,0.0,0.0,0.0,0.0,0.0,-0.757,-0.6759,-0.6461,-0.6102,0.0,0.0,0.0,0.0,0.0,0.0,0.0,0.0,-0.5939,-0.654,-0.7005,0.0,0.0,0.0,-1.0648,-1.1756,-1.1814,-1.2129,-1.2881,-1.2657,-1.2657,-1.2881,-1.2618,-1.2666,-1.29,-1.3311,-1.374,-1.4107,-1.46,-1.5029,-1.541,-1.541,-1.541,-1.541,-1.541,-1.541,-1.541,-1.541,-1.541,-1.5468,0.0,0.0,0.0,0.0,0.3324,0.0,0.0,0.0,0.4529,0.0,0.4563,0.4563,0.4563,0.4563,0.4563,0.4563,0.4563,0.0,0.4519,0.4532,0.0,0.0,0.2943,0.249,0.3105,0.0,0.0,0.0,0.0,0.0,0.0,0.0,0.0,0.0,0.0,0.0,-0.0043,-0.077,-0.1051,-0.1118,-0.1786,-0.212,-0.212,-0.212,-0.3065,-0.4405,-0.4405,-0.4405,-0.446,-0.446,-0.446,-0.4519,-0.4519,-0.4519,-0.4519,-0.4519,-0.4519,-0.4519,-0.4519,-0.4948,-0.5391,-0.5117,-0.5629,0.0,0.0,0.0,-0.7164,0.0,0.0,0.0,0.0,0.0,-0.7834,-0.6308,-0.6372,-0.6293,0.0,0.0,0.0,0.0,0.0,0.0,0.0,0.0,-0.5292,-0.644,-0.6045,0.0,0.0,0.0,-0.9731,-1.1612,-1.1706,-1.203,-1.2774,-1.2129,-1.2138,-1.2774,-1.2138,-1.2187,-1.2842,-1.3241,-1.3659,-1.4107,-1.457,-1.5,-1.541,-1.541,-1.541,-1.541,-1.541,-1.541,-1.541,-1.541,-1.541,-1.541,0.2951,0.2825,0.291,0.0,0.35,0.4003,0.0,0.0,0.0,0.0,0.5195,0.5195,0.5195,0.5195,0.5195,0.5195,0.5195,0.0,0.0,0.0,0.0,0.4419,0.3135,0.2692,0.3303,0.1841,0.0,0.1107,0.0,0.0,0.0,0.0,0.0,0.0,0.0,0.0,0.0,-0.0194,-0.0263,-0.028,-0.0504,-0.0895,0.0,0.0,-0.1507,-0.2788,-0.2788,-0.3121,-0.3622,-0.3677,-0.407,-0.4519,-0.4519,-0.4519,-0.4519,-0.4519,-0.4519,-0.4519,-0.4519,-0.4625,-0.4721,-0.4685,-0.5002,-0.5392,0.0,0.0,0.0,0.0,0.0,0.0,0.0,0.0,0.0,-0.7186,-0.6838,-0.6433,0.0,0.0,0.0,0.0,0.0,0.0,0.0,-0.4997,-0.5291,-0.5625,-0.6079,0.0,0.0,0.0,-0.875,-0.9976,-1.0237,-1.0618,-1.1325,-1.1665,-1.1616,-1.1334,-1.1665,-1.1913,-1.208,-1.2181,-1.294,-1.4087,-1.4248,-1.4727,-1.541,-1.541,-1.541,-1.541,-1.541,-1.541,-1.541,-1.541,-1.541,-1.541,0.3282,0.0,0.0,0.389,0.0,0.0,0.4117,0.0,0.0,0.4985,0.526,0.0,0.5428,0.5428,0.5428,0.5428,0.5428,0.0,0.4937,0.0,0.0,0.4793,0.3883,0.3575,0.3938,0.2735,0.0,0.1974,0.0,0.0,0.0402,0.0,0.0,0.0,0.0,0.0,0.0,0.0,0.0,0.0,0.0,0.0,0.0,-0.0168,-0.0508,-0.1257,-0.1257,-0.1921,-0.2899,-0.3231,-0.3677,-0.407,-0.4405,-0.4519,-0.4519,-0.4519,-0.4519,-0.4532,-0.4601,-0.4562,-0.4562,-0.4562,-0.4772,-0.4934,-0.5096,-0.5536,-0.5886,0.0,-0.6212,-0.6494,0.0,0.0,0.0,0.0,0.0,0.0,0.0,0.0,0.0,0.0,0.0,0.0,-0.4655,-0.501,-0.5309,-0.5309,-0.5852,0.0,0.0,0.0,0.0,-0.9369,-0.9642,-1.0115,-1.0813,-1.0864,-1.0864,-1.0813,-1.0864,-1.1065,-1.1366,-1.1665,-1.247,-1.3692,-1.397,-1.4564,-1.541,-1.541,-1.541,-1.541,-1.541,-1.541,-1.541,-1.541,-1.541,-1.541,0.0,0.0,0.0,0.0,0.0,0.0,0.0,0.422,0.0,0.4508,0.0,0.5339,0.5418,0.5428,0.5428,0.5428,0.0,0.5428,0.5428,0.5428,0.5349,0.5171,0.4824,0.4663,0.466,0.3904,0.0,0.0,0.0,0.1498,0.093,0.0,0.0,0.0,0.0,0.0,0.0,0.0,0.0,0.0,0.0,0.0,0.0,0.0,0.0,0.0,0.0,-0.0871,-0.2148,-0.2824,-0.322,-0.3559,-0.4182,-0.4465,-0.4577,-0.4577,-0.4563,-0.458,-0.4677,-0.4707,-0.4697,-0.4714,-0.4704,-0.4734,-0.4992,-0.5234,-0.5279,-0.5076,-0.5704,-0.5977,-0.4816,0.0,0.0,0.0,0.0,0.0,0.0,0.0,0.0,0.0,0.0,0.0,0.0,-0.515,-0.5295,-0.5224,-0.5458,0.0,0.0,0.0,0.0,-0.9163,-0.9525,-0.9969,-1.0517,-1.0064,-1.0064,-1.0517,-1.0064,-1.0115,-1.0712,-1.1366,-1.2205,-1.3141,-1.3809,-1.4564,-1.541,-1.541,-1.541,-1.541,-1.541,-1.541,-1.541,-1.541,-1.541,-1.541,0.0,0.0,0.0,0.0,0.0,0.4821,0.5727,0.4619,0.3959,0.4453,0.4611,0.4869,0.5373,0.5428,0.5428,0.5428,0.5428,0.0,0.0,0.0,0.0,0.5377,0.5305,0.5047,0.457,0.4363,0.4105,0.0,0.2434,0.1539,0.106,0.1166,0.0,0.0,0.0,0.0,0.0,0.0,0.0,0.0,0.0,0.0,0.0,0.0,0.0,0.0,0.0,-0.0548,-0.1332,-0.1453,-0.2419,-0.3565,-0.3745,-0.4231,-0.484,-0.484,-0.4752,-0.4684,-0.484,-0.4785,-0.4721,-0.4847,-0.4782,-0.4735,-0.4734,-0.4699,-0.4673,-0.459,-0.4769,-0.491,-0.4979,0.0,0.0,0.0,0.0,0.0,0.0,0.0,0.0,0.0,0.0,0.0,0.0,0.0,-0.5177,0.0,0.0,0.0,0.0,0.0,0.0,0.0,-0.8677,0.0,0.0,0.0,-0.9562,-0.9159,-0.9614,-0.9865,-1.0012,-1.0669,-1.174,-1.3141,-1.3809,-1.4564,-1.541,-1.541,-1.541,-1.541,-1.541,-1.541,-1.541,-1.541,-1.541,-1.541,0.0,0.0,0.0,0.0,0.0,0.0,0.0,0.5528,0.0,0.5425,0.5463,0.5573,0.5868,0.5902,0.5772,0.5456,0.5428,0.5428,0.5428,0.5428,0.5428,0.5428,0.5428,0.0,0.4996,0.468,0.4426,0.4234,0.3236,0.2529,0.2076,0.1869,0.1513,0.101,0.0,0.0503,0.0,0.0,0.0,0.0,0.0,0.0,0.0,0.0,0.0,0.0,0.0,-0.0255,-0.0579,-0.0996,-0.1967,-0.3073,-0.3501,-0.4177,-0.4918,-0.4918,-0.4867,-0.4843,-0.4989,-0.4975,-0.4938,-0.5009,-0.4918,-0.4789,-0.4707,-0.4572,-0.4519,-0.4519,-0.4519,-0.4525,-0.4632,-0.4793,0.0,0.0,0.0,0.0,0.0,0.0,0.0,0.0,0.0,0.0,0.0,0.0,0.0,0.0,0.0,0.0,0.0,0.0,-0.7001,0.0,0.0,0.0,-0.8804,0.0,-0.9106,-0.8804,-0.9113,-0.9263,-0.9316,-0.9961,-1.0902,-1.2022,-1.3132,-1.4054,-1.4815,-1.5235,-1.541,-1.541,-1.541,-1.541,-1.541,-1.541,-1.541,-1.541,0.0,0.4622,0.0,0.0,0.4731,0.0,0.6191,0.6338,0.6338,0.6338,0.6338,0.6338,0.6338,0.6338,0.6146,0.5662,0.5621,0.5621,0.5621,0.55,0.5428,0.5428,0.5428,0.5428,0.5428,0.4893,0.4584,0.0,0.4045,0.3507,0.3008,0.2615,0.2241,0.1866,0.0,0.0,0.0,0.0,0.0118,0.0,0.0,0.0,0.0,0.0,0.0,0.0,0.0,0.0,-0.0067,-0.0702,-0.1505,-0.2379,-0.3192,-0.3882,-0.451,-0.4889,-0.4865,-0.4745,-0.5075,-0.5155,-0.5138,-0.5172,-0.507,-0.4925,-0.4772,-0.4619,-0.4556,-0.4525,-0.4519,-0.4429,-0.4314,-0.4241,0.0,0.0,0.0,0.0,0.0,0.0,0.0,0.0,0.0,0.0,0.0,0.0,0.0,0.0,0.0,0.0,-0.5344,0.0,0.0,0.0,0.0,-0.8484,-0.8711,0.0,-0.8804,-0.8804,-0.8804,-0.8804,-0.8804,-0.9582,-1.0294,-1.0963,-1.2329,-1.3441,-1.4273,-1.505,-1.541,-1.541,-1.541,-1.541,-1.541,-1.541,-1.541,-1.541,0.0,0.0,0.0,0.0,0.0,0.0,0.6321,0.6338,0.6338,0.6338,0.6338,0.6338,0.6338,0.6338,0.6314,0.6259,0.6252,0.6252,0.6252,0.5734,0.5428,0.5428,0.5428,0.5428,0.5428,0.5043,0.4741,0.0,0.0,0.3944,0.311,0.3162,0.3055,0.2756,0.2285,0.0,0.0,0.0983,0.0598,0.0,0.0,0.0,0.0,0.0,0.0,0.0,0.0,0.0,0.0,-0.0067,-0.0667,-0.1596,-0.2525,-0.2856,-0.3253,-0.4851,-0.4696,-0.411,-0.5098,-0.5237,-0.5165,-0.5304,-0.5223,-0.5074,-0.4928,-0.4779,-0.4629,-0.4546,-0.4519,-0.4515,-0.4498,-0.4498,-0.445,0.0,0.0,0.0,0.0,0.0,0.0,0.0,0.0,0.0,0.0,0.0,0.0,0.0,0.0,0.0,0.0,0.0,0.0,-0.7842,-0.8216,-0.839,-0.8417,-0.8677,-0.8804,-0.8804,-0.8804,-0.8804,-0.8811,-0.9814,-1.0512,-1.0978,-1.1986,-1.3117,-1.4273,-1.505,-1.541,-1.541,-1.541,-1.541,-1.541,-1.541,-1.541,-1.541,0.0,0.0,0.0,0.0,0.0,0.0,0.0,0.6338,0.6338,0.6338,0.6338,0.6338,0.6338,0.6338,0.6338,0.6338,0.6338,0.6338,0.6338,0.6108,0.5974,0.5974,0.5974,0.5813,0.563,0.5335,0.5125,0.0,0.0,0.0,0.3917,0.3605,0.3155,0.257,0.2313,0.1534,0.0417,0.043,0.0251,0.0,0.0,0.0,0.0,0.0,0.0,0.0,0.0,0.0,0.0,0.0,-0.0605,-0.134,-0.1742,-0.2275,-0.2945,-0.4217,-0.4249,-0.4156,-0.514,-0.5318,-0.5284,-0.5411,-0.5243,-0.5094,-0.4952,-0.4802,-0.4646,-0.4549,-0.4519,-0.4519,-0.4519,-0.4519,-0.4498,-0.4385,0.0,0.0,0.0,0.0,0.0,0.0,0.0,0.0,0.0,0.0,0.0,0.0,0.0,-0.4355,-0.5113,-0.5691,0.0,-0.7311,0.0,-0.8427,-0.8427,-0.8664,-0.8804,-0.8804,-0.8804,-0.8804,-0.8818,-0.937,-1.0207,-1.1158,-1.1796,-1.2567,-1.3485,-1.3855,-1.4273,-1.4688,-1.4688,-1.4991,-1.541,-1.541,-1.541,-1.541,1.1463,0.0,0.6519,0.0,0.6519,0.6519,0.6519,0.6519,0.6519,0.6519,0.6519,0.6454,0.6281,0.6338,0.6338,0.6338,0.6338,0.6338,0.6338,0.6338,0.6338,0.6338,0.6338,0.0,0.5942,0.5644,0.5447,0.5428,0.4996,0.0,0.4508,0.4086,0.3645,0.3164,0.2696,0.1887,0.0751,0.0767,0.0454,0.0,0.0,0.0,0.0,0.0,0.0,0.0,0.0,0.0,0.0,0.0,-0.0404,-0.0939,-0.1207,-0.1608,-0.2144,-0.328,-0.3613,-0.3813,-0.4755,-0.516,-0.5428,-0.5428,-0.5281,-0.5148,-0.4962,-0.4833,-0.4701,-0.456,-0.4519,-0.4519,-0.4519,-0.4519,-0.4501,-0.4406,0.0,0.0,0.0,0.0,0.0,0.0,0.0,-0.3728,-0.3848,0.0,0.0,0.0,0.0,-0.4406,-0.5117,-0.5834,0.0,0.0,0.0,0.0,-0.8427,-0.8664,-0.8804,-0.8804,-0.8804,-0.8804,-0.8824,-0.9198,-0.9969,-1.1141,-1.1606,-1.2143,-1.2696,-1.2887,-1.3304,-1.3846,-1.4094,-1.4569,-1.505,-1.5294,-1.541,-1.541,1.3587,1.0326,0.7129,0.7129,0.7129,0.7129,0.7129,0.7129,0.7129,0.7129,0.7129,0.6909,0.6325,0.6338,0.6338,0.6338,0.6338,0.6338,0.6338,0.6338,0.6338,0.0,0.0,0.6335,0.6254,0.5952,0.5654,0.5428,0.0,0.0,0.4519,0.4512,0.4725,0.4988,0.3791,0.2991,0.2442,0.2444,0.1506,0.0,0.0,0.0,0.0,0.0,0.0,0.0,0.0,0.0,0.0,0.0,0.0,-0.0135,-0.1006,-0.0739,-0.0404,-0.2211,-0.2744,-0.2878,-0.3749,-0.4686,-0.5428,-0.5428,-0.5425,-0.5281,-0.4986,-0.4918,-0.483,-0.458,-0.4519,-0.4519,-0.4519,-0.4519,-0.4416,-0.422,0.0,0.0,0.0,0.0,0.0,0.0,-0.3581,-0.337,-0.3605,0.0,0.0,0.0,0.0,-0.488,-0.5913,0.0,0.0,-0.7289,-0.8005,0.0,-0.8427,-0.8664,-0.8804,-0.8804,-0.8804,-0.8804,-0.8824,-0.9412,-1.006,-1.0681,-1.1469,-1.1834,-1.1896,-1.2696,-1.3009,-1.307,-1.3914,-1.4213,-1.4323,-1.5108,-1.541,-1.541,1.3941,1.2869,1.1906,1.1906,1.1906,1.1906,1.1906,0.9135,0.7139,0.7139,0.7139,0.7068,0.6881,0.6502,0.6338,0.0,0.6338,0.6338,0.0,0.6338,0.6338,0.6338,0.6338,0.6338,0.6338,0.6166,0.6067,0.605,0.0,0.0,0.5143,0.5281,0.5335,0.527,0.5071,0.4382,0.3432,0.3063,0.2603,0.2128,0.2128,0.1703,0.1063,0.1113,0.0623,0.0,0.0,0.0,0.0,0.0,0.0,-0.0067,-0.0337,-0.0202,-0.0202,-0.1408,-0.1742,-0.2075,-0.3613,-0.4215,-0.4619,-0.5226,-0.5428,-0.5308,-0.5111,-0.4908,-0.4707,-0.456,-0.4519,-0.4519,-0.4519,-0.4519,-0.4501,-0.4402,-0.4433,0.0,0.0,0.0,0.0,0.0,-0.3909,-0.3826,0.0,-0.3788,0.0,0.0,0.0,0.0,0.0,0.0,0.0,0.0,-0.7986,0.0,-0.8377,-0.8664,-0.8804,-0.8804,-0.8804,-0.8911,-0.9112,-0.9506,-0.9893,-1.0267,-1.0774,-1.0989,-1.0982,-1.1233,-1.1663,-1.2205,-1.2443,-1.287,-1.3425,-1.3674,-1.3786,-1.3846,1.4088,1.4088,1.4088,1.4088,1.4088,1.4088,1.4088,1.1649,0.9744,0.9744,0.8185,0.7139,0.7139,0.681,0.0,0.659,0.659,0.6495,0.6274,0.6338,0.6338,0.6338,0.6338,0.6338,0.6338,0.6338,0.0,0.6338,0.6338,0.6143,0.5775,0.5888,0.5878,0.5775,0.5902,0.5475,0.4613,0.3909,0.3411,0.3123,0.3123,0.2688,0.2104,0.1713,0.142,0.1135,0.0768,0.0624,0.0624,0.0624,0.0347,0.0,0.0,0.0,-0.0137,-0.0674,-0.1074,-0.1608,-0.3078,-0.3747,-0.4215,-0.516,-0.5428,-0.5321,-0.5165,-0.4901,-0.4663,-0.4568,-0.456,-0.4519,-0.4519,-0.4519,-0.4519,-0.4519,-0.4519,-0.4519,-0.4519,0.0,0.0,0.0,0.0,0.0,0.0,-0.3985,-0.4108,0.0,0.0,0.0,0.0,0.0,-0.699,-0.6886,-0.8146,-0.8717,-0.8537,-0.8717,-0.8804,-0.8804,-0.8804,-0.9018,-0.9412,-0.9599,-0.99,-1.0294,-1.0481,-1.0624,-1.0624,-1.0624,-1.0926,-1.1406,-1.171,-1.2197,-1.2757,-1.3122,-1.3061,-1.2757,1.4088,1.4088,1.4088,1.4088,1.4088,1.4088,1.4088,1.4088,1.3997,1.3652,0.9831,0.7139,0.7139,0.7401,0.7489,0.7139,0.0,0.0,0.6359,0.6322,0.6322,0.6322,0.6281,0.6338,0.6338,0.6338,0.6338,0.6338,0.6338,0.6338,0.6338,0.6338,0.6338,0.6338,0.6338,0.6232,0.5976,0.4991,0.4155,0.3285,0.3285,0.3285,0.314,0.2187,0.2331,0.2985,0.2037,0.1672,0.1672,0.16,0.0946,0.0073,0.0,0.0,0.0,0.0,-0.0606,-0.1408,-0.2344,-0.3211,-0.4082,-0.5024,-0.5359,-0.5321,-0.5165,-0.4911,-0.4704,-0.4694,-0.4568,-0.4519,-0.4519,-0.4519,-0.4519,-0.4519,-0.4519,-0.4519,-0.4519,0.0,0.0,0.0,0.0,0.0,-0.405,-0.4127,-0.4207,0.0,0.0,0.0,0.0,0.0,-0.7631,-0.77,-0.8427,-0.8804,-0.8804,-0.8804,-0.8804,-0.8804,-0.8831,-0.9125,-0.9653,-0.9693,-1.0013,-1.0598,-1.0618,-1.0624,-1.0624,-1.0624,-1.0624,-1.0681,-1.1406,-1.1896,-1.2189,-1.3235,-1.2931,-1.2066,1.4088,0.0,1.4088,1.4088,1.4088,1.4088,1.4088,1.4088,1.2778,0.9222,0.7749,0.7139,0.7139,1.0265,1.0956,0.7401,0.7139,0.7082,0.6943,0.6932,0.6932,0.6932,0.6502,0.6338,0.6338,0.6338,0.6338,0.6338,0.6338,0.6338,0.6338,0.6338,0.6338,0.6338,0.6338,0.6311,0.619,0.6007,0.5765,0.5536,0.5536,0.5073,0.4292,0.4061,0.3587,0.3058,0.2853,0.2761,0.2616,0.189,0.1454,0.1091,0.0291,0.0,0.0,0.0,-0.0137,-0.0471,-0.1408,-0.1808,-0.2342,-0.3949,-0.4888,-0.5321,-0.5165,-0.4992,-0.483,-0.4714,-0.4568,-0.4519,-0.4519,-0.4519,-0.4519,-0.4519,-0.4519,-0.4519,-0.4519,-0.4433,0.0,0.0,-0.4379,-0.4358,-0.4358,-0.4389,-0.4365,0.0,0.0,0.0,-0.6171,-0.7454,-0.8049,-0.7711,-0.8427,-0.8804,-0.8804,-0.8804,-0.8804,-0.8811,-0.9031,-0.9157,-0.9359,-0.9813,-1.0087,-1.0234,-1.0461,-1.0624,-1.0624,-1.0624,-1.0624,-1.0624,-1.0807,-1.0926,-1.0989,-1.1233,-1.117,-1.1045,1.4776,1.4883,1.4883,1.4883,1.4883,1.4883,1.4883,1.4883,1.3962,1.1395,0.8731,0.7139,0.7139,0.9396,0.9831,0.7312,0.7139,0.7139,0.7139,0.7139,0.7139,0.7139,0.6834,0.6664,0.6664,0.6488,0.642,0.6461,0.642,0.6352,0.6338,0.6338,0.6338,0.6338,0.6338,0.6338,0.6338,0.6338,0.6338,0.6338,0.6338,0.5944,0.5386,0.4849,0.4675,0.4518,0.4002,0.3832,0.3757,0.3231,0.2406,0.1506,0.0904,0.0374,0.0,0.0,0.0,-0.0206,-0.1094,-0.1286,-0.1742,-0.3547,-0.4688,-0.5342,-0.5254,-0.5121,-0.4992,-0.4908,-0.4718,-0.4565,-0.4565,-0.4567,-0.4519,-0.4519,-0.4519,-0.4519,-0.4519,-0.4519,-0.4519,-0.4519,-0.4519,-0.4519,-0.4519,-0.4519,-0.4429,-0.4351,-0.5611,0.0,-0.6029,-0.7298,-0.8111,-0.8209,-0.8593,-0.8804,-0.8804,-0.8804,-0.8804,-0.8811,-0.8965,-0.9185,-0.9452,-0.9773,-1.0067,-1.0327,-1.0488,-1.0624,-1.0624,-1.0624,-1.0624,-1.0624,-1.0624,-1.0624,-1.0624,-1.0624,-1.0624,-1.0681,1.5631,1.5832,1.5832,1.5832,1.5832,1.5832,1.5832,1.5832,1.5832,1.5832,1.1456,0.8387,0.8193,0.8185,0.7834,0.7139,0.7139,0.7139,0.7139,0.7139,0.7139,0.7139,0.7139,0.7139,0.7139,0.6787,0.6641,0.6722,0.6641,0.6502,0.6386,0.6335,0.6332,0.6383,0.6295,0.6281,0.6338,0.6338,0.6338,0.6338,0.6338,0.6338,0.6183,0.5315,0.5473,0.618,0.5237,0.4921,0.4924,0.4766,0.3517,0.2036,0.1724,0.1005,0.0228,0.0076,0.0,-0.0142,-0.0916,-0.1172,-0.1683,-0.3416,-0.4483,-0.5226,-0.5362,-0.5243,-0.5131,-0.5131,-0.4897,-0.4691,-0.4691,-0.4565,-0.4519,-0.4519,-0.4519,-0.4519,-0.4519,0.0,-0.4519,-0.4519,-0.4519,-0.4519,-0.4519,-0.4519,-0.4519,-0.4519,-0.5714,-0.6145,-0.5538,-0.6794,-0.783,-0.8427,-0.8586,-0.8699,-0.8804,-0.8804,-0.8804,-0.8804,-0.8898,-0.9198,-0.9686,-0.9773,-1.0147,-1.0624,-1.0624,-1.0624,-1.0624,-1.0624,-1.0624,-1.0624,-1.0624,-1.0624,-1.0624,-1.0624,-1.0624,-1.0624,1.5792,1.5832,1.5832,1.5832,1.5832,1.5832,1.5832,1.5832,1.5832,1.5832,1.4993,1.4056,1.3138,1.3039,1.1391,0.7489,0.7139,0.7139,0.7139,0.7139,0.7139,0.7139,0.7139,0.7139,0.7139,0.6915,0.6803,0.682,0.6803,0.6702,0.6519,0.6675,0.6664,0.6512,0.6461,0.6373,0.6338,0.6338,0.6338,0.6338,0.6338,0.6338,0.6261,0.6103,0.618,0.6261,0.6103,0.6025,0.5944,0.5002,0.4453,0.3908,0.2193,0.1485,0.1169,0.0234,0.0,0.0,-0.0146,-0.0709,-0.1587,-0.2626,-0.3547,-0.4417,-0.5226,-0.5243,-0.5131,-0.5131,-0.4897,-0.4691,-0.4691,-0.4565,-0.4519,-0.4519,-0.4519,-0.4519,-0.4519,0.0,-0.4519,-0.4519,-0.4519,-0.4519,-0.4519,-0.4519,-0.4519,-0.4519,-0.5218,-0.5597,-0.5487,-0.6308,-0.6804,-0.6912,-0.7563,-0.8156,-0.8804,-0.8804,-0.8804,-0.8811,-0.9312,-0.9599,-0.9699,-1.0262,-1.0537,-1.0624,-1.0624,-1.0624,-1.0624,-1.0624,-1.0624,-1.0624,-1.0624,-1.0624,-1.0624,-1.0624,-1.0624,-1.0624,1.5832,1.5832,1.5832,1.5832,1.5832,1.5832,1.5832,1.5832,1.5832,1.5832,1.5832,1.5625,1.5084,1.503,1.3856,1.1084,1.0869,0.9831,0.7228,0.9483,0.9744,0.7228,0.7139,0.7139,0.7139,0.7048,0.7004,0.7004,0.7004,0.6956,0.6871,0.6851,0.6793,0.6709,0.663,0.6559,0.6498,0.6498,0.6498,0.6498,0.6498,0.6498,0.6498,0.6498,0.6447,0.6376,0.6376,0.6325,0.6257,0.5709,0.5157,0.4453,0.2891,0.2035,0.1411,0.0314,0.0,0.0,0.0,-0.0642,-0.1393,-0.1855,-0.2976,-0.4082,-0.4553,-0.497,-0.5254,-0.5254,-0.5081,-0.4904,-0.4826,-0.4687,-0.4585,-0.4585,-0.4573,-0.4546,-0.4572,-0.457,-0.4519,-0.4519,-0.4519,-0.4519,-0.4519,-0.4519,-0.4519,-0.4519,-0.5109,-0.5324,-0.5003,-0.5601,-0.5982,-0.5982,-0.6745,-0.7289,-0.7616,-0.7616,-0.783,-0.8215,-0.867,-0.9182,-0.9699,-1.0127,-1.0408,-1.0624,-1.0624,-1.0624,-1.0624,-1.0624,-1.0624,-1.0624,-1.0624,-1.0624,-1.0624,-1.0624,-1.0624,-1.0624,1.5832,1.5832,1.5832,1.5832,1.5832,1.5832,1.5832,1.5832,1.5832,1.5832,1.5832,1.5832,1.5832,1.5832,1.5471,1.4569,1.4496,1.2865,0.8973,1.2083,1.2516,0.8877,0.7661,0.7139,0.7139,0.7139,0.7139,0.7139,0.7139,0.7139,0.7136,0.698,0.6892,0.6858,0.6787,0.6732,0.6702,0.6702,0.6702,0.6702,0.6702,0.6702,0.6702,0.6702,0.6627,0.6525,0.6525,0.6434,0.6312,0.6312,0.5811,0.4921,0.3826,0.2971,0.2036,0.0784,0.0232,0.0,0.0,-0.0507,-0.1065,-0.1261,-0.2335,-0.3439,-0.3618,-0.4284,-0.4755,-0.4755,-0.4649,-0.4523,-0.4612,-0.454,-0.4494,-0.4697,0.0,-0.4545,-0.4626,-0.4591,-0.4519,-0.4519,-0.4519,-0.4519,-0.4519,-0.4519,-0.4519,-0.4519,-0.5003,-0.5058,-0.4515,-0.5003,-0.5273,-0.5273,-0.6145,-0.6588,-0.6588,-0.6588,-0.6885,-0.7541,-0.7846,-0.8392,-0.9191,-0.9461,-0.9837,-1.0301,-1.0301,-1.0428,-1.0624,-1.0624,-1.0624,-1.0624,-1.0624,-1.0624,-1.0624,-1.0624,-1.0624,-1.0624,1.5832,1.5832,1.5832,1.5832,1.5832,1.5832,1.5832,1.5832,1.5832,1.5832,1.5832,1.5832,1.5832,1.5832,1.5792,1.5712,1.5698,1.5054,1.3717,1.3913,1.3913,1.3568,0.9396,0.7139,0.7139,0.7139,0.7139,0.7139,0.7139,0.7139,0.7139,0.7126,0.7048,0.6922,0.6915,0.6834,0.6702,0.6702,0.6702,0.6702,0.6702,0.6702,0.6702,0.6702,0.6695,0.6681,0.6681,0.6586,0.6458,0.6458,0.6369,0.6022,0.4924,0.453,0.4064,0.2036,0.0784,0.0,0.0,-0.0075,-0.0298,-0.1132,-0.1395,-0.1728,-0.2626,-0.2878,-0.2878,-0.2878,-0.2818,-0.2953,-0.3707,-0.3745,-0.3882,-0.4594,0.0,0.0,-0.4553,-0.4525,-0.4519,-0.4519,-0.4519,-0.4519,-0.4519,-0.4519,-0.4519,-0.4519,-0.4574,-0.457,-0.4519,-0.4574,-0.457,-0.457,-0.5882,-0.6588,-0.6588,-0.6588,-0.6743,-0.6941,-0.7221,-0.7446,-0.7675,-0.8027,-0.8597,-0.9402,-0.9402,-0.9849,-1.0624,-1.0624,-1.0624,-1.0624,-1.0624,-1.0624,-1.0624,-1.0624,-1.0624,-1.0624,1.5832,1.5832,1.5832,1.5832,1.5832,1.5832,1.5832,1.5832,1.5832,1.5832,1.5832,1.5832,1.5832,1.5832,1.5832,1.5832,1.5832,1.5638,1.5197,1.517,1.4843,1.4122,1.2431,1.1477,1.1477,0.8619,0.7837,0.9309,0.7837,0.7489,0.8193,0.7489,0.7112,0.7058,0.7058,0.7027,0.6973,0.6973,0.6973,0.6973,0.6973,0.6973,0.6973,0.6973,0.6919,0.6844,0.6844,0.6746,0.6614,0.6614,0.6515,0.6232,0.5192,0.4744,0.4297,0.2192,0.1333,0.0861,0.0155,0.0,-0.0075,-0.0443,-0.0932,-0.1393,-0.1723,-0.2306,-0.2678,-0.2678,-0.2656,-0.2689,-0.2963,-0.3369,-0.3833,-0.41,0.0,-0.4843,-0.487,-0.4802,-0.4745,-0.4745,-0.4745,-0.4745,-0.4745,-0.466,-0.4606,-0.4606,-0.4573,-0.4519,-0.4519,-0.4519,-0.4519,-0.4519,-0.5011,-0.5281,-0.5281,-0.5281,-0.5588,-0.623,-0.6484,-0.6927,-0.7514,-0.7861,-0.8484,-0.9274,-0.9274,-0.9786,-1.0624,-1.0624,-1.0624,-1.0624,-1.0624,-1.0624,-1.0624,-1.0624,-1.0624,-1.0624,1.5832,1.5832,1.5832,1.5832,1.5832,1.5832,1.5832,1.5832,1.5832,1.5832,1.5832,1.5832,1.5832,1.5832,1.5832,1.5832,1.5832,1.5832,1.5832,1.5832,1.5471,1.4669,1.4282,1.4088,1.4088,1.0956,0.9744,1.0611,0.879,0.8189,0.889,0.7665,0.7139,0.7139,0.7139,0.7139,0.7139,0.7139,0.7139,0.7139,0.7139,0.7139,0.7139,0.7139,0.7082,0.6997,0.6997,0.6898,0.6773,0.6773,0.6671,0.6461,0.5728,0.5154,0.4496,0.2979,0.2115,0.1411,0.0706,0.0233,0.0,0.0,-0.0442,-0.0856,-0.0913,-0.1378,-0.1829,-0.188,-0.1877,-0.1933,-0.2093,-0.2601,-0.3109,-0.3339,-0.4037,-0.4563,-0.4612,-0.4794,-0.4918,-0.4918,-0.4918,-0.4918,-0.4918,-0.4823,-0.4762,-0.4762,-0.4663,-0.4606,-0.4606,-0.4606,-0.4606,-0.4606,-0.4606,-0.4606,-0.4606,-0.4558,-0.4894,-0.5514,-0.5743,-0.6228,-0.6858,-0.7057,-0.7637,-0.8484,-0.8748,-0.9396,-1.0238,-1.0491,-1.0624,-1.0624,-1.0624,-1.0624,-1.0624,-1.0624,-1.0624,-1.0624,1.5832,1.5832,1.5832,1.5832,1.5832,1.5832,1.5832,1.5832,1.5832,1.5832,1.5832,1.5832,1.5832,1.5832,1.5832,1.5832,1.5832,1.5832,1.5832,1.5832,1.5832,1.5832,1.4716,1.4102,1.4102,1.4088,1.2954,1.0611,0.9836,0.9318,0.889,0.7665,0.7139,0.7139,0.7139,0.7139,0.7139,0.7139,0.7139,0.7139,0.7139,0.7139,0.7139,0.7139,0.7139,0.7139,0.7139,0.7051,0.6929,0.6929,0.6827,0.6702,0.6702,0.5855,0.4916,0.4721,0.3207,0.1646,0.1646,0.0863,0.0,0.0,0.0,0.0,0.0,0.0,0.0,0.0,0.0,-0.0269,-0.114,-0.1273,-0.1595,-0.2391,-0.3209,-0.3746,-0.364,-0.4366,-0.4921,-0.4921,-0.4921,-0.4921,-0.4921,-0.4921,-0.4921,-0.4921,-0.4918,-0.4918,-0.4918,-0.4918,-0.4918,-0.4918,-0.4918,-0.4918,-0.4918,-0.4769,-0.4769,-0.4921,-0.5064,-0.5213,-0.5428,-0.5428,-0.5881,-0.6719,-0.7632,-0.8484,-0.9338,-1.0238,-1.0561,-1.0624,-1.0624,-1.0624,-1.0624,-1.0624,-1.0624,-1.0624,1.5832,1.5832,1.5832,1.5832,1.5832,1.5832,1.5832,1.5832,1.5832,1.5832,1.5832,1.5832,1.5832,1.5832,1.5832,1.5832,1.5832,1.5832,1.5832,1.5832,1.5832,1.5832,1.5498,1.5311,1.5311,1.4509,1.3737,1.3039,1.1219,0.9918,0.9318,0.7837,0.7139,0.7139,0.7139,0.7139,0.7139,0.7139,0.7139,0.7139,0.7139,0.7139,0.7139,0.7139,0.7139,0.7139,0.7139,0.7112,0.7078,0.7078,0.698,0.6844,0.6732,0.6348,0.5898,0.5058,0.4356,0.3595,0.2891,0.1879,0.094,0.0156,0.0,0.0,0.0,0.0,0.0,0.0,0.0,-0.0067,-0.0337,-0.0873,-0.1403,-0.1591,-0.2446,-0.3228,-0.3791,-0.4113,-0.4508,-0.5165,-0.523,-0.523,-0.523,-0.5131,-0.5067,-0.5067,-0.4975,-0.4918,-0.4918,-0.4918,-0.4918,-0.4918,-0.4918,-0.4918,-0.4918,-0.4874,-0.4925,-0.5067,-0.5111,-0.5213,-0.5428,-0.5428,-0.5881,-0.6719,-0.6981,-0.7962,-0.9338,-0.9594,-1.0047,-1.0624,-1.0624,-1.0624,-1.0624,-1.0624,-1.0624,-1.0624,1.5832,1.5832,1.5832,1.5832,1.5832,1.5832,1.5832,1.5832,1.5832,1.5832,1.5832,1.5832,1.5832,1.5832,1.5832,1.5832,1.5832,1.5832,1.5832,1.5832,1.5832,1.5832,1.5832,1.5832,1.5832,1.5137,1.4776,1.4776,1.3314,1.2338,1.1671,0.8625,0.7545,0.8027,0.7497,0.7255,0.7139,0.7139,0.7139,0.7139,0.7139,0.7139,0.7139,0.7139,0.7139,0.7139,0.7139,0.7139,0.7139,0.7139,0.7085,0.6987,0.6837,0.6725,0.6558,0.584,0.5248,0.4676,0.3961,0.2992,0.2034,0.1409,0.062,0.0,0.0,0.0,0.0,0.0,0.0,0.0,0.0,-0.0407,-0.0806,-0.0806,-0.1542,-0.2344,-0.2878,-0.328,-0.368,-0.4284,-0.4622,-0.4821,-0.4821,-0.5078,-0.522,-0.522,-0.5142,-0.5094,-0.5094,-0.5094,-0.5094,-0.5094,-0.5094,-0.5094,-0.5094,-0.5094,-0.5108,-0.5131,-0.5192,-0.527,-0.5428,-0.5428,-0.5686,-0.6203,-0.6527,-0.7307,-0.8285,-0.8613,-0.9069,-0.9582,-0.9582,-0.9779,-1.011,-1.011,-1.0301,-1.0624,1.5832,1.5832,1.5832,1.5832,1.5832,1.5832,1.5832,1.5832,1.5832,1.5832,1.5832,1.5832,1.5832,1.5832,1.5832,1.5832,1.5832,1.5832,1.5832,1.5832,1.5832,1.5832,1.5832,1.5832,1.5832,1.5832,1.5832,1.5832,1.5832,1.5645,1.5192,1.0338,0.8629,0.9537,0.8348,0.7639,0.7368,0.7173,0.7173,0.718,0.718,0.7187,0.719,0.7173,0.7166,0.716,0.7146,0.7139,0.7139,0.7139,0.7139,0.7115,0.699,0.6939,0.6902,0.6763,0.5952,0.5033,0.5023,0.4143,0.3288,0.3281,0.1721,0.0234,0.0153,0.0076,0.0,0.0,0.0,0.0,0.0,0.0,0.0,0.0,-0.0673,-0.1207,-0.1273,-0.2009,-0.2611,-0.2678,-0.3413,-0.3882,-0.4015,-0.4821,-0.5428,-0.5428,-0.5428,-0.5428,-0.5428,-0.5428,-0.5428,-0.5428,-0.5428,-0.5428,-0.5428,-0.5428,-0.5291,-0.5152,-0.5294,-0.5428,-0.5428,-0.5428,-0.5428,-0.5428,-0.6268,-0.6654,-0.6785,-0.7567,-0.7962,-0.8027,-0.8027,-0.8484,-0.9204,-0.9204,-0.9722,-1.0491,1.5832,1.5832,1.5832,1.5832,1.5832,1.5832,1.5832,1.5832,1.5832,1.5832,1.5832,1.5832,1.5832,1.5832,1.5832,1.5832,1.5832,1.5832,1.5832,1.5832,1.5832,1.5832,1.5832,1.5832,1.5832,1.5832,1.5832,1.5832,1.5832,1.5785,1.5604,1.4553,1.2581,1.0135,0.9857,0.972,0.9537,0.7982,0.7424,0.7502,0.7502,0.7543,0.7594,0.7434,0.7353,0.7305,0.7183,0.7139,0.7139,0.7139,0.7139,0.7136,0.7102,0.7017,0.6922,0.6888,0.6602,0.6292,0.618,0.5319,0.448,0.4394,0.3359,0.2186,0.1401,0.0614,0.0,0.0,0.0,0.0,0.0,0.0,0.0,0.0,-0.0137,-0.0538,-0.1207,-0.1474,-0.1876,-0.2611,-0.2878,-0.3278,-0.3949,-0.4821,-0.5428,-0.5428,-0.5428,-0.5428,-0.5428,-0.5428,-0.5428,-0.5428,-0.5428,-0.5428,-0.5428,-0.5428,-0.5345,-0.5311,-0.5411,-0.5428,-0.5428,-0.5428,-0.5428,-0.5428,-0.5624,-0.6075,-0.6719,-0.6915,-0.7372,-0.8027,-0.8027,-0.8091,-0.8285,-0.8285,-0.8812,-0.9658,1.5832,1.5832,1.5832,1.5832,1.5832,1.5832,1.5832,1.5832,1.5832,1.5832,1.5832,1.5832,1.5832,1.5832,1.5832,1.5832,1.5832,1.5832,1.5832,1.5832,1.5832,1.5832,1.5832,1.5832,1.5832,1.5832,1.5832,1.5832,1.5832,1.5832,1.5832,1.5832,1.4747,1.2847,1.2083,1.1702,1.1592,1.0122,0.8753,0.7665,0.7665,0.7695,0.7726,0.7624,0.7495,0.736,0.7278,0.7204,0.7139,0.7139,0.7139,0.7139,0.7139,0.7088,0.7031,0.7031,0.6926,0.6793,0.6712,0.6172,0.5648,0.5577,0.4724,0.3593,0.2581,0.1859,0.1306,0.0846,0.0755,0.0593,0.0074,0.0,0.0,0.0,0.0,-0.0137,-0.0617,-0.0678,-0.0873,-0.1343,-0.181,-0.241,-0.3278,-0.3816,-0.4084,-0.4084,-0.4486,-0.4755,-0.4755,-0.516,-0.5428,-0.5428,-0.5428,-0.5428,-0.5428,-0.5428,-0.5428,-0.5428,-0.5428,-0.5428,-0.5428,-0.5428,-0.5428,-0.5428,-0.5428,-0.5686,-0.6075,-0.6075,-0.6338,-0.6728,-0.6728,-0.6985,-0.7372,-0.7372,-0.8091,-0.9198,1.5832,1.5832,1.5832,1.5832,1.5832,1.5832,1.5832,1.5832,1.5832,1.5832,1.5832,1.5832,1.5832,1.5832,1.5832,1.5832,1.5832,1.5832,1.5832,1.5832,1.5832,1.5832,1.5832,1.5832,1.5832,1.5832,1.5832,1.5832,1.5832,1.5832,1.5832,1.5832,1.5832,1.573,1.4268,1.368,1.3573,1.2506,1.0772,0.8737,0.8549,0.8265,0.8072,0.8044,0.7809,0.7444,0.7417,0.7312,0.7177,0.7149,0.7139,0.7139,0.7139,0.7139,0.7139,0.7139,0.7058,0.6959,0.6936,0.6742,0.6546,0.6519,0.5756,0.4792,0.3849,0.3366,0.289,0.2035,0.1696,0.1293,0.0457,0.0149,0.0,0.0,0.0,0.0,0.0,0.0,0.0,0.0,-0.0741,-0.1608,-0.2409,-0.2611,-0.2678,-0.2678,-0.3347,-0.3749,-0.3749,-0.4686,-0.516,-0.516,-0.5296,-0.5428,-0.5428,-0.5428,-0.5428,-0.5428,-0.5428,-0.5428,-0.5428,-0.5428,-0.5428,-0.5428,-0.5428,-0.5428,-0.5428,-0.5428,-0.5428,-0.5428,-0.5428,-0.5815,-0.6527,-0.6654,-0.7437,-0.8678,1.5832,1.5832,1.5832,1.5832,1.5832,1.5832,1.5832,1.5832,1.5832,1.5832,1.5832,1.5832,1.5832,1.5832,1.5832,1.5832,1.5832,1.5832,1.5832,1.5832,1.5832,1.5832,1.5832,1.5832,1.5832,1.5832,1.5832,1.5832,1.5832,1.5832,1.5832,1.5832,1.5832,1.5825,1.554,1.5439,1.5337,1.413,1.3431,1.2934,1.1788,1.0626,0.9641,0.9573,0.8825,0.7736,0.7611,0.7468,0.7319,0.7183,0.7139,0.7139,0.7139,0.7139,0.7139,0.7139,0.7126,0.7085,0.6963,0.6898,0.6834,0.6702,0.6471,0.6198,0.6039,0.4516,0.3046,0.289,0.2186,0.156,0.1404,0.0612,0.0,0.0,0.0,0.0,0.0,0.0,0.0,0.0,-0.075,-0.134,-0.1474,-0.2209,-0.2678,-0.2678,-0.2811,-0.2878,-0.2878,-0.368,-0.4217,-0.4217,-0.4957,-0.5428,-0.5428,-0.5428,-0.5428,-0.5428,-0.5428,-0.5428,-0.5428,-0.5428,-0.5428,-0.5428,-0.5428,-0.5428,-0.5428,-0.5428,-0.5428,-0.5428,-0.5428,-0.5491,-0.5686,-0.6396,-0.6976,-0.7432,1.9852,1.9852,1.9852,1.9852,1.9852,1.9852,1.9852,1.7569,1.5832,1.5832,1.5832,1.5832,1.5832,1.5832,1.5832,1.5832,1.5832,1.5832,1.5832,1.5832,1.5832,1.5832,1.5832,1.5832,1.5832,1.5832,1.5832,1.5832,1.5832,1.5832,1.5832,1.5832,1.5832,1.5832,1.5832,1.5832,1.573,1.5242,1.4949,1.4949,1.4274,1.2915,1.1063,1.0969,1.0092,0.8829,0.7861,0.7468,0.7383,0.72,0.7139,0.7139,0.7139,0.7139,0.7139,0.7139,0.7139,0.7126,0.7065,0.699,0.6912,0.6844,0.6712,0.6576,0.6491,0.5695,0.4838,0.4151,0.3673,0.2973,0.1802,0.1243,0.0695,0.0077,0.0,0.0,0.0,0.0,0.0,0.0,-0.0347,-0.0547,-0.0606,-0.0941,-0.1209,-0.1209,-0.1676,-0.1942,-0.1942,-0.2811,-0.328,-0.328,-0.368,-0.3882,-0.3882,-0.435,-0.4619,-0.4619,-0.516,-0.5428,-0.5428,-0.5428,-0.5428,-0.5428,-0.5428,-0.5428,-0.5428,-0.5428,-0.5428,-0.5428,-0.5428,-0.5428,-0.5428,-0.5815,-0.6075,-0.6207]}]]